[[{"header":{"parameterUnit":"m.s-1","parameterCategory":1,"la1":31.0,"la2":29.5877,"lo1":-88.7671,"lo2":-86.6584,"dy":0.0162,"dx":0.0185,"nx":115,"ny":88,"refTime":"2023-08-29T18:00:00:Z","depth":0,"parameterNumber":2,"parameterNumberName":"U-component_of_WINDS"},"data":[0.0,0.0,0.0,0.0,0.0,0.0,0.0,0.0,0.0,0.0,0.0,0.0,0.0,0.0,0.0,0.0,0.0,0.0,0.0,0.0,0.0,0.0,0.0,0.0,0.0,0.0,0.0,0.0,0.0,0.0,0.0,0.0,0.0,0.0,0.0,0.0,0.0,0.0,0.0,0.0,0.0,0.0,0.0,0.0,0.0,0.0,0.0,0.0,0.0,0.0,0.0,0.0,0.0,0.0,0.0,0.0,0.0,0.0,0.0,0.0,0.0,0.0,0.0,0.0,0.0,0.0,0.0,0.0,0.0,0.0,0.0,0.0,0.0,0.0,0.0,0.0,0.0,0.0,0.0,0.0,0.0,0.0,0.0,0.0,0.0,0.0,0.0,0.0,0.0,0.0,0.0,0.0,0.0,0.0,0.0,0.0,0.0,0.0,0.0,0.0,0.0,0.0,0.0,0.0,0.0,0.0,0.0,0.0,0.0,0.0,0.0,0.0,0.0,0.0,0.0,0.0,0.0,0.0,0.0,0.0,0.0,0.0,0.0,0.0,0.0,0.0,0.0,0.0,0.0,0.0,0.0,0.0,0.0,0.0,0.0,0.0,0.0,0.0,0.0,0.0,0.0,0.0,0.0,0.0,0.0,0.0,0.0,0.0,0.0,0.0,0.0,0.0,0.0,0.0,0.0,0.0,0.0,0.0,0.0,0.0,0.0,0.0,0.0,0.0,0.0,0.0,0.0,0.0,0.0,0.0,0.0,0.0,0.0,0.0,0.0,0.0,0.0,0.0,0.0,0.0,0.0,0.0,0.0,0.0,0.0,0.0,0.0,0.0,0.0,0.0,0.0,0.0,0.0,0.0,0.0,0.0,0.0,0.0,0.0,0.0,0.0,0.0,0.0,0.0,0.0,0.0,0.0,0.0,0.0,0.0,0.0,0.0,0.0,0.0,0.0,0.0,0.0,0.0,0.0,0.0,0.0,0.0,0.0,0.0,0.0,0.0,0.0,0.0,0.0,0.0,0.0,0.0,0.0,0.0,0.0,0.0,0.0,0.0,0.0,0.0,0.0,0.0,0.0,0.0,0.0,0.0,0.0,0.0,0.0,0.0,0.0,0.0,0.0,0.0,0.0,0.0,0.0,0.0,0.0,0.0,0.0,0.0,0.0,0.0,0.0,0.0,0.0,0.0,0.0,0.0,0.0,0.0,0.0,0.0,0.0,0.0,0.0,0.0,0.0,0.0,0.0,0.0,0.0,0.0,0.0,0.0,0.0,0.0,0.0,0.0,0.0,0.0,0.0,0.0,0.0,0.0,0.0,0.0,0.0,0.0,0.0,0.0,0.0,0.0,0.0,0.0,0.0,0.0,0.0,0.0,0.0,0.0,0.0,0.0,0.0,0.0,0.0,0.0,0.0,0.0,0.0,0.0,0.0,0.0,0.0,0.0,0.0,0.0,0.0,0.0,0.0,0.0,0.0,0.0,0.0,0.0,0.0,0.0,0.0,0.0,0.0,0.0,0.0,0.0,0.0,0.0,0.0,0.0,0.0,0.0,0.0,0.0,0.0,0.0,0.0,0.0,0.0,0.0,0.0,0.0,0.0,0.0,0.0,0.0,0.0,0.0,0.0,0.0,0.0,0.0,0.0,0.0,0.0,0.0,0.0,0.0,0.0,0.0,0.0,0.0,0.0,0.0,0.0,0.0,0.0,0.0,0.0,0.0,0.0,0.0,0.0,0.0,0.0,0.0,0.0,0.0,0.0,0.0,0.0,0.0,0.0,0.0,0.0,0.0,0.0,0.0,0.0,0.0,0.0,0.0,0.0,0.0,0.0,0.0,0.0,0.0,0.0,0.0,0.0,0.0,0.0,0.0,0.0,0.0,0.0,0.0,0.0,0.0,0.0,0.0,0.0,0.0,0.0,0.0,0.0,0.0,0.0,0.0,0.0,0.0,0.0,0.0,0.0,0.0,0.0,0.0,0.0,0.0,0.0,0.0,0.0,0.0,0.0,0.0,0.0,0.0,0.0,0.0,0.0,0.0,0.0,0.0,0.0,0.0,0.0,0.0,0.0,0.0,0.0,0.0,0.0,0.0,0.0,0.0,0.0,0.0,0.0,0.0,0.0,0.0,0.0,0.0,0.0,0.0,0.0,0.0,0.0,0.0,0.0,0.0,0.0,0.0,0.0,0.0,0.0,0.0,0.0,0.0,0.0,0.0,0.0,0.0,0.0,0.0,0.0,0.0,0.0,0.0,0.0,0.0,0.0,0.0,0.0,0.0,0.0,0.0,0.0,0.0,0.0,0.0,0.0,0.0,0.0,0.0,0.0,0.0,0.0,0.0,0.0,0.0,0.0,0.0,0.0,0.0,0.0,0.0,0.0,0.0,0.0,0.0,0.0,0.0,0.0,0.0,0.0,0.0,0.0,0.0,0.0,0.0,0.0,0.0,0.0,0.0,0.0,0.0,0.0,0.0,0.0,0.0,0.0,0.0,0.0,0.0,0.0,0.0,0.0,0.0,0.0,0.0,0.0,0.0,0.0,0.0,0.0,0.0,0.0,0.0,0.0,0.0,0.0,0.0,0.0,0.0,0.0,0.0,0.0,0.0,0.0,0.0,0.0,0.0,0.0,0.0,0.0,0.0,0.0,0.0,0.0,0.0,0.0,0.0,0.0,0.0,0.0,0.0,0.0,0.0,0.0,0.0,0.0,0.0,0.0,0.0,0.0,0.0,0.0,0.0,0.0,0.0,0.0,0.0,0.0,0.0,0.0,0.0,0.0,0.0,0.0,0.0,0.0,0.0,0.0,0.0,0.0,0.0,0.0,0.0,0.0,0.0,0.0,0.0,0.0,0.0,0.0,0.0,0.0,0.0,0.0,0.0,0.0,0.0,0.0,0.0,0.0,0.0,0.0,0.0,0.0,0.0,0.0,0.0,0.0,0.0,0.0,0.0,0.0,0.0,0.0,0.0,0.0,0.0,0.0,0.0,0.0,0.0,0.0,0.0,0.0,0.0,0.0,0.0,0.0,0.0,0.0,0.0,0.0,0.0,0.0,0.0,0.0,0.0,0.0,0.0,0.0,0.0,0.0,0.0,0.0,0.0,0.0,0.0,0.0,0.0,0.0,0.0,0.0,0.0,0.0,0.0,0.0,0.0,0.0,0.0,0.0,0.0,0.0,0.0,0.0,0.0,0.0,0.0,0.0,0.0,0.0,0.0,0.0,0.0,0.0,0.0,0.0,0.0,0.0,0.0,0.0,0.0,0.0,0.0,0.0,0.0,0.0,0.0,0.0,0.0,0.0,0.0,0.0,0.0,0.0,0.0,0.0,0.0,0.0,0.0,0.0,0.0,0.0,0.0,0.0,0.0,0.0,0.0,0.0,0.0,0.0,0.0,0.0,0.0,0.0,0.0,0.0,0.0,0.0,0.0,0.0,0.0,0.0,0.0,0.0,0.0,0.0,0.0,0.0,0.0,0.0,0.0,0.0,0.0,0.0,0.0,0.0,0.0,0.0,0.0,0.0,0.0,0.0,0.0,0.0,0.0,0.0,0.0,0.0,0.0,0.0,0.0,0.0,0.0,0.0,0.0,0.0,0.0,0.0,0.0,0.0,0.0,0.0,0.0,0.0,0.0,0.0,0.0,0.0,0.0,0.0,0.0,0.0,0.0,0.0,0.0,0.0,0.0,0.0,0.0,0.0,0.0,0.0,0.0,0.0,0.0,0.0,0.0,0.0,0.0,0.0,0.0,0.0,0.0,0.0,0.0,0.0,0.0,0.0,0.0,0.0,0.0,0.0,0.0,0.0,0.0,0.0,0.0,0.0,0.0,0.0,0.0,0.0,0.0,0.0,0.0,0.0,0.0,0.0,0.0,0.0,0.0,0.0,0.0,0.0,0.0,0.0,0.0,0.0,0.0,0.0,0.0,0.0,0.0,0.0,0.0,0.0,0.0,0.0,0.0,0.0,0.0,0.0,0.0,0.0,0.0,0.0,0.0,0.0,0.0,0.0,0.0,0.0,0.0,0.0,0.0,0.0,0.0,0.0,0.0,0.0,0.0,0.0,0.0,0.0,0.0,0.0,0.0,0.0,0.0,0.0,0.0,0.0,0.0,0.0,0.0,0.0,0.0,0.0,0.0,0.0,0.0,0.0,0.0,0.0,0.0,0.0,0.0,0.0,0.0,0.0,0.0,0.0,0.0,0.0,0.0,0.0,0.0,0.0,0.0,0.0,0.0,0.0,0.0,0.0,0.0,0.0,0.0,0.0,0.0,0.0,0.0,-1.9098,0.0,0.0,0.0,0.0,0.0,0.0,0.0,0.0,0.0,0.0,0.0,0.0,0.0,0.0,0.0,0.0,0.0,0.0,0.0,0.0,0.0,0.0,0.0,0.0,0.0,0.0,0.0,0.0,0.0,0.0,0.0,0.0,0.0,0.0,0.0,0.0,0.0,0.0,0.0,0.0,0.0,0.0,0.0,0.0,0.0,0.0,0.0,0.0,0.0,0.0,0.0,0.0,0.0,0.0,0.0,0.0,0.0,0.0,0.0,0.0,0.0,0.0,0.0,0.0,0.0,0.0,0.0,0.0,0.0,0.0,0.0,0.0,0.0,0.0,0.0,0.0,0.0,0.0,0.0,0.0,0.0,0.0,0.0,0.0,0.0,0.0,0.0,0.0,0.0,0.0,0.0,0.0,0.0,0.0,0.0,0.0,0.0,0.0,0.0,0.0,0.0,0.0,0.0,0.0,0.0,0.0,0.0,0.0,0.0,0.0,-1.9274,-1.9098,-1.9098,-1.9098,-1.9098,0.0,0.0,0.0,0.0,0.0,0.0,0.0,0.0,0.0,0.0,0.0,0.0,0.0,0.0,0.0,0.0,0.0,0.0,0.0,0.0,0.0,0.0,0.0,0.0,0.0,0.0,0.0,0.0,0.0,0.0,0.0,0.0,0.0,0.0,0.0,0.0,0.0,0.0,0.0,0.0,0.0,0.0,0.0,0.0,0.0,0.0,0.0,0.0,0.0,0.0,0.0,0.0,0.0,0.0,0.0,0.0,0.0,0.0,0.0,0.0,0.0,0.0,0.0,0.0,0.0,0.0,0.0,0.0,0.0,0.0,0.0,0.0,0.0,0.0,0.0,0.0,0.0,0.0,0.0,0.0,0.0,0.0,0.0,0.0,0.0,0.0,0.0,0.0,0.0,0.0,0.0,0.0,0.0,0.0,0.0,0.0,0.0,0.0,0.0,0.0,0.0,0.0,0.0,0.0,0.0,0.0,0.0,0.0,0.0,0.0,0.0,0.0,-1.933,-1.9297,-1.9241,0.0,0.0,0.0,0.0,0.0,0.0,0.0,0.0,0.0,0.0,0.0,0.0,0.0,0.0,0.0,0.0,0.0,0.0,0.0,0.0,0.0,0.0,0.0,0.0,0.0,0.0,0.0,0.0,0.0,0.0,0.0,0.0,0.0,0.0,0.0,0.0,0.0,0.0,0.0,0.0,0.0,0.0,0.0,0.0,0.0,0.0,0.0,0.0,0.0,0.0,0.0,0.0,0.0,0.0,0.0,0.0,0.0,0.0,0.0,0.0,0.0,0.0,0.0,0.0,0.0,0.0,0.0,0.0,0.0,0.0,0.0,0.0,0.0,0.0,0.0,0.0,0.0,0.0,0.0,0.0,0.0,0.0,0.0,0.0,0.0,0.0,0.0,0.0,0.0,0.0,0.0,0.0,0.0,0.0,0.0,0.0,0.0,0.0,0.0,0.0,0.0,0.0,0.0,0.0,0.0,0.0,0.0,0.0,0.0,0.0,-2.0031,-1.9998,-2.0009,0.0,-1.9572,0.0,0.0,0.0,0.0,0.0,0.0,0.0,0.0,0.0,0.0,0.0,0.0,0.0,0.0,0.0,0.0,0.0,0.0,0.0,0.0,0.0,0.0,0.0,0.0,0.0,0.0,0.0,0.0,0.0,0.0,0.0,0.0,0.0,0.0,0.0,0.0,0.0,0.0,0.0,0.0,0.0,0.0,0.0,0.0,0.0,0.0,0.0,0.0,0.0,0.0,0.0,0.0,0.0,0.0,0.0,0.0,0.0,0.0,0.0,0.0,0.0,0.0,0.0,0.0,0.0,0.0,0.0,0.0,0.0,0.0,0.0,0.0,0.0,0.0,0.0,0.0,0.0,0.0,0.0,0.0,0.0,0.0,0.0,0.0,0.0,0.0,0.0,0.0,0.0,0.0,0.0,0.0,0.0,0.0,0.0,0.0,0.0,0.0,0.0,0.0,0.0,0.0,0.0,0.0,0.0,0.0,0.0,0.0,0.0,0.0,-2.0302,-2.0096,-2.0096,-2.0042,0.0,0.0,0.0,0.0,0.0,0.0,0.0,0.0,0.0,0.0,0.0,0.0,0.0,0.0,0.0,0.0,0.0,0.0,0.0,0.0,0.0,0.0,0.0,0.0,0.0,0.0,0.0,0.0,0.0,0.0,0.0,0.0,0.0,0.0,0.0,0.0,0.0,0.0,0.0,0.0,0.0,0.0,0.0,0.0,0.0,0.0,0.0,0.0,0.0,0.0,0.0,0.0,0.0,0.0,0.0,0.0,0.0,0.0,0.0,0.0,0.0,0.0,0.0,0.0,0.0,0.0,0.0,0.0,0.0,0.0,0.0,0.0,0.0,0.0,0.0,0.0,0.0,0.0,0.0,0.0,0.0,0.0,0.0,0.0,0.0,0.0,0.0,0.0,0.0,0.0,0.0,0.0,0.0,0.0,0.0,0.0,0.0,0.0,0.0,0.0,0.0,0.0,0.0,0.0,0.0,0.0,0.0,0.0,0.0,0.0,-2.1071,-2.0965,-2.0613,-2.0463,-2.0366,-2.0237,0.0,0.0,0.0,0.0,0.0,0.0,0.0,0.0,0.0,0.0,0.0,0.0,0.0,0.0,0.0,0.0,0.0,0.0,0.0,0.0,0.0,0.0,0.0,0.0,0.0,0.0,0.0,0.0,0.0,0.0,0.0,0.0,0.0,0.0,0.0,0.0,0.0,0.0,0.0,0.0,0.0,0.0,0.0,0.0,0.0,0.0,0.0,0.0,0.0,0.0,0.0,0.0,0.0,0.0,0.0,0.0,0.0,0.0,0.0,0.0,0.0,0.0,0.0,0.0,0.0,0.0,0.0,0.0,0.0,0.0,0.0,0.0,0.0,0.0,0.0,0.0,0.0,0.0,0.0,0.0,0.0,0.0,0.0,0.0,0.0,0.0,0.0,0.0,0.0,0.0,0.0,0.0,0.0,0.0,0.0,0.0,0.0,0.0,0.0,0.0,0.0,0.0,0.0,0.0,0.0,0.0,0.0,0.0,-2.1846,-2.2267,-2.2267,-2.1784,-2.1356,-2.0967,0.0,0.0,0.0,0.0,0.0,0.0,0.0,0.0,0.0,0.0,0.0,0.0,0.0,0.0,0.0,0.0,0.0,0.0,0.0,0.0,0.0,0.0,0.0,0.0,0.0,0.0,0.0,0.0,0.0,0.0,0.0,0.0,0.0,0.0,0.0,0.0,0.0,0.0,0.0,0.0,0.0,0.0,0.0,0.0,0.0,0.0,0.0,0.0,0.0,0.0,0.0,0.0,0.0,0.0,0.0,0.0,0.0,0.0,0.0,0.0,0.0,0.0,0.0,0.0,0.0,0.0,0.0,0.0,0.0,0.0,0.0,0.0,0.0,0.0,0.0,0.0,0.0,0.0,0.0,0.0,0.0,0.0,0.0,0.0,0.0,0.0,0.0,0.0,0.0,0.0,0.0,0.0,0.0,0.0,0.0,0.0,0.0,0.0,0.0,0.0,0.0,0.0,0.0,0.0,0.0,0.0,0.0,0.0,0.0,-2.2359,-2.2206,-2.1908,-2.1463,-2.1273,-2.1126,0.0,0.0,0.0,0.0,0.0,0.0,0.0,0.0,0.0,0.0,0.0,0.0,0.0,0.0,0.0,0.0,0.0,0.0,0.0,0.0,0.0,0.0,0.0,0.0,0.0,0.0,0.0,0.0,0.0,0.0,0.0,0.0,0.0,0.0,0.0,0.0,0.0,0.0,0.0,0.0,0.0,0.0,0.0,0.0,0.0,0.0,0.0,0.0,0.0,0.0,0.0,0.0,0.0,0.0,0.0,0.0,0.0,0.0,0.0,0.0,0.0,0.0,0.0,0.0,0.0,0.0,0.0,0.0,0.0,0.0,0.0,0.0,0.0,0.0,0.0,0.0,0.0,0.0,0.0,0.0,0.0,0.0,0.0,0.0,0.0,0.0,0.0,0.0,0.0,0.0,0.0,0.0,0.0,0.0,0.0,0.0,0.0,0.0,0.0,0.0,0.0,0.0,0.0,0.0,0.0,0.0,0.0,0.0,0.0,-2.2604,0.0,-2.1733,-2.1431,-2.1285,-2.1201,0.0,0.0,0.0,0.0,0.0,0.0,0.0,0.0,0.0,0.0,0.0,0.0,0.0,0.0,0.0,0.0,0.0,0.0,0.0,0.0,0.0,0.0,0.0,0.0,0.0,0.0,0.0,0.0,0.0,0.0,0.0,0.0,0.0,0.0,0.0,0.0,0.0,0.0,0.0,0.0,0.0,0.0,0.0,0.0,0.0,0.0,0.0,0.0,0.0,0.0,0.0,0.0,0.0,0.0,0.0,0.0,0.0,0.0,0.0,0.0,0.0,0.0,0.0,0.0,0.0,0.0,0.0,0.0,0.0,0.0,0.0,0.0,0.0,0.0,0.0,0.0,0.0,0.0,0.0,0.0,0.0,0.0,0.0,0.0,0.0,0.0,0.0,0.0,0.0,0.0,0.0,0.0,0.0,0.0,0.0,0.0,0.0,0.0,0.0,0.0,0.0,0.0,0.0,0.0,0.0,0.0,0.0,0.0,-2.2592,-2.2622,-2.2156,-2.1908,-2.1877,-2.1463,-2.1201,0.0,0.0,0.0,0.0,0.0,0.0,0.0,0.0,0.0,0.0,0.0,0.0,0.0,0.0,0.0,0.0,0.0,0.0,0.0,0.0,0.0,0.0,0.0,0.0,0.0,0.0,0.0,0.0,0.0,0.0,0.0,0.0,0.0,0.0,0.0,0.0,0.0,0.0,0.0,0.0,0.0,0.0,0.0,0.0,0.0,0.0,0.0,0.0,0.0,0.0,0.0,0.0,0.0,0.0,0.0,0.0,0.0,0.0,0.0,0.0,0.0,0.0,0.0,0.0,0.0,0.0,0.0,0.0,0.0,0.0,0.0,0.0,0.0,0.0,0.0,0.0,0.0,0.0,0.0,0.0,0.0,0.0,0.0,0.0,0.0,0.0,0.0,0.0,0.0,0.0,0.0,0.0,0.0,0.0,0.0,0.0,0.0,0.0,0.0,0.0,0.0,0.0,0.0,0.0,0.0,0.0,0.0,0.0,0.0,-2.3712,-2.2543,-2.2002,-2.2218,-2.1557,-2.1201,0.0,0.0,0.0,0.0,0.0,0.0,0.0,0.0,0.0,0.0,0.0,0.0,0.0,0.0,0.0,0.0,0.0,0.0,0.0,0.0,0.0,0.0,0.0,0.0,0.0,0.0,0.0,0.0,0.0,0.0,0.0,0.0,0.0,0.0,0.0,0.0,0.0,0.0,0.0,0.0,0.0,0.0,0.0,0.0,0.0,0.0,0.0,0.0,0.0,0.0,0.0,0.0,0.0,0.0,0.0,0.0,0.0,0.0,0.0,0.0,0.0,0.0,0.0,0.0,0.0,0.0,0.0,0.0,0.0,0.0,0.0,0.0,0.0,0.0,0.0,0.0,0.0,0.0,0.0,0.0,0.0,0.0,0.0,0.0,0.0,0.0,0.0,0.0,0.0,0.0,0.0,0.0,0.0,0.0,0.0,0.0,0.0,0.0,0.0,0.0,0.0,0.0,0.0,0.0,0.0,0.0,0.0,0.0,0.0,-2.4047,-2.2573,-2.1815,-2.2044,-2.1545,-2.1273,-2.1242,0.0,0.0,0.0,0.0,0.0,0.0,0.0,0.0,0.0,0.0,0.0,0.0,0.0,0.0,0.0,0.0,0.0,0.0,0.0,0.0,0.0,0.0,0.0,0.0,0.0,0.0,0.0,0.0,0.0,0.0,0.0,0.0,0.0,0.0,0.0,0.0,0.0,0.0,0.0,0.0,0.0,0.0,0.0,0.0,0.0,0.0,0.0,0.0,0.0,0.0,0.0,0.0,0.0,0.0,0.0,0.0,0.0,0.0,0.0,0.0,0.0,0.0,0.0,0.0,0.0,0.0,0.0,0.0,0.0,0.0,0.0,0.0,0.0,0.0,0.0,0.0,0.0,0.0,0.0,0.0,0.0,0.0,0.0,0.0,0.0,0.0,0.0,0.0,0.0,0.0,0.0,0.0,0.0,0.0,0.0,0.0,0.0,0.0,0.0,0.0,0.0,0.0,0.0,0.0,0.0,0.0,0.0,0.0,-2.3875,-2.2267,-2.1482,-2.1514,-2.1463,-2.1388,0.0,0.0,0.0,0.0,0.0,0.0,0.0,0.0,0.0,0.0,0.0,0.0,0.0,0.0,0.0,0.0,0.0,0.0,0.0,0.0,0.0,0.0,0.0,0.0,0.0,0.0,0.0,0.0,0.0,0.0,0.0,0.0,0.0,0.0,0.0,0.0,0.0,0.0,0.0,0.0,0.0,0.0,0.0,0.0,0.0,0.0,0.0,0.0,0.0,0.0,0.0,0.0,0.0,0.0,0.0,0.0,0.0,0.0,0.0,0.0,0.0,0.0,0.0,0.0,0.0,0.0,0.0,0.0,0.0,0.0,0.0,0.0,0.0,0.0,0.0,0.0,0.0,0.0,0.0,0.0,0.0,0.0,0.0,0.0,0.0,0.0,0.0,0.0,0.0,0.0,0.0,0.0,0.0,0.0,0.0,0.0,0.0,0.0,0.0,0.0,0.0,0.0,0.0,0.0,0.0,0.0,0.0,0.0,0.0,-2.2622,-2.2068,-2.1994,-2.2463,-2.1944,-2.1624,0.0,0.0,0.0,0.0,0.0,0.0,0.0,0.0,0.0,0.0,0.0,0.0,0.0,0.0,0.0,0.0,0.0,0.0,0.0,0.0,0.0,0.0,0.0,0.0,0.0,0.0,0.0,0.0,0.0,0.0,0.0,0.0,0.0,0.0,0.0,0.0,0.0,0.0,0.0,0.0,0.0,0.0,0.0,0.0,0.0,0.0,0.0,0.0,0.0,0.0,0.0,0.0,0.0,0.0,0.0,0.0,0.0,0.0,0.0,0.0,0.0,0.0,0.0,0.0,0.0,0.0,0.0,0.0,0.0,0.0,0.0,0.0,0.0,0.0,0.0,0.0,0.0,0.0,0.0,0.0,0.0,0.0,0.0,0.0,0.0,0.0,0.0,0.0,0.0,0.0,0.0,0.0,0.0,0.0,0.0,0.0,0.0,0.0,0.0,0.0,0.0,0.0,0.0,0.0,0.0,0.0,0.0,0.0,-2.2197,-2.2197,-2.2092,-2.2192,-2.258,-2.18,-2.1498,0.0,0.0,0.0,0.0,0.0,0.0,0.0,0.0,0.0,0.0,0.0,0.0,0.0,0.0,0.0,0.0,0.0,0.0,0.0,0.0,0.0,0.0,0.0,0.0,0.0,0.0,0.0,0.0,0.0,0.0,0.0,0.0,0.0,0.0,0.0,0.0,0.0,0.0,0.0,0.0,0.0,0.0,0.0,0.0,0.0,0.0,0.0,0.0,0.0,0.0,0.0,0.0,0.0,0.0,0.0,0.0,0.0,0.0,0.0,0.0,0.0,0.0,0.0,0.0,0.0,0.0,0.0,0.0,0.0,0.0,0.0,0.0,0.0,0.0,0.0,0.0,0.0,0.0,0.0,0.0,0.0,0.0,0.0,0.0,0.0,0.0,0.0,0.0,0.0,0.0,0.0,0.0,0.0,0.0,0.0,0.0,0.0,0.0,0.0,0.0,0.0,0.0,0.0,0.0,0.0,0.0,0.0,0.0,-2.2197,-2.2197,-2.2197,-2.2154,-2.2061,-2.1316,-2.1221,0.0,0.0,0.0,0.0,0.0,0.0,0.0,0.0,0.0,0.0,0.0,0.0,0.0,0.0,0.0,0.0,0.0,0.0,0.0,0.0,0.0,0.0,0.0,0.0,0.0,0.0,0.0,0.0,0.0,0.0,0.0,0.0,0.0,0.0,0.0,0.0,0.0,0.0,0.0,0.0,0.0,0.0,0.0,0.0,0.0,0.0,0.0,0.0,0.0,0.0,0.0,0.0,0.0,0.0,0.0,0.0,0.0,0.0,0.0,0.0,0.0,0.0,0.0,0.0,0.0,0.0,0.0,0.0,0.0,0.0,0.0,0.0,0.0,0.0,0.0,0.0,0.0,0.0,0.0,0.0,0.0,0.0,0.0,0.0,0.0,0.0,0.0,0.0,0.0,0.0,0.0,0.0,0.0,0.0,0.0,0.0,0.0,0.0,0.0,0.0,0.0,0.0,0.0,0.0,0.0,0.0,0.0,0.0,-2.2197,-2.2197,-2.2197,-2.1925,-2.1356,-2.1167,-2.1135,0.0,0.0,0.0,0.0,0.0,0.0,0.0,0.0,0.0,0.0,0.0,0.0,0.0,0.0,0.0,0.0,0.0,0.0,0.0,0.0,0.0,0.0,0.0,0.0,0.0,0.0,0.0,0.0,0.0,0.0,0.0,0.0,0.0,0.0,0.0,0.0,0.0,0.0,0.0,0.0,0.0,0.0,0.0,0.0,0.0,0.0,0.0,0.0,-2.5793,0.0,0.0,0.0,0.0,0.0,0.0,0.0,0.0,0.0,0.0,0.0,0.0,0.0,0.0,0.0,0.0,0.0,0.0,0.0,0.0,0.0,0.0,0.0,0.0,0.0,0.0,0.0,0.0,0.0,0.0,0.0,0.0,0.0,0.0,0.0,0.0,0.0,0.0,0.0,0.0,0.0,0.0,0.0,0.0,0.0,0.0,0.0,0.0,0.0,0.0,0.0,0.0,0.0,0.0,0.0,0.0,0.0,0.0,0.0,-2.1812,-2.2047,-2.2027,-2.2101,-2.2336,-2.1296,-2.0842,0.0,0.0,0.0,0.0,0.0,0.0,0.0,0.0,0.0,0.0,0.0,0.0,0.0,0.0,0.0,0.0,0.0,0.0,0.0,0.0,0.0,0.0,0.0,0.0,0.0,0.0,0.0,0.0,0.0,0.0,0.0,0.0,0.0,0.0,0.0,0.0,0.0,0.0,0.0,0.0,0.0,0.0,0.0,0.0,0.0,0.0,0.0,0.0,0.0,0.0,0.0,0.0,0.0,0.0,0.0,0.0,0.0,0.0,0.0,0.0,0.0,0.0,0.0,0.0,0.0,0.0,0.0,0.0,0.0,0.0,0.0,0.0,0.0,0.0,0.0,0.0,0.0,0.0,0.0,0.0,0.0,0.0,0.0,0.0,0.0,0.0,0.0,0.0,0.0,0.0,0.0,0.0,0.0,0.0,0.0,0.0,0.0,0.0,0.0,0.0,0.0,0.0,0.0,0.0,0.0,0.0,0.0,-2.1441,-2.1608,-2.1907,-2.1941,-2.2381,-2.3258,-2.1557,-2.0693,-2.0947,0.0,0.0,0.0,0.0,0.0,0.0,0.0,0.0,0.0,0.0,0.0,0.0,0.0,0.0,0.0,0.0,0.0,0.0,0.0,0.0,0.0,0.0,0.0,0.0,0.0,0.0,0.0,0.0,0.0,0.0,0.0,0.0,0.0,0.0,0.0,0.0,0.0,0.0,-2.3379,-2.5004,0.0,0.0,0.0,0.0,0.0,0.0,0.0,0.0,-2.5723,0.0,0.0,0.0,0.0,0.0,0.0,0.0,0.0,0.0,0.0,0.0,0.0,0.0,0.0,0.0,0.0,0.0,0.0,0.0,0.0,0.0,0.0,0.0,0.0,0.0,0.0,0.0,0.0,0.0,0.0,0.0,0.0,0.0,0.0,0.0,0.0,0.0,0.0,0.0,0.0,0.0,0.0,0.0,0.0,0.0,0.0,0.0,0.0,0.0,0.0,0.0,0.0,0.0,0.0,0.0,0.0,-2.135,-2.2479,-2.274,-2.2014,-2.24,-2.215,-2.1212,-2.1625,-2.1428,-2.0474,0.0,0.0,0.0,0.0,0.0,0.0,0.0,0.0,0.0,0.0,0.0,0.0,0.0,0.0,0.0,0.0,0.0,0.0,0.0,0.0,0.0,0.0,0.0,0.0,0.0,0.0,0.0,0.0,0.0,0.0,0.0,0.0,0.0,0.0,0.0,0.0,0.0,0.0,0.0,-2.4921,-2.5921,0.0,0.0,0.0,0.0,0.0,0.0,0.0,0.0,-2.6141,0.0,0.0,0.0,0.0,0.0,0.0,0.0,0.0,0.0,0.0,0.0,0.0,0.0,0.0,0.0,0.0,0.0,0.0,0.0,0.0,0.0,0.0,0.0,0.0,0.0,0.0,0.0,0.0,0.0,0.0,0.0,0.0,0.0,0.0,0.0,0.0,0.0,0.0,0.0,0.0,0.0,0.0,0.0,0.0,0.0,0.0,0.0,0.0,0.0,0.0,0.0,0.0,0.0,0.0,0.0,-2.1396,-2.21,-2.2366,-2.2158,-2.238,-2.228,-2.185,-2.1533,-2.1217,0.0,0.0,0.0,0.0,0.0,0.0,0.0,0.0,0.0,0.0,0.0,0.0,0.0,0.0,0.0,0.0,0.0,0.0,0.0,0.0,0.0,0.0,0.0,0.0,0.0,0.0,0.0,0.0,0.0,0.0,0.0,0.0,0.0,0.0,0.0,0.0,0.0,0.0,0.0,0.0,-2.4957,-2.537,-2.4409,0.0,0.0,0.0,0.0,0.0,0.0,-2.5488,-2.5664,0.0,0.0,0.0,0.0,0.0,0.0,0.0,0.0,0.0,0.0,0.0,0.0,0.0,0.0,0.0,0.0,0.0,0.0,0.0,0.0,0.0,0.0,0.0,0.0,0.0,0.0,0.0,0.0,0.0,0.0,0.0,0.0,0.0,0.0,0.0,0.0,0.0,0.0,0.0,0.0,0.0,0.0,0.0,0.0,0.0,0.0,0.0,0.0,0.0,0.0,0.0,0.0,0.0,0.0,0.0,-2.1463,-2.1634,-2.1852,-2.2067,-2.2125,-2.2308,-2.2537,-2.1318,-2.0813,0.0,0.0,0.0,0.0,0.0,0.0,0.0,0.0,0.0,0.0,0.0,0.0,0.0,0.0,0.0,0.0,0.0,0.0,0.0,0.0,0.0,0.0,0.0,0.0,0.0,0.0,0.0,0.0,0.0,0.0,0.0,0.0,0.0,0.0,0.0,0.0,0.0,0.0,0.0,0.0,0.0,-2.4862,-2.4564,-2.4779,0.0,0.0,0.0,0.0,-2.46,-2.4743,0.0,0.0,0.0,0.0,0.0,0.0,0.0,0.0,0.0,0.0,0.0,0.0,0.0,0.0,0.0,0.0,0.0,0.0,0.0,0.0,0.0,0.0,0.0,0.0,0.0,0.0,0.0,0.0,0.0,0.0,0.0,0.0,0.0,0.0,0.0,0.0,0.0,0.0,0.0,0.0,0.0,0.0,0.0,0.0,0.0,0.0,0.0,0.0,0.0,0.0,0.0,0.0,0.0,0.0,0.0,0.0,-2.1786,-2.2295,-2.2172,-2.139,-2.1786,-2.1742,-2.1167,-2.076,-2.0615,0.0,0.0,0.0,0.0,0.0,0.0,0.0,0.0,0.0,0.0,0.0,0.0,0.0,0.0,0.0,0.0,0.0,0.0,0.0,0.0,0.0,0.0,0.0,0.0,0.0,0.0,0.0,0.0,0.0,0.0,0.0,0.0,0.0,0.0,0.0,0.0,0.0,0.0,0.0,0.0,0.0,-2.4743,-2.4,-2.4516,-2.4779,0.0,0.0,-2.454,-2.3169,-2.339,0.0,0.0,0.0,0.0,0.0,0.0,0.0,0.0,0.0,0.0,0.0,0.0,0.0,0.0,0.0,0.0,0.0,0.0,0.0,0.0,0.0,0.0,0.0,0.0,0.0,0.0,0.0,0.0,0.0,0.0,0.0,0.0,0.0,0.0,0.0,0.0,0.0,0.0,0.0,0.0,0.0,0.0,0.0,0.0,0.0,0.0,0.0,0.0,0.0,0.0,0.0,0.0,0.0,0.0,0.0,-2.1333,-2.158,-2.1987,-2.1961,-2.1586,-2.1756,-2.1538,-2.0741,-2.0644,-2.0654,0.0,0.0,0.0,0.0,0.0,0.0,0.0,0.0,0.0,0.0,0.0,0.0,0.0,0.0,0.0,0.0,0.0,0.0,0.0,0.0,0.0,0.0,0.0,0.0,0.0,0.0,0.0,0.0,0.0,0.0,0.0,0.0,0.0,0.0,0.0,0.0,0.0,0.0,0.0,0.0,0.0,0.0,-2.3708,-2.4036,0.0,0.0,0.0,-2.4276,-2.3599,0.0,0.0,0.0,0.0,0.0,0.0,0.0,0.0,0.0,0.0,0.0,0.0,0.0,0.0,0.0,0.0,0.0,0.0,0.0,0.0,0.0,0.0,0.0,0.0,0.0,0.0,0.0,0.0,0.0,0.0,0.0,0.0,0.0,0.0,0.0,0.0,0.0,0.0,0.0,0.0,0.0,0.0,0.0,0.0,0.0,0.0,0.0,0.0,0.0,0.0,0.0,0.0,0.0,0.0,0.0,0.0,0.0,-2.1327,-2.146,-2.1499,-2.1499,-2.1499,-2.1203,-2.0644,-2.0615,0.0,0.0,0.0,0.0,0.0,0.0,0.0,0.0,0.0,0.0,0.0,0.0,0.0,0.0,0.0,0.0,0.0,0.0,0.0,0.0,0.0,0.0,0.0,0.0,0.0,0.0,0.0,-2.2462,0.0,0.0,0.0,0.0,0.0,0.0,0.0,0.0,0.0,0.0,0.0,0.0,0.0,0.0,-2.3551,-2.3184,-2.3257,-2.3231,0.0,0.0,-2.3514,-2.3316,-2.2697,-2.2547,0.0,0.0,0.0,0.0,0.0,0.0,0.0,0.0,0.0,0.0,0.0,0.0,0.0,0.0,0.0,0.0,0.0,0.0,0.0,0.0,0.0,0.0,0.0,0.0,0.0,0.0,0.0,0.0,0.0,0.0,0.0,0.0,0.0,0.0,0.0,0.0,0.0,0.0,0.0,0.0,0.0,0.0,0.0,0.0,0.0,0.0,0.0,0.0,0.0,0.0,0.0,0.0,0.0,0.0,0.0,-2.1203,-2.0867,-2.0683,-2.0683,-2.0673,-2.0644,-2.0605,-2.0615,-2.0595,0.0,0.0,0.0,0.0,0.0,0.0,0.0,0.0,0.0,0.0,0.0,0.0,0.0,0.0,0.0,0.0,0.0,0.0,0.0,0.0,0.0,0.0,0.0,0.0,0.0,0.0,0.0,0.0,0.0,0.0,0.0,0.0,0.0,0.0,0.0,0.0,0.0,0.0,0.0,0.0,0.0,-2.3172,-2.2215,-2.2103,-2.1859,0.0,0.0,-2.1897,-2.1233,-2.1051,-2.1349,-2.2322,0.0,0.0,0.0,0.0,0.0,0.0,0.0,0.0,0.0,0.0,0.0,0.0,0.0,0.0,0.0,0.0,0.0,0.0,0.0,0.0,0.0,0.0,0.0,0.0,0.0,0.0,0.0,0.0,0.0,0.0,0.0,0.0,0.0,0.0,0.0,0.0,0.0,0.0,0.0,0.0,0.0,0.0,0.0,0.0,0.0,0.0,0.0,0.0,0.0,0.0,0.0,0.0,0.0,-2.1079,-2.0799,-2.0683,-2.0615,-2.0615,-2.0615,-2.0615,-2.0615,-2.0615,-2.0615,0.0,0.0,0.0,0.0,0.0,0.0,0.0,0.0,0.0,0.0,0.0,0.0,0.0,0.0,0.0,0.0,0.0,0.0,0.0,0.0,0.0,0.0,0.0,0.0,0.0,0.0,0.0,0.0,-2.3195,-2.3121,-2.2787,0.0,0.0,0.0,0.0,0.0,0.0,0.0,0.0,0.0,0.0,-2.244,-2.2065,-2.2,0.0,0.0,-2.1662,-2.1983,-2.1205,-2.1089,-2.1387,-2.2258,-2.2004,0.0,0.0,0.0,0.0,0.0,0.0,0.0,0.0,0.0,0.0,0.0,0.0,0.0,0.0,0.0,0.0,0.0,0.0,0.0,0.0,0.0,0.0,0.0,0.0,0.0,0.0,0.0,0.0,0.0,0.0,0.0,0.0,0.0,0.0,0.0,0.0,0.0,0.0,0.0,0.0,0.0,0.0,0.0,0.0,0.0,0.0,0.0,0.0,0.0,0.0,0.0,0.0,-2.0984,-2.0693,-2.0644,-2.0615,-2.0615,-2.0615,-2.0615,-2.0615,-2.0615,-2.0615,0.0,0.0,0.0,0.0,0.0,0.0,0.0,0.0,0.0,0.0,0.0,0.0,0.0,0.0,0.0,0.0,0.0,0.0,0.0,0.0,0.0,0.0,0.0,0.0,0.0,0.0,0.0,0.0,-2.3902,-2.3781,-2.3781,0.0,0.0,0.0,0.0,0.0,0.0,0.0,0.0,0.0,0.0,-2.1886,-2.1642,-2.1935,-2.1973,-2.1474,-2.2328,-2.277,-2.2042,-2.1812,-2.1847,-2.2252,0.0,0.0,0.0,0.0,0.0,0.0,0.0,0.0,0.0,0.0,0.0,0.0,0.0,0.0,0.0,0.0,0.0,0.0,0.0,0.0,0.0,0.0,0.0,0.0,0.0,0.0,0.0,0.0,0.0,0.0,-2.178,0.0,0.0,0.0,0.0,0.0,0.0,0.0,0.0,0.0,0.0,0.0,0.0,0.0,0.0,0.0,0.0,0.0,0.0,0.0,0.0,0.0,0.0,-2.0906,-2.0858,-2.0693,-2.0615,-2.0615,-2.0615,-2.0615,-2.0615,-2.0615,-2.0615,-2.0615,0.0,0.0,0.0,0.0,0.0,0.0,0.0,0.0,0.0,0.0,0.0,0.0,0.0,0.0,0.0,0.0,0.0,0.0,0.0,0.0,0.0,0.0,0.0,0.0,0.0,0.0,-2.4084,-2.3463,-2.3095,0.0,0.0,0.0,0.0,0.0,0.0,0.0,0.0,0.0,0.0,-2.1989,-2.1669,-2.0799,-2.1742,-2.2548,-2.2519,-2.3602,-2.422,-2.3623,-2.3167,-2.2703,0.0,0.0,0.0,0.0,0.0,0.0,0.0,0.0,0.0,0.0,0.0,0.0,0.0,0.0,0.0,0.0,0.0,0.0,0.0,0.0,0.0,0.0,0.0,0.0,0.0,0.0,0.0,-2.228,-2.227,0.0,0.0,0.0,0.0,0.0,0.0,0.0,0.0,0.0,0.0,0.0,-2.1022,-2.0945,0.0,0.0,0.0,0.0,0.0,0.0,0.0,0.0,0.0,0.0,0.0,0.0,-2.0819,-2.0731,-2.0644,-2.0615,-2.0615,-2.0615,-2.0615,-2.0615,-2.0615,-2.0615,-2.0615,0.0,0.0,0.0,0.0,0.0,0.0,0.0,0.0,0.0,0.0,0.0,0.0,0.0,0.0,0.0,0.0,0.0,0.0,0.0,0.0,0.0,0.0,0.0,0.0,0.0,-2.3902,0.0,0.0,0.0,0.0,0.0,0.0,0.0,0.0,0.0,0.0,0.0,-2.2537,-2.1935,-2.1649,-2.1352,-2.1045,-2.1619,-2.2139,0.0,0.0,0.0,0.0,0.0,0.0,0.0,0.0,0.0,0.0,0.0,0.0,0.0,0.0,-2.0615,-2.0615,-2.0615,-2.0615,-2.0615,0.0,0.0,0.0,0.0,0.0,0.0,0.0,0.0,0.0,0.0,0.0,0.0,0.0,0.0,-2.2402,0.0,-2.2251,0.0,0.0,0.0,0.0,0.0,0.0,0.0,0.0,-2.0858,-2.0819,-2.078,-2.0819,-2.078,0.0,-2.078,-2.0731,0.0,0.0,0.0,0.0,0.0,0.0,0.0,0.0,-2.0731,-2.0605,-2.0615,-2.0615,-2.0615,-2.0615,-2.0615,-2.0615,-2.0615,-2.0615,-2.0615,-2.0615,-2.0615,0.0,0.0,0.0,0.0,0.0,0.0,0.0,0.0,0.0,0.0,0.0,0.0,0.0,0.0,0.0,0.0,0.0,0.0,0.0,0.0,0.0,0.0,0.0,-2.3769,0.0,0.0,0.0,0.0,0.0,0.0,0.0,0.0,0.0,-2.3715,-2.2888,-2.2136,-2.1863,-2.163,-2.1424,-2.1414,0.0,0.0,0.0,0.0,0.0,0.0,0.0,-2.3458,-2.2908,-2.2787,-2.2565,-2.205,-2.135,-2.0801,-2.0801,0.0,0.0,-2.0615,-2.0615,-2.0615,-2.0615,-2.0566,-2.0411,-2.0225,-2.0108,-2.0029,0.0,0.0,0.0,0.0,0.0,0.0,0.0,0.0,-2.2542,-2.2271,0.0,-2.187,0.0,0.0,0.0,0.0,0.0,-2.0867,0.0,0.0,-2.0605,-2.0615,-2.0605,-2.0605,-2.0605,-2.0615,-2.0605,-2.0605,-2.0615,-2.0605,0.0,0.0,0.0,0.0,0.0,0.0,-2.0615,-2.0615,-2.0615,-2.0615,-2.0615,-2.0615,-2.0615,-2.0615,-2.0615,-2.0615,-2.0615,-2.0615,-2.0615,-2.0615,-2.0615,0.0,0.0,0.0,0.0,0.0,0.0,0.0,0.0,0.0,0.0,0.0,0.0,0.0,0.0,0.0,0.0,0.0,0.0,0.0,0.0,-2.3842,0.0,0.0,0.0,0.0,0.0,0.0,0.0,0.0,0.0,0.0,-2.3124,-2.3082,-2.2798,-2.1989,0.0,0.0,0.0,0.0,-2.3784,-2.3742,-2.486,-2.5489,-2.4962,-2.4281,-2.3639,-2.3124,0.0,0.0,-2.1926,-2.1533,-2.121,-2.12,-2.0928,-2.0644,-2.0644,-2.0625,-2.0615,-2.0615,-2.045,-2.0225,-1.999,-1.9833,-1.9676,-2.3406,0.0,0.0,0.0,0.0,-2.3305,-2.3084,-2.2902,-2.2945,-2.2709,-2.2306,-2.2306,0.0,0.0,0.0,0.0,0.0,0.0,-2.0654,-2.0605,-2.0615,-2.0615,-2.0615,-2.0615,-2.0615,-2.0615,-2.0615,-2.0615,-2.0615,-2.0615,-2.0644,-2.0693,0.0,0.0,0.0,0.0,-2.0615,-2.0615,-2.0615,-2.0615,-2.0615,-2.0615,-2.0615,-2.0615,-2.0615,-2.0615,-2.0615,-2.0615,-2.0615,-2.0615,-2.0615,0.0,0.0,0.0,0.0,0.0,0.0,0.0,0.0,0.0,0.0,0.0,0.0,0.0,0.0,0.0,0.0,0.0,0.0,0.0,-2.5222,-2.4581,-2.3917,0.0,0.0,0.0,0.0,0.0,0.0,0.0,0.0,0.0,-2.3107,-2.2581,-2.2164,0.0,0.0,-2.2334,-2.2334,-2.2899,-2.3285,-2.3285,-2.3644,0.0,-2.3692,-2.4004,-2.3946,-2.2846,-2.2247,-2.1936,-2.1936,-2.1777,-2.1699,-2.1699,-2.1602,-2.1406,-2.1094,-2.0771,-2.0625,-2.0605,-2.0566,-2.0459,-2.0225,-1.999,-1.9784,-2.3178,-2.3363,-2.3493,-2.3493,-2.3503,-2.3363,-2.3232,-2.3101,-2.3101,-2.2857,-2.251,-2.251,-2.2227,-2.1697,-2.1707,0.0,0.0,0.0,-2.1124,-2.1134,-2.1124,-2.0996,-2.084,-2.083,-2.0732,-2.0615,-2.0615,-2.0615,-2.0615,-2.0615,-2.0615,-2.0615,0.0,0.0,-2.0615,-2.0615,-2.0615,-2.0615,-2.0615,-2.0615,-2.0615,-2.0615,-2.0615,-2.0615,-2.0615,-2.0615,-2.0615,-2.0615,-2.0615,-2.0615,-2.0615,-2.0615,0.0,0.0,0.0,0.0,0.0,0.0,0.0,0.0,0.0,0.0,0.0,-2.1855,-2.1855,0.0,0.0,0.0,-2.3681,-2.4618,-2.4675,-2.4055,0.0,0.0,0.0,0.0,0.0,0.0,0.0,-2.3958,-2.3477,-2.3101,-2.3091,-2.2662,-2.2383,-2.2383,-2.2607,-2.2711,-2.2764,0.0,-2.3101,-2.3101,-2.3101,-2.3101,-2.3101,-2.356,-2.3644,-2.2889,-2.2516,-2.2314,-2.2158,-2.2002,-2.1826,-2.166,-2.1484,-2.1279,-2.1025,-2.0791,-2.0566,-2.0489,-2.0566,-2.0489,-2.0225,-2.0029,-1.9833,-2.3101,-2.3101,-2.3101,-2.3232,-2.346,-2.3222,-2.3101,-2.3101,-2.3101,-2.2857,-2.2519,-2.251,-2.249,-2.2461,-2.2451,0.0,-2.1936,-2.1936,-2.1875,-2.1936,-2.1936,-2.165,-2.12,-2.119,-2.0996,-2.0615,-2.0615,-2.0615,-2.0615,-2.0615,-2.0615,-2.0615,-2.0615,-2.0615,-2.0615,-2.0615,-2.0615,-2.0615,-2.0615,-2.0615,-2.0615,-2.0615,-2.0615,-2.0615,-2.0615,-2.0615,-2.0615,-2.0615,-2.0615,-2.0615,-2.0615,-2.0615,-2.0615,0.0,0.0,0.0,0.0,0.0,0.0,0.0,0.0,0.0,0.0,0.0,0.0,0.0,0.0,0.0,-2.3032,0.0,-2.3368,-2.2934,0.0,0.0,0.0,-2.3517,-2.4327,-2.3647,-2.344,-2.4284,0.0,0.0,-2.3101,-2.3101,-2.3101,-2.3101,-2.3101,-2.3101,-2.3101,-2.3091,-2.3101,-2.3101,-2.3101,-2.3101,-2.3101,-2.3135,-2.3149,-2.2974,-2.3042,-2.2838,-2.249,-2.2097,-2.1687,-2.1366,-2.0947,-2.0684,-2.0644,-2.0625,-2.0528,-2.0274,-2.0411,-2.045,-2.002,-1.9855,-1.9739,-2.3101,-2.3101,-2.3101,-2.3135,-2.3188,-2.3135,-2.3101,-2.3101,-2.3101,-2.2867,-2.251,-2.251,-2.2334,-2.2031,-2.2041,-2.1982,-2.1936,-2.1936,-2.1936,-2.1936,-2.1936,-2.166,-2.121,-2.12,-2.0996,-2.0625,-2.0615,-2.0615,-2.0615,-2.0615,-2.0615,-2.0615,-2.0615,-2.0615,-2.0615,-2.0615,-2.0615,-2.0615,-2.0615,-2.0615,-2.0615,-2.0615,-2.0615,-2.0615,-2.0615,-2.0615,-2.0615,-2.0615,-2.0615,-2.0615,-2.0615,-2.0615,-2.0615,-2.0615,0.0,0.0,0.0,0.0,0.0,0.0,0.0,0.0,0.0,-2.1523,-2.1865,0.0,-2.231,0.0,-2.246,-2.3346,-2.5045,-2.4482,0.0,0.0,-2.4104,-2.3983,-2.3474,-2.3222,-2.3178,-2.3396,-2.3222,-2.3101,-2.3101,-2.3101,-2.3101,-2.3101,-2.3101,-2.3101,-2.3101,-2.3101,-2.3101,-2.3101,-2.3101,-2.3101,-2.3101,-2.3101,-2.2984,-2.2715,-2.2494,-2.2306,-2.2109,-2.1809,-2.161,-2.1697,-2.1467,-2.1204,-2.0844,-2.0705,-2.0412,-1.9918,-2.0069,-2.0264,-1.9971,-1.954,-1.919,-2.3101,-2.3101,-2.3101,-2.3101,-2.3101,-2.3101,-2.3101,-2.3101,-2.3101,-2.2964,-2.2793,-2.274,-2.2666,-2.2451,-2.2451,-2.2441,-2.2441,-2.2441,-2.2451,-2.2441,-2.2441,-2.2109,-2.1492,-2.1523,-2.1191,-2.0625,-2.0615,-2.0615,-2.0615,-2.0615,-2.0615,-2.0615,-2.0615,-2.0615,-2.0615,-2.0615,-2.0615,-2.0615,-2.0615,-2.0615,-2.0615,-2.0615,-2.0615,-2.0615,-2.0615,-2.0615,-2.0615,-2.0615,-2.0615,-2.0615,-2.0615,-2.0615,-2.0615,-2.0615,-2.0615,0.0,0.0,0.0,0.0,0.0,0.0,0.0,0.0,0.0,0.0,0.0,-2.2857,-2.3052,-2.286,-2.343,-2.5052,-2.4402,-2.3907,-2.3864,-2.3907,-2.3691,-2.3135,-2.3101,-2.3101,-2.3101,-2.3101,-2.3101,-2.3101,-2.3101,-2.3101,-2.3101,-2.3101,-2.3101,-2.3101,-2.3101,-2.3101,-2.3101,-2.3101,-2.3057,-2.3013,-2.2814,-2.262,-2.2388,-2.21,-2.1778,-2.1496,-2.1245,-2.1106,-2.1015,-2.0876,-2.0719,-2.049,-2.0362,-2.0127,-1.9809,-1.9794,-1.9912,-1.9784,-1.9378,-1.9012,-2.3179,-2.3169,-2.312,-2.3101,-2.3101,-2.3101,-2.3101,-2.3101,-2.3101,-2.3101,-2.3101,-2.3101,-2.3101,-2.3101,-2.3101,-2.3101,-2.3101,-2.3101,-2.3101,-2.3101,-2.3101,-2.2652,-2.1904,-2.1936,-2.1466,-2.0625,-2.0615,-2.0615,-2.0615,-2.0615,-2.0615,-2.0615,-2.0615,-2.0615,-2.0615,-2.0615,-2.0615,-2.0615,-2.0615,-2.0615,-2.0615,-2.0615,-2.0615,-2.0615,-2.0615,-2.0615,-2.0615,-2.0615,-2.0615,-2.0615,-2.0615,-2.0615,-2.0615,-2.0615,-2.0615,0.0,-2.0986,0.0,0.0,0.0,0.0,0.0,0.0,0.0,0.0,-2.3101,-2.344,-2.4241,-2.357,-2.343,-2.4241,-2.356,-2.3101,-2.3101,-2.3101,-2.3101,-2.3101,-2.3101,-2.3057,-2.3057,-2.3057,-2.3003,-2.3013,-2.3013,-2.3003,-2.3003,-2.2969,-2.2969,-2.3003,-2.3047,-2.3101,-2.3101,-2.3091,-2.295,-2.2678,-2.2366,-2.2116,-2.1963,-2.1594,-2.1243,-2.083,-2.0612,-2.0346,-2.0065,-1.9959,-1.9901,-1.9863,-1.9843,-1.9764,-1.9597,-1.9557,-1.9557,-1.952,-1.9223,-1.8983,-2.3672,-2.3633,-2.3247,-2.3101,-2.3101,-2.3101,-2.3101,-2.3101,-2.3101,-2.3101,-2.3101,-2.3101,-2.3101,-2.3101,-2.3101,-2.3101,-2.3101,-2.3101,-2.3101,-2.3101,-2.3101,-2.2695,-2.1914,-2.1936,-2.1426,-2.0644,-2.0615,-2.0615,-2.0615,-2.0615,-2.0615,-2.0615,-2.0615,-2.0615,-2.0615,0.0,0.0,0.0,-2.0615,-2.0615,-2.0615,-2.0615,-2.0615,-2.0615,-2.0615,0.0,-2.0615,-2.0615,-2.0615,-2.0615,-2.0615,0.0,0.0,0.0,0.0,0.0,0.0,0.0,0.0,0.0,0.0,0.0,-2.2818,-2.3101,-2.3101,-2.3101,-2.3178,-2.3353,-2.3222,-2.3178,-2.3353,-2.3222,-2.3101,-2.3101,-2.3101,-2.3101,-2.3101,-2.2925,-2.2847,-2.2838,-2.2662,-2.253,-2.2574,-2.253,-2.2564,-2.2564,-2.252,-2.252,-2.253,-2.2872,-2.3101,-2.3101,-2.2916,-2.2615,-2.2083,-2.1916,-2.1565,-2.1104,-2.0734,-2.0457,-2.0178,-1.9965,-1.9886,-1.9833,-1.9764,-1.9636,-1.9636,-1.9548,-1.942,-1.939,-1.935,-1.9341,-1.9332,-1.9029,-1.8753,-2.4102,0.0,-2.3643,-2.3457,0.0,-2.3188,-2.3101,-2.3101,-2.3101,-2.3101,-2.3101,-2.3101,-2.3101,-2.3101,-2.3101,-2.3101,-2.3101,-2.3101,-2.3101,-2.3101,-2.3101,-2.2695,-2.1936,-2.1936,-2.1466,-2.0625,-2.0615,-2.0615,-2.0615,-2.0615,-2.0615,-2.0615,-2.0615,-2.0615,-2.0615,-2.0615,-2.0615,-2.0615,-2.0615,-2.0615,-2.0615,-2.0615,-2.0615,-2.0615,-2.0615,0.0,0.0,0.0,0.0,0.0,0.0,0.0,0.0,-2.0615,0.0,-2.0615,-2.0986,-2.12,-2.1229,-2.199,-2.251,-2.2519,-2.277,-2.3013,-2.3101,-2.3013,-2.2969,-2.2925,-2.2838,-2.275,-2.275,-2.2882,-2.2925,-2.2784,-2.2882,-2.2925,-2.2794,-2.2662,-2.2574,-2.2618,-2.2485,-2.2397,-2.2397,-2.2397,-2.2397,-2.2397,-2.2397,-2.2397,-2.2441,-2.2696,-2.2969,-2.2906,-2.2461,-2.2063,-2.1706,-2.125,-2.0898,-2.0439,-2.0164,-1.9928,-1.9792,-1.9587,-1.9469,-1.9578,-1.9508,-1.9469,-1.9469,-1.939,-1.9292,-1.9292,-1.9292,-1.9292,-1.9274,-1.899,-1.8705,-2.4531,-2.4492,-2.4082,-2.3848,-2.376,-2.3408,-2.3169,-2.3101,0.0,0.0,0.0,-2.3101,-2.3101,-2.3101,-2.3101,-2.3101,-2.3101,-2.3101,-2.3101,-2.3101,-2.3101,-2.2725,-2.2002,-2.1914,-2.1505,-2.0742,-2.0654,-2.0615,-2.0615,-2.0615,-2.0615,-2.0615,-2.0615,-2.0615,-2.0615,-2.0615,-2.0615,-2.0615,-2.0615,-2.0615,-2.0615,-2.0615,-2.0615,-2.0615,-2.0615,-2.0615,-2.0615,-2.0615,-2.0615,-2.0615,-2.0615,-2.0615,-2.0615,-2.0615,-2.0644,-2.0732,-2.1025,-2.1229,-2.1317,-2.2029,-2.2464,-2.2489,-2.2645,-2.2794,-2.296,-2.2838,-2.2715,-2.2706,-2.253,-2.2397,-2.2397,-2.2574,-2.2662,-2.2441,-2.2627,-2.2618,-2.2441,-2.2353,-2.2353,-2.2353,-2.2309,-2.2264,-2.2255,-2.2255,-2.2255,-2.2264,-2.2264,-2.2299,-2.2353,-2.2574,-2.2668,-2.2509,-2.2,-2.1478,-2.1131,-2.0652,-2.0161,-2.004,-1.9761,-1.9566,-1.9508,-1.9429,-1.9292,-1.9332,-1.9292,-1.9292,-1.9292,-1.9292,-1.9292,-1.9292,-1.9292,-1.9292,-1.9265,-1.9054,-1.8766,-2.498,-2.4998,-2.4512,-2.4121,-2.3789,-2.3721,-2.3486,-2.3101,-2.3101,-2.3101,-2.3101,-2.3101,-2.3101,-2.3101,-2.3101,-2.3101,-2.3101,-2.3101,-2.3101,-2.3101,-2.3101,-2.2847,-2.2422,-2.206,-2.1631,-2.1143,-2.0752,-2.0615,-2.0615,-2.0615,-2.0615,-2.0615,-2.0615,-2.0615,-2.0615,-2.0615,-2.0615,-2.0615,-2.0615,-2.0615,-2.0615,-2.0615,-2.0615,-2.0615,-2.0615,-2.0615,-2.0615,-2.0615,-2.0615,-2.0615,-2.0615,-2.0615,-2.0615,-2.0615,-2.0742,-2.1064,-2.1161,-2.1396,-2.1777,-2.2087,-2.2279,-2.2397,-2.2448,-2.2485,-2.2485,-2.2476,-2.2485,-2.2441,-2.2388,-2.2397,-2.2397,-2.2441,-2.2441,-2.2397,-2.2432,-2.2432,-2.2397,-2.223,-2.2141,-2.2141,-2.1909,-2.182,-2.182,-2.182,-2.182,-2.182,-2.1865,-2.1909,-2.2132,-2.2309,-2.2193,-2.1823,-2.1596,-2.1122,-2.0444,-2.0076,-1.981,-1.9479,-1.9396,-1.9381,-1.9381,-1.9341,-1.9292,-1.9292,-1.9292,-1.9292,-1.9292,-1.9292,-1.9292,-1.9292,-1.9292,-1.9292,-1.9292,-1.918,-1.8906,-2.5276,-2.5371,-2.4951,-2.4658,-2.4453,-2.3984,-2.3535,-2.311,-2.3101,-2.3101,-2.3101,-2.3101,-2.3101,-2.3101,-2.3101,-2.3101,-2.3101,-2.3101,-2.3101,-2.3101,-2.3101,-2.2877,-2.2519,-2.2324,-2.2002,-2.1582,-2.1143,-2.0928,-2.0908,-2.0732,-2.0615,-2.0615,-2.0615,-2.0615,-2.0615,-2.0615,-2.0615,-2.0615,-2.0615,-2.0615,-2.0615,-2.0615,-2.0615,-2.0615,-2.0615,-2.0615,-2.0615,-2.0615,-2.0615,-2.0615,-2.0615,-2.0713,-2.0918,-2.0928,-2.1133,-2.1562,-2.1683,-2.1855,-2.2049,-2.2188,-2.2286,-2.2255,-2.223,-2.2185,-2.2033,-2.2132,-2.223,-2.222,-2.2097,-2.1998,-2.2043,-2.2141,-2.2176,-2.2033,-2.2141,-2.2176,-2.2052,-2.1954,-2.1874,-2.1874,-2.1785,-2.1687,-2.1687,-2.1687,-2.1687,-2.1687,-2.1687,-2.1731,-2.1856,-2.175,-2.1677,-2.1463,-2.1014,-2.049,-1.998,-1.9683,-1.9522,-1.932,-1.9292,-1.9292,-1.9292,-1.9292,-1.9292,-1.9292,-1.9292,-1.9292,-1.9292,-1.9292,-1.9292,-1.9292,-1.9292,-1.9292,-1.9253,-1.8975,-1.8447,-2.544,-2.5645,-2.5361,-2.5107,-2.4853,-2.4111,-2.3555,-2.311,-2.3101,-2.3101,-2.3101,-2.3101,-2.3101,-2.3101,-2.3101,-2.3101,-2.3101,-2.3101,-2.3101,-2.3101,-2.3101,-2.2916,-2.2623,-2.2568,-2.2344,-2.2002,-2.1582,-2.1337,-2.1338,-2.0928,-2.0693,-2.0625,-2.0615,-2.0615,-2.0615,-2.0615,-2.0615,-2.0615,-2.0615,-2.0615,-2.0615,-2.0615,-2.0615,-2.0615,-2.0615,-2.0615,-2.0615,-2.0615,-2.0615,-2.0615,-2.0654,-2.0869,-2.1131,-2.1207,-2.145,-2.1826,-2.2048,-2.2141,-2.2203,-2.2261,-2.223,-2.2008,-2.2008,-2.1919,-2.1731,-2.1874,-2.1998,-2.1963,-2.183,-2.1731,-2.1731,-2.1874,-2.1919,-2.1741,-2.1874,-2.1919,-2.1731,-2.1687,-2.1687,-2.1687,-2.1687,-2.1687,-2.1687,-2.1687,-2.1687,-2.1687,-2.1687,-2.1668,-2.154,-2.1236,-2.1065,-2.092,-2.0393,-1.9925,-1.9765,-1.954,-1.9329,-1.9292,-1.9292,-1.9292,-1.9292,-1.9292,-1.9292,-1.9292,-1.9292,-1.9292,-1.9292,-1.9292,-1.9292,-1.9292,-1.9292,-1.9292,-1.9253,-1.8647,-1.7957,-2.544,-2.5684,-2.5635,-2.5157,-2.4482,-2.3994,-2.3555,-2.314,-2.3101,-2.3101,-2.3101,-2.3101,-2.3101,-2.3101,-2.3101,-2.3101,-2.3101,-2.3101,-2.3101,-2.3101,-2.3101,-2.3071,-2.2984,-2.2695,-2.25,-2.2402,-2.2031,-2.1826,-2.1807,-2.1387,-2.0977,-2.0654,-2.0615,-2.0615,-2.0615,-2.0615,-2.0615,-2.0615,-2.0615,-2.0615,-2.0615,-2.0615,-2.0615,-2.0615,-2.0615,-2.0615,-2.0615,-2.0615,-2.0615,-2.0635,-2.0947,-2.1071,-2.0997,-2.1274,-2.1594,-2.1783,-2.1859,-2.19,-2.2082,-2.2122,-2.2008,-2.1785,-2.1731,-2.1731,-2.1687,-2.1741,-2.1731,-2.1741,-2.1687,-2.1687,-2.1687,-2.1731,-2.1731,-2.1696,-2.1731,-2.1731,-2.1741,-2.1687,-2.1687,-2.1687,-2.1687,-2.1687,-2.1687,-2.1687,-2.1687,-2.1687,-2.1687,-2.1568,-2.1273,-2.0897,-2.0503,-2.02,-1.9943,-1.9769,-1.9494,-1.9347,-1.9292,-1.9292,-1.9292,-1.9292,-1.9292,-1.9292,-1.9292,-1.9292,-1.9292,-1.9292,-1.9292,-1.9292,-1.9292,-1.9292,-1.9292,-1.9301,-1.9222,-1.8616,-1.7836,-2.5235,-2.5489,-2.5635,-2.5371,-2.4775,-2.4346,-2.3916,-2.3516,-2.3198,-2.3101,-2.3101,-2.3101,-2.3101,-2.3101,-2.3101,-2.3101,-2.3101,-2.3101,-2.3101,-2.3101,-2.3101,-2.3101,-2.3071,-2.2925,-2.2881,-2.2808,-2.2461,-2.2256,-2.2178,-2.1826,-2.1387,-2.0996,-2.0957,-2.083,-2.0635,-2.0615,-2.0615,-2.0615,-2.0615,-2.0615,-2.0615,-2.0615,-2.0615,-2.0615,-2.0615,-2.0615,-2.0615,-2.0615,-2.0527,-2.044,-2.0807,-2.1024,-2.1059,-2.1469,-2.1802,-2.2104,-2.2064,-2.1954,-2.1865,-2.1874,-2.183,-2.1687,-2.1687,-2.1687,-2.1687,-2.1687,-2.1687,-2.1687,-2.1687,-2.1687,-2.1687,-2.1687,-2.1687,-2.1687,-2.1687,-2.1687,-2.1687,-2.1687,-2.1687,-2.1687,-2.1687,-2.1687,-2.1687,-2.1687,-2.1687,-2.1687,-2.1687,-2.1504,-2.1154,-2.0769,-2.0342,-1.9966,-1.9692,-1.9512,-1.932,-1.9292,-1.9292,-1.9292,-1.9292,-1.9292,-1.9292,-1.9292,-1.9292,-1.9292,-1.9292,-1.9292,-1.9292,-1.9292,-1.9292,-1.9253,-1.9253,-1.9183,-1.8656,-1.8247,-1.7513,-2.4932,-2.5186,-2.5382,-2.5276,-2.4944,-2.4507,-2.4088,-2.376,-2.3286,-2.3101,-2.3101,-2.3101,-2.3101,-2.3101,-2.3101,-2.3101,-2.3101,-2.3101,-2.3101,-2.3101,-2.3101,-2.3101,-2.3101,-2.3101,-2.3101,-2.3052,-2.2789,-2.2627,-2.25,-2.2227,-2.1836,-2.1475,-2.1406,-2.1191,-2.0791,-2.0781,-2.0674,-2.0615,-2.0615,-2.0615,-2.0615,-2.0615,-2.0615,-2.0615,-2.0615,-2.0615,-2.0615,-2.0615,-2.0596,-2.0565,-2.0851,-2.1151,-2.1343,-2.1683,-2.1998,-2.2173,-2.2087,-2.1919,-2.1687,-2.1687,-2.1687,-2.1687,-2.1687,-2.1687,-2.1687,-2.1687,-2.1687,-2.1687,-2.1687,-2.1687,-2.1687,-2.1687,-2.1687,-2.1687,-2.1687,-2.1687,-2.1687,-2.1687,-2.1687,-2.1687,-2.1687,-2.1687,-2.1687,-2.1687,-2.1687,-2.1687,-2.1577,-2.141,-2.1007,-2.0552,-2.0159,-1.9783,-1.9485,-1.9329,-1.9292,-1.9292,-1.9292,-1.9292,-1.9292,-1.9292,-1.9292,-1.9292,-1.9292,-1.9292,-1.9292,-1.9292,-1.9292,-1.9292,-1.9054,-1.8975,-1.8895,-1.8607,-1.7796,-1.7513,-1.678,-2.4686,-2.4883,-2.4941,-2.486,-2.4688,-2.4246,-2.3951,-2.3754,-2.3305,-2.311,-2.3101,-2.3101,-2.3101,-2.3101,-2.3101,-2.3101,-2.3101,-2.3101,-2.3101,-2.3101,-2.3101,-2.3101,-2.3101,-2.3101,-2.3101,-2.3091,-2.3042,-2.2847,-2.2516,-2.2457,-2.2275,-2.1885,-2.1804,-2.1641,-2.122,-2.1161,-2.0986,-2.0664,-2.0615,-2.0615,-2.0576,-2.0576,-2.0566,-2.0566,-2.0615,-2.0615,-2.0615,-2.0605,-2.0752,-2.1142,-2.1296,-2.152,-2.1726,-2.1967,-2.1971,-2.1776,-2.1731,-2.1731,-2.1687,-2.1687,-2.1687,-2.1687,-2.1687,-2.1687,-2.1687,-2.1687,-2.1687,-2.1687,-2.1687,-2.1687,-2.1687,-2.1687,-2.1687,-2.1687,-2.1687,-2.1687,-2.1687,-2.1687,-2.1687,-2.1687,-2.1687,-2.1687,-2.1687,-2.1687,-2.1668,-2.1586,-2.1383,-2.1007,-2.0613,-2.0168,-1.9852,-1.9512,-1.9329,-1.9292,-1.9292,-1.9292,-1.9292,-1.9292,-1.9292,-1.9292,-1.9292,-1.9292,-1.9292,-1.9292,-1.9292,-1.9292,-1.9292,-1.9094,-1.8727,-1.8447,-1.8118,-1.7674,-1.6895,-1.6083,-1.5519,-2.4637,-2.4892,-2.4892,-2.4846,-2.4773,-2.4555,-2.4273,-2.3886,-2.365,-2.3398,-2.312,-2.3101,-2.3101,-2.3101,-2.3101,-2.3101,-2.3101,-2.3101,-2.3101,-2.3101,-2.3101,-2.3101,-2.3101,-2.3101,-2.3101,-2.3101,-2.2969,-2.2726,-2.2461,-2.2442,-2.2222,-2.1887,-2.182,-2.162,-2.1317,-2.1322,-2.1192,-2.0816,-2.0788,-2.0652,-2.043,-2.0255,-2.0137,-2.0177,-2.044,-2.0615,-2.0615,-2.0489,-2.0545,-2.0809,-2.0964,-2.1161,-2.1367,-2.1644,-2.1785,-2.1696,-2.1687,-2.1687,-2.1687,-2.1687,-2.1687,-2.1687,-2.1687,-2.1687,-2.1687,-2.1687,-2.1687,-2.1687,-2.1687,-2.1687,-2.1687,-2.1687,-2.1687,-2.1687,-2.1687,-2.1687,-2.1687,-2.1687,-2.1687,-2.1687,-2.1687,-2.1687,-2.1687,-2.1687,-2.1586,-2.133,-2.119,-2.0824,-2.0268,-1.9957,-1.9719,-1.9421,-1.9292,-1.9292,-1.9292,-1.9292,-1.9292,-1.9292,-1.9292,-1.9292,-1.9292,-1.9292,-1.9292,-1.9292,-1.9292,-1.9213,-1.9134,-1.8559,-1.8198,-1.7472,-1.7188,-1.6821,-1.6041,-1.5436,-1.5026,-2.4538,-2.4637,-2.4686,-2.4735,-2.4737,-2.4554,-2.4259,-2.3913,-2.3738,-2.3411,-2.3062,-2.3057,-2.3101,-2.3101,-2.3101,-2.3101,-2.3101,-2.3101,-2.3101,-2.3101,-2.3101,-2.3101,-2.3101,-2.3101,-2.3101,-2.3057,-2.2891,-2.2715,-2.253,-2.2441,-2.2246,-2.2,-2.1981,-2.1783,-2.1485,-2.1535,-2.1377,-2.1084,-2.0988,-2.0876,-2.0577,-2.0296,-2.0101,-2.0161,-2.0292,-2.0372,-2.0372,-2.0255,-2.0299,-2.0557,-2.0748,-2.0954,-2.1264,-2.1531,-2.1687,-2.1687,-2.1687,-2.1687,-2.1687,-2.1687,-2.1687,-2.1687,-2.1687,-2.1687,-2.1687,-2.1687,-2.1687,-2.1687,-2.1687,-2.1687,-2.1687,-2.1687,-2.1687,-2.1687,-2.1687,-2.1687,-2.1687,-2.1687,-2.1687,-2.1687,-2.1687,-2.1687,-2.1668,-2.1559,-2.141,-2.1135,-2.0924,-2.0424,-2.0021,-1.9747,-1.9619,-1.9366,-1.9292,-1.9292,-1.9292,-1.9292,-1.9292,-1.9292,-1.9292,-1.9292,-1.9292,-1.9292,-1.9292,-1.9292,-1.9213,-1.9134,-1.8727,-1.8078,-1.7342,-1.6535,-1.6206,-1.6008,-1.5436,-1.5026,-1.4657,-2.4202,-2.426,-2.4211,-2.4341,-2.4433,-2.4156,-2.3861,-2.37,-2.3539,-2.3227,-2.2832,-2.2969,-2.3013,-2.3047,-2.3003,-2.3047,-2.3047,-2.3013,-2.3047,-2.3101,-2.3101,-2.3101,-2.3101,-2.3101,-2.3047,-2.3003,-2.2882,-2.275,-2.2671,-2.2495,-2.2334,-2.2369,-2.2252,-2.2055,-2.1802,-2.1783,-2.1594,-2.1263,-2.122,-2.115,-2.1163,-2.0734,-2.0507,-2.046,-2.0148,-1.994,-1.9912,-1.9902,-2.0101,-2.0517,-2.0707,-2.1092,-2.1548,-2.1678,-2.1687,-2.1687,-2.1687,-2.1687,-2.1687,-2.1687,-2.1687,-2.1687,-2.1687,-2.1687,-2.1687,-2.1687,-2.1687,-2.1687,-2.1687,-2.1687,-2.1687,-2.1687,-2.1687,-2.1687,-2.1687,-2.1687,-2.1687,-2.1687,-2.1687,-2.1687,-2.1687,-2.1687,-2.1604,-2.142,-2.1163,-2.0961,-2.0503,-2.0026,-1.9842,-1.9577,-1.9356,-1.9301,-1.9292,-1.9292,-1.9292,-1.9292,-1.9292,-1.9292,-1.9292,-1.9292,-1.9292,-1.9292,-1.9292,-1.9253,-1.8926,-1.8767,-1.7634,-1.6976,-1.637,-1.5718,-1.5477,-1.5235,-1.4824,-1.4496,-1.4377,-2.4211,-2.4211,-2.4211,-2.4251,-2.4282,-2.43,-2.4018,-2.3486,-2.353,-2.3186,-2.2615,-2.2564,-2.2618,-2.2618,-2.2608,-2.2608,-2.2618,-2.2618,-2.2794,-2.3047,-2.3101,-2.3091,-2.3101,-2.3091,-2.2916,-2.2696,-2.275,-2.253,-2.2132,-2.2141,-2.2097,-2.1954,-2.1909,-2.1854,-2.1759,-2.1901,-2.1792,-2.1384,-2.1371,-2.124,-2.0927,-2.0652,-2.0416,-2.0148,-1.9959,-1.9774,-1.9527,-1.9627,-1.9921,-2.0295,-2.0509,-2.0931,-2.1557,-2.1687,-2.1687,-2.1687,-2.1687,-2.1687,-2.1687,-2.1687,-2.1687,-2.1687,-2.1687,-2.1687,-2.1687,-2.1687,-2.1687,-2.1687,-2.1687,-2.1687,-2.1687,-2.1687,-2.1687,-2.1687,-2.1687,-2.1687,-2.1687,-2.1687,-2.1687,-2.1687,-2.1687,-2.1687,-2.1614,-2.1355,-2.0979,-2.0695,-2.0237,-1.9852,-1.9549,-1.9412,-1.9311,-1.9292,-1.9292,-1.9292,-1.9292,-1.9292,-1.9292,-1.9292,-1.9292,-1.9292,-1.9292,-1.9292,-1.9292,-1.9094,-1.8767,-1.8037,-1.6862,-1.5966,-1.5436,-1.4985,-1.4657,-1.4412,-1.4166,-1.4088,-1.4088,-2.4211,-2.4211,-2.4211,-2.4211,-2.4202,-2.435,-2.3936,-2.3251,-2.3411,-2.3081,-2.2422,-2.2353,-2.2397,-2.2397,-2.2397,-2.2397,-2.2397,-2.2397,-2.2564,-2.2828,-2.2969,-2.2925,-2.2838,-2.2828,-2.2696,-2.2476,-2.2485,-2.2318,-2.1865,-2.1874,-2.1874,-2.1741,-2.1687,-2.1687,-2.1696,-2.183,-2.1771,-2.1558,-2.1565,-2.1435,-2.1161,-2.0857,-2.0506,-2.0159,-1.9966,-1.9723,-1.9338,-1.9429,-1.9589,-1.9876,-2.0122,-2.0677,-2.1357,-2.1449,-2.1522,-2.1668,-2.1687,-2.1687,-2.1687,-2.1687,-2.1687,-2.1687,-2.1687,-2.1687,-2.1687,-2.1687,-2.1687,-2.1687,-2.1687,-2.1687,-2.1687,-2.1687,-2.1687,-2.1687,-2.1687,-2.1687,-2.1687,-2.1687,-2.1687,-2.1687,-2.1687,-2.1623,-2.1431,-2.1101,-2.0698,-2.0305,-1.9952,-1.9659,-1.9366,-1.9311,-1.9292,-1.9292,-1.9292,-1.9292,-1.9292,-1.9292,-1.9292,-1.9292,-1.9292,-1.9292,-1.9292,-1.9292,-1.9292,-1.8856,-1.8527,-1.7634,-1.6535,-1.5436,-1.4699,-1.4292,-1.4088,-1.4088,-1.4088,-1.4088,-1.4088,-2.4211,-2.4211,-2.4211,-2.4211,-2.4211,-2.4211,-2.3742,-2.3024,-2.3195,-2.2824,-2.2218,-2.222,-2.2309,-2.2309,-2.2309,-2.2299,-2.2353,-2.2309,-2.2309,-2.2397,-2.2574,-2.2618,-2.2485,-2.2485,-2.2441,-2.2353,-2.2264,-2.2132,-2.1963,-2.1874,-2.1687,-2.1687,-2.1687,-2.1687,-2.1696,-2.1687,-2.1722,-2.1686,-2.1695,-2.1667,-2.163,-2.1337,-2.0906,-2.0503,-2.0131,-1.9787,-1.9375,-1.9341,-1.9359,-1.9402,-1.9797,-2.0287,-2.0924,-2.1071,-2.1255,-2.1559,-2.1641,-2.1659,-2.1668,-2.1687,-2.1687,-2.1687,-2.1687,-2.1687,-2.1687,-2.1687,-2.1687,-2.1687,-2.1687,-2.1687,-2.1687,-2.1687,-2.1687,-2.1687,-2.1687,-2.1687,-2.1687,-2.1687,-2.1687,-2.1678,-2.1659,-2.1566,-2.1181,-2.0787,-2.0314,-1.9985,-1.9641,-1.9393,-1.9329,-1.9292,-1.9292,-1.9292,-1.9292,-1.9292,-1.9292,-1.9292,-1.9292,-1.9292,-1.9292,-1.9292,-1.9292,-1.9292,-1.9054,-1.8647,-1.8086,-1.7188,-1.6214,-1.511,-1.4412,-1.4166,-1.4088,-1.4088,-1.4088,-1.4088,-1.4088,-2.4211,-2.4211,-2.4211,-2.4211,-2.4211,-2.4211,-2.3703,-2.2959,-2.2951,-2.2594,-2.1959,-2.1874,-2.1909,-2.1865,-2.1909,-2.1865,-2.1909,-2.1909,-2.1874,-2.1919,-2.2176,-2.2309,-2.2397,-2.2397,-2.2309,-2.2176,-2.222,-2.2132,-2.1874,-2.1919,-2.1874,-2.1687,-2.1687,-2.1687,-2.1687,-2.1687,-2.1687,-2.1687,-2.1687,-2.1687,-2.1678,-2.1586,-2.1174,-2.0576,-2.0411,-1.9989,-1.9384,-1.9292,-1.9467,-1.9701,-1.9811,-2.0145,-2.0604,-2.0677,-2.086,-2.119,-2.1238,-2.1366,-2.1604,-2.1668,-2.1678,-2.1687,-2.1678,-2.1687,-2.1687,-2.1687,-2.1687,-2.1687,-2.1687,-2.1687,-2.1687,-2.1687,-2.1687,-2.1687,-2.1659,-2.1668,-2.1687,-2.1687,-2.1687,-2.1668,-2.1412,-2.1218,-2.0961,-2.053,-2.0072,-1.987,-1.9577,-1.9292,-1.9292,-1.9292,-1.9292,-1.9292,-1.9292,-1.9292,-1.9292,-1.9292,-1.9292,-1.9292,-1.9292,-1.9292,-1.9292,-1.9292,-1.8895,-1.8367,-1.7634,-1.678,-1.5801,-1.479,-1.4461,-1.4088,-1.4088,-1.4088,-1.4088,-1.4088,-1.4088,-2.4211,-2.4211,-2.4211,-2.4211,-2.4211,-2.4211,-2.3703,-2.3014,-2.2895,-2.2455,-2.1824,-2.1687,-2.1687,-2.1687,-2.1687,-2.1687,-2.1687,-2.1687,-2.1687,-2.1741,-2.1874,-2.2052,-2.2185,-2.2185,-2.2043,-2.1963,-2.2043,-2.1954,-2.1785,-2.1874,-2.183,-2.1731,-2.1687,-2.1687,-2.1687,-2.1687,-2.1687,-2.1687,-2.1687,-2.1687,-2.1687,-2.1687,-2.1238,-2.0695,-2.0503,-2.0136,-1.943,-1.9292,-1.9421,-1.9604,-1.9677,-1.9852,-2.0218,-2.0273,-2.0457,-2.0814,-2.086,-2.0979,-2.119,-2.1312,-2.1421,-2.1467,-2.1559,-2.1678,-2.1687,-2.1687,-2.1687,-2.1687,-2.1687,-2.1687,-2.1687,-2.1687,-2.1687,-2.1668,-2.1531,-2.1513,-2.1659,-2.1513,-2.1484,-2.1374,-2.1126,-2.0735,-2.0616,-2.014,-1.9857,-1.9677,-1.9467,-1.9329,-1.9292,-1.9292,-1.9292,-1.9292,-1.9292,-1.9292,-1.9292,-1.9292,-1.9292,-1.9292,-1.9292,-1.9292,-1.9292,-1.9253,-1.8856,-1.8247,-1.731,-1.6453,-1.5643,-1.4908,-1.4334,-1.4088,-1.4088,-1.4088,-1.4088,-1.4088,-1.4088,-2.4211,-2.4211,-2.4211,-2.4211,-2.4192,-2.4146,-2.3629,-2.2986,-2.2821,-2.2391,-2.1806,-2.1687,-2.1687,-2.1687,-2.1687,-2.1687,-2.1687,-2.1687,-2.1687,-2.1687,-2.1731,-2.183,-2.2008,-2.1865,-2.1776,-2.1741,-2.1687,-2.1731,-2.1696,-2.1741,-2.1696,-2.1687,-2.1687,-2.1687,-2.1687,-2.1687,-2.1687,-2.1687,-2.1687,-2.1687,-2.1687,-2.1659,-2.1275,-2.064,-2.0283,-1.998,-1.9467,-1.9292,-1.932,-1.9301,-1.9292,-1.9522,-1.9793,-1.9829,-2.0031,-2.0365,-2.0424,-2.0493,-2.0585,-2.0915,-2.1044,-2.1089,-2.1374,-2.1604,-2.1559,-2.1603,-2.1586,-2.1687,-2.1687,-2.165,-2.1568,-2.1595,-2.1513,-2.1456,-2.1209,-2.1264,-2.1385,-2.1282,-2.1053,-2.1016,-2.0662,-2.0278,-2.0021,-1.982,-1.9692,-1.9512,-1.9347,-1.932,-1.9292,-1.9292,-1.9292,-1.9292,-1.9292,-1.9292,-1.9292,-1.9292,-1.9292,-1.9292,-1.9292,-1.9292,-1.9292,-1.9173,-1.8856,-1.8287,-1.7472,-1.6698,-1.5925,-1.5186,-1.4412,-1.4088,-1.4088,-1.4088,-1.4088,-1.4088,-1.4088,-2.4211,-2.4211,-2.4211,-2.4211,-2.4146,-2.3813,-2.3352,-2.2885,-2.2556,-2.2163,-2.1769,-2.1687,-2.1687,-2.1687,-2.1687,-2.1687,-2.1687,-2.1687,-2.1687,-2.1687,-2.1687,-2.1731,-2.1776,-2.1731,-2.1687,-2.1687,-2.1687,-2.1687,-2.1687,-2.1687,-2.1687,-2.1687,-2.1687,-2.1687,-2.1687,-2.1687,-2.1687,-2.1687,-2.1687,-2.1687,-2.1687,-2.1668,-2.1302,-2.0567,-1.9934,-1.9531,-1.9366,-1.9292,-1.9292,-1.9292,-1.9301,-1.9366,-1.9457,-1.9467,-1.9659,-1.9893,-2.0021,-2.014,-2.0406,-2.0558,-2.064,-2.0659,-2.0796,-2.0915,-2.1227,-2.1245,-2.1357,-2.1577,-2.1687,-2.1432,-2.1248,-2.1202,-2.1092,-2.0882,-2.0708,-2.0644,-2.0708,-2.0704,-2.0649,-2.0567,-2.031,-1.9976,-1.9875,-1.9564,-1.9448,-1.9311,-1.9292,-1.9292,-1.9292,-1.9292,-1.9292,-1.9292,-1.9292,-1.9292,-1.9292,-1.9292,-1.9292,-1.9292,-1.9292,-1.9292,-1.9292,-1.9213,-1.8975,-1.8407,-1.7674,-1.6903,-1.6041,-1.5144,-1.4286,-1.4208,-1.4088,-1.4088,-1.4088,-1.4088,-1.4088,-2.4211,-2.4183,-2.3999,-2.3868,-2.3794,-2.3437,-2.2986,-2.2629,-2.2391,-2.2062,-2.176,-2.1687,-2.1687,-2.1687,-2.1687,-2.1687,-2.1687,-2.1687,-2.1687,-2.1687,-2.1687,-2.1687,-2.1687,-2.1687,-2.1687,-2.1687,-2.1687,-2.1687,-2.1687,-2.1687,-2.1687,-2.1687,-2.1687,-2.1687,-2.1687,-2.1687,-2.1687,-2.1687,-2.1687,-2.1687,-2.1687,-2.1678,-2.1302,-2.0539,-1.976,-1.9292,-1.9292,-1.9292,-1.9292,-1.9292,-1.9292,-1.9292,-1.9292,-1.9292,-1.943,-1.9577,-1.9641,-1.9714,-1.9875,-2.0085,-2.0204,-2.0204,-2.0402,-2.0519,-2.065,-2.0662,-2.07,-2.0839,-2.0822,-2.0732,-2.056,-2.0524,-2.0431,-2.0389,-2.0171,-2.0121,-2.0204,-2.0204,-2.0195,-2.0163,-1.9888,-1.9696,-1.9522,-1.9393,-1.9347,-1.9292,-1.9292,-1.9292,-1.9292,-1.9292,-1.9292,-1.9292,-1.9292,-1.9292,-1.9292,-1.9292,-1.9292,-1.9292,-1.9292,-1.9292,-1.9292,-1.9213,-1.9134,-1.8487,-1.7796,-1.6903,-1.6041,-1.5144,-1.4412,-1.4166,-1.4082,-1.4088,-1.4088,-1.4088,-1.4088,-2.4073,-2.3999,-2.3544,-2.3407,-2.3343,-2.2986,-2.262,-2.2327,-2.2263,-2.197,-2.1742,-2.1687,-2.1687,-2.1687,-2.1687,-2.1687,-2.1687,-2.1687,-2.1687,-2.1687,-2.1687,-2.1687,-2.1687,-2.1687,-2.1687,-2.1687,-2.1687,-2.1687,-2.1687,-2.1687,-2.1687,-2.1687,-2.1687,-2.1687,-2.1687,-2.1687,-2.1687,-2.1687,-2.1687,-2.1687,-2.1687,-2.1668,-2.1222,-2.0192,-1.9701,-1.9161,-1.9094,-1.9173,-1.9292,-1.9292,-1.9292,-1.9292,-1.9292,-1.9292,-1.9292,-1.932,-1.9356,-1.9393,-1.9476,-1.965,-1.9793,-1.9811,-2.009,-2.0254,-2.0192,-2.0153,-2.0141,-2.0101,-2.0103,-2.0016,-1.9858,-1.9873,-1.9889,-1.9847,-1.9619,-1.9575,-1.967,-1.9711,-1.967,-1.9747,-1.9613,-1.9457,-1.9393,-1.9311,-1.9301,-1.9292,-1.9292,-1.9292,-1.9253,-1.9253,-1.9253,-1.9292,-1.9292,-1.9292,-1.9292,-1.9292,-1.9292,-1.9262,-1.9253,-1.9222,-1.9222,-1.9143,-1.8984,-1.8607,-1.7917,-1.7058,-1.6206,-1.5304,-1.4692,-1.4286,-1.4039,-1.3997,-1.3997,-1.4088,-1.4046,-2.3407,-2.3105,-2.3032,-2.3004,-2.294,-2.2556,-2.2336,-2.2227,-2.1943,-2.176,-2.1705,-2.1687,-2.1687,-2.1687,-2.1687,-2.1687,-2.1687,-2.1687,-2.1687,-2.1687,-2.1687,-2.1687,-2.1687,-2.1687,-2.1687,-2.1687,-2.1687,-2.1687,-2.1687,-2.1687,-2.1687,-2.1687,-2.1687,-2.1687,-2.1687,-2.1687,-2.1687,-2.1642,-2.1597,-2.1553,-2.1553,-2.1274,-2.0712,-1.9554,-1.9186,-1.89,-1.8567,-1.8935,-1.9292,-1.9292,-1.9292,-1.9292,-1.9292,-1.9292,-1.9292,-1.9292,-1.9292,-1.9292,-1.9329,-1.9356,-1.9412,-1.9421,-1.9549,-1.9701,-1.9811,-1.9779,-1.9722,-1.9835,-1.9813,-1.9727,-1.9434,-1.9315,-1.9197,-1.9043,-1.8985,-1.8914,-1.8945,-1.9004,-1.9124,-1.9325,-1.9286,-1.9253,-1.9183,-1.9143,-1.9152,-1.9152,-1.9152,-1.9143,-1.9143,-1.9183,-1.9222,-1.9262,-1.9292,-1.9292,-1.9292,-1.9253,-1.9262,-1.9183,-1.9143,-1.9112,-1.9073,-1.9042,-1.8834,-1.8585,-1.8126,-1.744,-1.6535,-1.5636,-1.4894,-1.437,-1.4117,-1.3864,-1.3913,-1.3955,-1.387,-2.3078,-2.2895,-2.2675,-2.2574,-2.2501,-2.2144,-2.198,-2.1952,-2.1769,-2.1687,-2.1687,-2.1687,-2.1687,-2.1687,-2.1687,-2.1687,-2.1687,-2.1687,-2.1687,-2.1687,-2.1687,-2.1687,-2.1687,-2.1687,-2.1687,-2.1687,-2.1687,-2.1687,-2.1687,-2.1687,-2.1687,-2.1687,-2.1687,-2.1687,-2.1687,-2.1687,-2.1642,-2.1597,-2.1221,-2.0952,-2.0836,-2.0261,-1.9122,-1.8717,-1.8575,-1.8362,-1.8318,-1.8856,-1.9253,-1.9292,-1.9292,-1.9292,-1.9253,-1.9253,-1.9253,-1.9213,-1.9253,-1.9292,-1.9292,-1.9292,-1.9311,-1.9311,-1.9231,-1.9154,-1.9196,-1.9106,-1.9082,-1.9024,-1.8994,-1.8841,-1.8609,-1.865,-1.8586,-1.8593,-1.8531,-1.8571,-1.866,-1.87,-1.882,-1.8962,-1.8922,-1.8922,-1.8962,-1.8962,-1.8971,-1.9011,-1.9002,-1.9002,-1.9033,-1.9042,-1.9082,-1.9073,-1.9112,-1.9152,-1.9152,-1.9143,-1.9112,-1.9073,-1.9033,-1.8962,-1.8922,-1.8851,-1.8851,-1.8763,-1.8233,-1.77,-1.7123,-1.6296,-1.5394,-1.4489,-1.411,-1.3822,-1.3828,-1.3828,-1.3695,-2.273,-2.2638,-2.23,-2.2163,-2.2108,-2.1833,-2.1705,-2.1687,-2.1696,-2.1687,-2.1687,-2.1687,-2.1687,-2.1687,-2.1687,-2.1687,-2.1687,-2.1687,-2.1687,-2.1687,-2.1687,-2.1687,-2.1687,-2.1687,-2.1687,-2.1687,-2.1687,-2.1687,-2.1687,-2.1687,-2.1687,-2.1687,-2.1687,-2.1553,-2.141,-2.1266,-2.1365,-2.0907,-2.0439,-2.0022,-1.9619,-1.8563,-1.7593,-1.7553,-1.778,-1.7948,-1.7747,-1.8727,-1.9213,-1.9292,-1.9253,-1.9222,-1.9054,-1.9015,-1.8886,-1.8807,-1.9054,-1.9262,-1.9222,-1.9222,-1.9183,-1.9112,-1.8993,-1.89,-1.8749,-1.8633,-1.8397,-1.8072,-1.8066,-1.8108,-1.814,-1.8049,-1.8129,-1.825,-1.8322,-1.8362,-1.8442,-1.8491,-1.8451,-1.8531,-1.858,-1.866,-1.8732,-1.882,-1.886,-1.886,-1.8851,-1.886,-1.8851,-1.8812,-1.882,-1.8812,-1.8851,-1.8931,-1.8931,-1.8962,-1.8922,-1.8843,-1.8803,-1.8772,-1.8692,-1.8652,-1.8612,-1.8563,-1.8451,-1.7951,-1.7416,-1.6706,-1.5594,-1.4685,-1.4062,-1.373,-1.3652,-1.3568,-1.3483,-2.2153,-2.1833,-2.1797,-2.176,-2.1769,-2.1714,-2.1687,-2.1687,-2.1687,-2.1687,-2.1687,-2.1687,-2.1687,-2.1687,-2.1687,-2.1687,-2.1687,-2.1687,-2.1687,-2.1687,-2.1687,-2.1687,-2.1687,-2.1687,-2.1687,-2.1687,-2.1687,-2.1687,-2.1553,-2.1553,-2.1642,-2.1597,-2.1365,-2.1275,-2.0484,-2.0439,-1.9985,-1.9347,-1.9063,-1.8926,-1.876,-1.7956,-1.7211,-1.6952,-1.7271,-1.7504,-1.7139,-1.8118,-1.8975,-1.9094,-1.9173,-1.8856,-1.8278,-1.798,-1.7455,-1.7504,-1.8118,-1.9222,-1.8984,-1.8993,-1.8962,-1.8891,-1.8772,-1.8692,-1.8571,-1.8451,-1.8241,-1.8031,-1.7991,-1.7991,-1.7991,-1.7991,-1.804,-1.804,-1.8121,-1.8112,-1.8161,-1.8282,-1.8241,-1.8241,-1.8282,-1.8451,-1.8571,-1.866,-1.8709,-1.8709,-1.8709,-1.866,-1.862,-1.858,-1.862,-1.8652,-1.8652,-1.8732,-1.8732,-1.8723,-1.8683,-1.8612,-1.8571,-1.8531,-1.8491,-1.8371,-1.8201,-1.8152,-1.808,-1.7821,-1.7115,-1.6288,-1.5504,-1.472,-1.3928,-1.3603,-1.344,-1.3349,-1.3264,-2.1851,-2.1687,-2.1687,-2.1687,-2.1687,-2.1687,-2.1687,-2.1687,-2.1687,-2.1687,-2.1687,-2.1687,-2.1687,-2.1687,-2.1687,-2.1687,-2.1687,-2.1687,-2.1687,-2.1687,-2.1687,-2.1687,-2.1687,-2.1687,-2.1687,-2.1642,-2.1642,-2.1275,-2.1132,-2.0898,-2.0898,-2.0853,-2.0348,-1.9849,-1.9476,-1.943,-1.9201,-1.8788,-1.8288,-1.7645,-1.7104,-1.6545,-1.5999,-1.5667,-1.6258,-1.6317,-1.6453,-1.7058,-1.7796,-1.7836,-1.7747,-1.7496,-1.7131,-1.6879,-1.6503,-1.638,-1.6871,-1.7577,-1.8006,-1.8505,-1.8683,-1.8692,-1.8571,-1.8451,-1.8331,-1.8241,-1.8161,-1.8031,-1.7991,-1.7991,-1.7991,-1.7991,-1.7991,-1.7991,-1.7991,-1.7991,-1.7991,-1.7991,-1.8031,-1.8031,-1.7951,-1.7951,-1.7951,-1.804,-1.8121,-1.8331,-1.829,-1.8201,-1.8201,-1.825,-1.8371,-1.8523,-1.8523,-1.8523,-1.8523,-1.8514,-1.8402,-1.8322,-1.8282,-1.8241,-1.8201,-1.808,-1.7821,-1.7489,-1.7245,-1.6944,-1.6519,-1.5985,-1.5289,-1.4503,-1.376,-1.347,-1.3179,-1.3009,-1.296,-2.1687,-2.1687,-2.1687,-2.1687,-2.1687,-2.1687,-2.1687,-2.1687,-2.1687,-2.1687,-2.1687,-2.1687,-2.1687,-2.1687,-2.1687,-2.1687,-2.1687,-2.1687,-2.1687,-2.1687,-2.1687,-2.1687,-2.1687,-2.1687,-2.1553,-2.1374,-2.1221,-2.0763,-2.0076,-1.9704,-1.9567,-1.9886,-1.9384,-1.8788,-1.8465,-1.838,-1.8241,-1.777,-1.7225,-1.6579,-1.5905,-1.5361,-1.5091,-1.5018,-1.5205,-1.5394,-1.5519,-1.6247,-1.669,-1.669,-1.6601,-1.6388,-1.6018,-1.573,-1.5391,-1.5233,-1.544,-1.5854,-1.6609,-1.7318,-1.8201,-1.8451,-1.8402,-1.8241,-1.808,-1.7991,-1.7991,-1.7991,-1.7991,-1.7991,-1.7991,-1.7991,-1.7991,-1.7991,-1.7991,-1.7991,-1.791,-1.7659,-1.7448,-1.7326,-1.7204,-1.7009,-1.7049,-1.7212,-1.7456,-1.787,-1.787,-1.77,-1.7781,-1.7829,-1.8072,-1.8233,-1.8233,-1.8233,-1.8233,-1.8193,-1.8112,-1.7951,-1.787,-1.774,-1.7619,-1.7456,-1.7204,-1.687,-1.6412,-1.591,-1.5455,-1.5289,-1.5115,-1.4413,-1.3747,-1.3252,-1.2918,-1.279,-1.2705,-2.1687,-2.1687,-2.1687,-2.1687,-2.1687,-2.1687,-2.1687,-2.1687,-2.1687,-2.1687,-2.1687,-2.1687,-2.1687,-2.1687,-2.1687,-2.1687,-2.1687,-2.1687,-2.1687,-2.1687,-2.1687,-2.1687,-2.1687,-2.1597,-2.1365,-2.0718,-2.0628,-2.0031,-1.8972,-1.8334,-1.8427,-1.8696,-1.8373,-1.8056,-1.7692,-1.7372,-1.7037,-1.6608,-1.6163,-1.5933,-1.5491,-1.5117,-1.483,-1.473,-1.5078,-1.5394,-1.5436,-1.5876,-1.6108,-1.6067,-1.5812,-1.544,-1.4907,-1.4615,-1.4238,-1.3957,-1.4077,-1.4413,-1.5039,-1.6247,-1.7326,-1.7829,-1.804,-1.8,-1.7789,-1.7951,-1.7991,-1.787,-1.774,-1.7829,-1.787,-1.7951,-1.7578,-1.7456,-1.7335,-1.7335,-1.7204,-1.6911,-1.6747,-1.6617,-1.646,-1.6304,-1.6221,-1.6345,-1.6632,-1.7041,-1.7,-1.6829,-1.7245,-1.7367,-1.77,-1.7902,-1.791,-1.791,-1.787,-1.77,-1.7335,-1.7253,-1.7253,-1.7041,-1.687,-1.6665,-1.6501,-1.5918,-1.5421,-1.488,-1.442,-1.4287,-1.4161,-1.4112,-1.374,-1.3124,-1.2833,-1.2747,-1.2705,-2.1687,-2.1687,-2.1687,-2.1687,-2.1687,-2.1687,-2.1687,-2.1687,-2.1687,-2.1687,-2.1687,-2.1687,-2.1687,-2.1687,-2.1687,-2.1687,-2.1687,-2.1687,-2.1668,-2.1687,-2.1687,-2.1687,-2.1687,-2.1596,-2.1508,-2.1006,-2.0557,-1.9795,-1.8842,-1.7717,-1.703,-1.7131,-1.7113,-1.6803,-1.644,-1.6466,-1.6129,-1.5934,-1.5651,-1.5478,-1.5351,-1.493,-1.4636,-1.4559,-1.4448,-1.4601,-1.4622,-1.465,-1.472,-1.4671,-1.4496,-1.4168,-1.3873,-1.3578,-1.3288,-1.2918,-1.3167,-1.3457,-1.4048,-1.5255,-1.6337,-1.7115,-1.7619,-1.7749,-1.7326,-1.7619,-1.757,-1.7448,-1.7196,-1.7204,-1.7155,-1.6706,-1.6263,-1.6386,-1.6468,-1.6591,-1.6427,-1.6165,-1.5918,-1.5794,-1.576,-1.5643,-1.556,-1.5519,-1.5842,-1.6173,-1.6049,-1.6041,-1.6412,-1.6788,-1.7082,-1.7204,-1.7204,-1.696,-1.6837,-1.6673,-1.6468,-1.655,-1.6591,-1.6296,-1.6041,-1.5925,-1.5643,-1.5019,-1.4468,-1.409,-1.3711,-1.333,-1.3239,-1.3366,-1.3239,-1.2869,-1.2705,-1.2705,-1.2705,-2.1687,-2.1687,-2.1687,-2.1687,-2.1687,-2.1687,-2.1687,-2.1687,-2.1687,-2.1687,-2.1687,-2.1687,-2.1604,-2.154,-2.1495,-2.1376,-2.1293,-2.1266,-2.1293,-2.1275,-2.1257,-2.133,-2.133,-2.124,-2.0992,-2.0881,-2.0332,-1.939,-1.8353,-1.7431,-1.6798,-1.6239,-1.5718,-1.5698,-1.5859,-1.5684,-1.5671,-1.5524,-1.5404,-1.519,-1.5077,-1.477,-1.4449,-1.4389,-1.4253,-1.4186,-1.4124,-1.4117,-1.3857,-1.373,-1.347,-1.3173,-1.296,-1.2833,-1.2705,-1.2705,-1.2784,-1.3039,-1.3669,-1.4761,-1.5636,-1.6296,-1.6706,-1.6706,-1.6665,-1.6878,-1.6673,-1.6419,-1.6337,-1.6337,-1.6288,-1.5884,-1.5684,-1.585,-1.5809,-1.585,-1.5636,-1.5387,-1.5137,-1.497,-1.4761,-1.4426,-1.4384,-1.4258,-1.4678,-1.5171,-1.5636,-1.5462,-1.533,-1.5794,-1.6214,-1.6296,-1.6288,-1.5966,-1.5602,-1.5726,-1.585,-1.5933,-1.5884,-1.547,-1.522,-1.5103,-1.4685,-1.3964,-1.3506,-1.3252,-1.3124,-1.2954,-1.2869,-1.2784,-1.2705,-1.2705,-1.2705,-1.2705,-1.2705,-2.1687,-2.1687,-2.1687,-2.1687,-2.165,-2.1687,-2.1687,-2.1678,-2.165,-2.1614,-2.1559,-2.1577,-2.1394,-2.1147,-2.1126,-2.0946,-2.0735,-2.0695,-2.0686,-2.0741,-2.0787,-2.0659,-2.0659,-2.0619,-2.0497,-1.9436,-1.9221,-1.8846,-1.7858,-1.6981,-1.641,-1.6052,-1.5565,-1.5297,-1.5745,-1.5538,-1.5271,-1.5082,-1.5055,-1.4836,-1.4676,-1.4492,-1.4349,-1.4208,-1.4122,-1.4088,-1.4046,-1.3779,-1.3603,-1.3434,-1.3179,-1.296,-1.279,-1.2747,-1.2705,-1.2705,-1.2705,-1.2741,-1.2869,-1.4426,-1.5095,-1.5428,-1.5801,-1.5718,-1.5519,-1.556,-1.5643,-1.5511,-1.5428,-1.5428,-1.5387,-1.5269,-1.5137,-1.5012,-1.4929,-1.4845,-1.4594,-1.4426,-1.4174,-1.4048,-1.3379,-1.2826,-1.2826,-1.2954,-1.3415,-1.4048,-1.4887,-1.4963,-1.4664,-1.4831,-1.5345,-1.5421,-1.5379,-1.5005,-1.4761,-1.5061,-1.5228,-1.5311,-1.5054,-1.451,-1.4258,-1.4132,-1.3633,-1.2954,-1.2869,-1.2954,-1.2826,-1.2699,-1.2705,-1.2705,-1.2705,-1.2705,-1.2705,-1.2705,-1.2705,-2.1687,-2.1687,-2.1687,-2.1531,-2.1383,-2.1577,-2.1687,-2.1641,-2.1447,-2.1181,-2.0918,-2.0891,-2.0836,-2.0741,-2.0704,-2.0622,-2.0521,-2.0521,-2.0521,-2.0493,-2.0457,-2.053,-2.0493,-2.0387,-2.0256,-1.9911,-1.9486,-1.8922,-1.8646,-1.7024,-1.6367,-1.6094,-1.5366,-1.5147,-1.519,-1.5137,-1.5082,-1.4981,-1.4796,-1.4609,-1.4459,-1.4342,-1.4195,-1.4088,-1.4088,-1.4088,-1.4088,-1.3737,-1.3519,-1.3392,-1.313,-1.2833,-1.2705,-1.2705,-1.2705,-1.2705,-1.2705,-1.2705,-1.2741,-1.3415,-1.3837,-1.4384,-1.4887,-1.4936,-1.4636,-1.5144,-1.5012,-1.4629,-1.4503,-1.4461,-1.4468,-1.3837,-1.3591,-1.3506,-1.3421,-1.3457,-1.3288,-1.3245,-1.3167,-1.3167,-1.2747,-1.2705,-1.2705,-1.2705,-1.2997,-1.3082,-1.3837,-1.4216,-1.4041,-1.4126,-1.4461,-1.4461,-1.442,-1.4041,-1.3915,-1.4132,-1.409,-1.4006,-1.3753,-1.333,-1.3167,-1.3294,-1.3124,-1.2784,-1.2747,-1.2705,-1.2705,-1.2705,-1.2705,-1.2705,-1.2705,-1.2705,-1.2705,-1.2705,-1.2705,-2.1266,-2.1275,-2.1275,-2.1119,-2.0989,-2.1346,-2.1412,-2.1248,-2.1016,-2.0741,-2.0567,-2.053,-2.0397,-2.0323,-2.031,-2.0173,-2.0076,-2.009,-2.009,-2.0099,-2.009,-2.0035,-2.0044,-2.0118,-1.9948,-1.981,-1.927,-1.8641,-1.8456,-1.6811,-1.5857,-1.533,-1.5014,-1.471,-1.4683,-1.4716,-1.4736,-1.4609,-1.4422,-1.4362,-1.4295,-1.4208,-1.4102,-1.4088,-1.4088,-1.4088,-1.3997,-1.3779,-1.344,-1.3307,-1.3094,-1.279,-1.2747,-1.2705,-1.2705,-1.2705,-1.2705,-1.2705,-1.2741,-1.2747,-1.3209,-1.3506,-1.4174,-1.4132,-1.3753,-1.4006,-1.3964,-1.3711,-1.362,-1.3578,-1.3499,-1.279,-1.279,-1.2747,-1.2747,-1.2784,-1.2784,-1.2784,-1.2784,-1.2747,-1.2705,-1.2705,-1.2705,-1.2705,-1.2784,-1.2741,-1.2784,-1.3154,-1.3487,-1.3584,-1.3662,-1.3662,-1.3649,-1.3389,-1.319,-1.3082,-1.2997,-1.2741,-1.2668,-1.2626,-1.2741,-1.2954,-1.2784,-1.2705,-1.2705,-1.2705,-1.2705,-1.2705,-1.2705,-1.2705,-1.2705,-1.2705,-1.2705,-1.2705,-1.2705,-2.053,-2.0521,-2.0521,-2.0497,-2.0567,-2.0833,-2.0805,-2.0521,-2.0512,-2.0433,-2.0438,-2.0374,-2.0191,-1.9902,-1.9907,-1.9732,-1.9494,-1.943,-1.9439,-1.9421,-1.9522,-1.9457,-1.9439,-1.9439,-1.941,-1.9021,-1.8561,-1.8131,-1.7814,-1.6376,-1.5169,-1.4458,-1.437,-1.4249,-1.4302,-1.4376,-1.4396,-1.4275,-1.4215,-1.4175,-1.4148,-1.4115,-1.4088,-1.4088,-1.4088,-1.4046,-1.3955,-1.3743,-1.3525,-1.3355,-1.3137,-1.2918,-1.279,-1.2705,-1.2705,-1.2705,-1.2705,-1.2705,-1.2705,-1.2705,-1.2699,-1.2954,-1.2912,-1.279,-1.2869,-1.3124,-1.3124,-1.3082,-1.2997,-1.2869,-1.2705,-1.2705,-1.2705,-1.2705,-1.2705,-1.2699,-1.2699,-1.2699,-1.2699,-1.2705,-1.2705,-1.2705,-1.2705,-1.2705,-1.2668,-1.2668,-1.2644,-1.262,-1.2934,-1.2991,-1.3027,-1.3021,-1.2923,-1.282,-1.2638,-1.256,-1.2481,-1.2409,-1.2481,-1.2475,-1.2578,-1.2626,-1.2596,-1.259,-1.2674,-1.2705,-1.2705,-1.2705,-1.2705,-1.2705,-1.2705,-1.2705,-1.2705,-1.2705,-1.2705,-2.0521,-2.0521,-2.0521,-2.0314,-2.0049,-1.9907,-1.9907,-2.0081,-2.009,-1.9952,-1.965,-1.965,-1.965,-1.9485,-1.9476,-1.9393,-1.9338,-1.9292,-1.9311,-1.9292,-1.9292,-1.9292,-1.9253,-1.9173,-1.8935,-1.8447,-1.8037,-1.7504,-1.6952,-1.5801,-1.4908,-1.4264,-1.413,-1.4088,-1.4115,-1.4175,-1.4142,-1.4115,-1.4088,-1.4088,-1.4088,-1.4088,-1.4088,-1.4088,-1.4088,-1.4004,-1.3828,-1.361,-1.3398,-1.3228,-1.2966,-1.2747,-1.2705,-1.2705,-1.2705,-1.2705,-1.2705,-1.2705,-1.2705,-1.2705,-1.2705,-1.2705,-1.2705,-1.2705,-1.2705,-1.2705,-1.2705,-1.2705,-1.2705,-1.2705,-1.2705,-1.2705,-1.2705,-1.2705,-1.2705,-1.2705,-1.2705,-1.2705,-1.2705,-1.2705,-1.2705,-1.2668,-1.2668,-1.265,-1.2626,-1.2626,-1.2578,-1.2475,-1.2445,-1.2524,-1.256,-1.2542,-1.2506,-1.2433,-1.2349,-1.2264,-1.2186,-1.2125,-1.2216,-1.2258,-1.224,-1.2288,-1.2385,-1.2463,-1.253,-1.262,-1.2705,-1.2705,-1.2705,-1.2705,-1.2705,-1.2705,-1.2705,-1.2705,-1.2705,-2.0035,-2.0044,-2.0044,-1.9897,-1.9659,-1.9402,-1.9467,-1.9659,-1.9687,-1.9522,-1.9311,-1.932,-1.9292,-1.9311,-1.932,-1.9301,-1.9301,-1.9292,-1.9292,-1.9292,-1.9253,-1.8975,-1.8935,-1.8727,-1.8238,-1.7706,-1.7098,-1.6527,-1.6041,-1.5352,-1.4503,-1.4173,-1.4088,-1.4088,-1.4095,-1.4108,-1.4102,-1.4088,-1.4088,-1.4088,-1.4088,-1.4088,-1.4088,-1.4088,-1.4046,-1.387,-1.3695,-1.344,-1.3228,-1.3052,-1.2833,-1.2705,-1.2705,-1.2705,-1.2705,-1.2705,-1.2705,-1.2705,-1.2705,-1.2705,-1.2705,-1.2705,-1.2705,-1.2705,-1.2705,-1.2705,-1.2705,-1.2705,-1.2705,-1.2705,-1.2705,-1.2705,-1.2705,-1.2705,-1.2705,-1.2705,-1.2705,-1.2705,-1.2705,-1.2705,-1.2674,-1.2626,-1.2602,-1.2578,-1.2487,-1.2337,-1.2246,-1.2198,-1.2174,-1.2216,-1.2246,-1.2205,-1.2169,-1.2115,-1.2071,-1.2005,-1.1968,-1.191,-1.1976,-1.2035,-1.1956,-1.1999,-1.2131,-1.2258,-1.2331,-1.2451,-1.2518,-1.2662,-1.2705,-1.2687,-1.2681,-1.2705,-1.2705,-1.2705,-1.2705,-1.9311,-1.9329,-1.9292,-1.9356,-1.9301,-1.9301,-1.9311,-1.9292,-1.9338,-1.9301,-1.9292,-1.9292,-1.9292,-1.9292,-1.9292,-1.9292,-1.9292,-1.9292,-1.9134,-1.9213,-1.9015,-1.8647,-1.8078,-1.7836,-1.7383,-1.6576,-1.6008,-1.5718,-1.5193,-1.4664,-1.4292,-1.4088,-1.4088,-1.4088,-1.4088,-1.4088,-1.4088,-1.4088,-1.4088,-1.4088,-1.4088,-1.4088,-1.4088,-1.4046,-1.3913,-1.3688,-1.3561,-1.3349,-1.3094,-1.2966,-1.2875,-1.2705,-1.2705,-1.2705,-1.2705,-1.2705,-1.2705,-1.2705,-1.2705,-1.2705,-1.2705,-1.2705,-1.2705,-1.2705,-1.2705,-1.2705,-1.2705,-1.2705,-1.2705,-1.2705,-1.2705,-1.2705,-1.2705,-1.2705,-1.2705,-1.2705,-1.2705,-1.2687,-1.265,-1.2632,-1.256,-1.2499,-1.2324,-1.2241,-1.2223,-1.2047,-1.1874,-1.1856,-1.1832,-1.1896,-1.195,-1.1916,-1.1886,-1.185,-1.1802,-1.1754,-1.1742,-1.1754,-1.176,-1.1757,-1.1642,-1.1739,-1.189,-1.2041,-1.2145,-1.2228,-1.23,-1.2451,-1.2572,-1.2614,-1.262,-1.2687,-1.2699,-1.2693,-1.2705,-1.9292,-1.9292,-1.9292,-1.9292,-1.9292,-1.9292,-1.9292,-1.9292,-1.9292,-1.9292,-1.9292,-1.9292,-1.9292,-1.9292,-1.9292,-1.9292,-1.9292,-1.9253,-1.8895,-1.8647,-1.8527,-1.8118,-1.7229,-1.7147,-1.6535,-1.5925,-1.5394,-1.5026,-1.458,-1.425,-1.4088,-1.4088,-1.4088,-1.4088,-1.4088,-1.4088,-1.4088,-1.4088,-1.4088,-1.4088,-1.4088,-1.4088,-1.4088,-1.3997,-1.3864,-1.3652,-1.3483,-1.3264,-1.3009,-1.2839,-1.2747,-1.2705,-1.2705,-1.2705,-1.2705,-1.2705,-1.2705,-1.2705,-1.2705,-1.2705,-1.2705,-1.2705,-1.2705,-1.2705,-1.2705,-1.2705,-1.2705,-1.2705,-1.2705,-1.2705,-1.2705,-1.2705,-1.2705,-1.2705,-1.2674,-1.2674,-1.2668,-1.2614,-1.2572,-1.2506,-1.2427,-1.2276,-1.2054,-1.1964,-1.194,-1.1826,-1.1663,-1.1573,-1.1501,-1.1507,-1.1673,-1.1651,-1.1621,-1.1591,-1.1549,-1.1546,-1.1483,-1.1443,-1.1413,-1.1371,-1.1347,-1.1486,-1.1642,-1.1802,-1.1946,-1.1964,-1.2036,-1.224,-1.2355,-1.2415,-1.2542,-1.2596,-1.2656,-1.2668,-1.2687,-1.9292,-1.9292,-1.9292,-1.9292,-1.9292,-1.9292,-1.9292,-1.9292,-1.9292,-1.9292,-1.9292,-1.9292,-1.9292,-1.9292,-1.9292,-1.9292,-1.9292,-1.9292,-1.9094,-1.8727,-1.8278,-1.7747,-1.722,-1.6576,-1.5767,-1.5193,-1.4866,-1.4496,-1.4166,-1.4088,-1.4088,-1.4088,-1.4088,-1.4088,-1.4088,-1.4088,-1.4088,-1.4088,-1.4088,-1.4088,-1.4088,-1.4088,-1.4088,-1.4039,-1.387,-1.3652,-1.3483,-1.327,-1.3052,-1.2881,-1.279,-1.2705,-1.2705,-1.2705,-1.2705,-1.2705,-1.2705,-1.2705,-1.2705,-1.2705,-1.2705,-1.2705,-1.2705,-1.2705,-1.2705,-1.2705,-1.2705,-1.2705,-1.2705,-1.2705,-1.2705,-1.2705,-1.2705,-1.2705,-1.2542,-1.2445,-1.2349,-1.2246,-1.2216,-1.2186,-1.2113,-1.1976,-1.182,-1.1712,-1.1651,-1.1504,-1.1327,-1.1333,-1.126,-1.1242,-1.1351,-1.1411,-1.1393,-1.1345,-1.1329,-1.128,-1.1232,-1.1148,-1.1117,-1.1166,-1.1238,-1.1292,-1.1363,-1.1558,-1.1639,-1.17,-1.1796,-1.1992,-1.2089,-1.2103,-1.2318,-1.2499,-1.2566,-1.2632,-1.2681,-1.9292,-1.9292,-1.9292,-1.9292,-1.9292,-1.9292,-1.9292,-1.9292,-1.9292,-1.9292,-1.9292,-1.9292,-1.9292,-1.9292,-1.9292,-1.9292,-1.9292,-1.9292,-1.9213,-1.8966,-1.8926,-1.7715,-1.6821,-1.637,-1.5394,-1.4706,-1.4292,-1.425,-1.413,-1.4088,-1.4088,-1.4088,-1.4088,-1.4088,-1.4088,-1.4088,-1.4088,-1.4088,-1.4088,-1.4088,-1.4088,-1.4088,-1.4088,-1.3997,-1.387,-1.373,-1.3568,-1.3355,-1.3137,-1.3009,-1.2839,-1.2747,-1.2705,-1.2705,-1.2705,-1.2705,-1.2705,-1.2705,-1.2705,-1.2705,-1.2705,-1.2705,-1.2705,-1.2705,-1.2705,-1.2705,-1.2705,-1.2705,-1.2705,-1.2705,-1.2705,-1.2705,-1.2705,-1.2644,-1.2439,-1.2222,-1.2077,-1.1944,-1.1926,-1.1908,-1.1778,-1.17,-1.1579,-1.1471,-1.1345,-1.1146,-1.1074,-1.1074,-1.1092,-1.1128,-1.12,-1.1224,-1.1212,-1.1146,-1.1135,-1.1092,-1.1074,-1.1117,-1.1117,-1.1117,-1.1129,-1.1196,-1.122,-1.1208,-1.1317,-1.1405,-1.1525,-1.1663,-1.1748,-1.1832,-1.2145,-1.2415,-1.2457,-1.2542,-1.2662,-1.9292,-1.9292,-1.9292,-1.9283,-1.9274,-1.9274,-1.9292,-1.9292,-1.9265,-1.9292,-1.9228,-1.9274,-1.9292,-1.9283,-1.9292,-1.9292,-1.9292,-1.9292,-1.8767,-1.8318,-1.8447,-1.7229,-1.6173,-1.5718,-1.5026,-1.4454,-1.4088,-1.4088,-1.4088,-1.4088,-1.4088,-1.4088,-1.4088,-1.4088,-1.4088,-1.4088,-1.4088,-1.4088,-1.4088,-1.4088,-1.4088,-1.4088,-1.4088,-1.3997,-1.3864,-1.3737,-1.3603,-1.3307,-1.3137,-1.3009,-1.2839,-1.2747,-1.2705,-1.2705,-1.2705,-1.2705,-1.2705,-1.2705,-1.2705,-1.2705,-1.2705,-1.2705,-1.2705,-1.2705,-1.2705,-1.2705,-1.2705,-1.2705,-1.2705,-1.2705,-1.2705,-1.2705,-1.2693,-1.2566,-1.2397,-1.2131,-1.1886,-1.1796,-1.1742,-1.1657,-1.1549,-1.1423,-1.1266,-1.1175,-1.1131,-1.0999,-1.1037,-1.0999,-1.0925,-1.0999,-1.1037,-1.0999,-1.0999,-1.1074,-1.1123,-1.108,-1.1037,-1.1074,-1.108,-1.0999,-1.0999,-1.1117,-1.1123,-1.1017,-1.1055,-1.1176,-1.1291,-1.139,-1.1489,-1.1621,-1.2036,-1.2289,-1.2319,-1.2451,-1.2584]},{"header":{"parameterUnit":"m.s-1","parameterCategory":1,"la1":31.0,"la2":29.5877,"lo1":-88.7671,"lo2":-86.6584,"dy":0.0162,"dx":0.0185,"nx":115,"ny":88,"refTime":"2023-08-29T18:00:00:Z","depth":0,"parameterNumber":3,"parameterNumberName":"V-component_of_WINDS"},"data":[0.0,0.0,0.0,0.0,0.0,0.0,0.0,0.0,0.0,0.0,0.0,0.0,0.0,0.0,0.0,0.0,0.0,0.0,0.0,0.0,0.0,0.0,0.0,0.0,0.0,0.0,0.0,0.0,0.0,0.0,0.0,0.0,0.0,0.0,0.0,0.0,0.0,0.0,0.0,0.0,0.0,0.0,0.0,0.0,0.0,0.0,0.0,0.0,0.0,0.0,0.0,0.0,0.0,0.0,0.0,0.0,0.0,0.0,0.0,0.0,0.0,0.0,0.0,0.0,0.0,0.0,0.0,0.0,0.0,0.0,0.0,0.0,0.0,0.0,0.0,0.0,0.0,0.0,0.0,0.0,0.0,0.0,0.0,0.0,0.0,0.0,0.0,0.0,0.0,0.0,0.0,0.0,0.0,0.0,0.0,0.0,0.0,0.0,0.0,0.0,0.0,0.0,0.0,0.0,0.0,0.0,0.0,0.0,0.0,0.0,0.0,0.0,0.0,0.0,0.0,0.0,0.0,0.0,0.0,0.0,0.0,0.0,0.0,0.0,0.0,0.0,0.0,0.0,0.0,0.0,0.0,0.0,0.0,0.0,0.0,0.0,0.0,0.0,0.0,0.0,0.0,0.0,0.0,0.0,0.0,0.0,0.0,0.0,0.0,0.0,0.0,0.0,0.0,0.0,0.0,0.0,0.0,0.0,0.0,0.0,0.0,0.0,0.0,0.0,0.0,0.0,0.0,0.0,0.0,0.0,0.0,0.0,0.0,0.0,0.0,0.0,0.0,0.0,0.0,0.0,0.0,0.0,0.0,0.0,0.0,0.0,0.0,0.0,0.0,0.0,0.0,0.0,0.0,0.0,0.0,0.0,0.0,0.0,0.0,0.0,0.0,0.0,0.0,0.0,0.0,0.0,0.0,0.0,0.0,0.0,0.0,0.0,0.0,0.0,0.0,0.0,0.0,0.0,0.0,0.0,0.0,0.0,0.0,0.0,0.0,0.0,0.0,0.0,0.0,0.0,0.0,0.0,0.0,0.0,0.0,0.0,0.0,0.0,0.0,0.0,0.0,0.0,0.0,0.0,0.0,0.0,0.0,0.0,0.0,0.0,0.0,0.0,0.0,0.0,0.0,0.0,0.0,0.0,0.0,0.0,0.0,0.0,0.0,0.0,0.0,0.0,0.0,0.0,0.0,0.0,0.0,0.0,0.0,0.0,0.0,0.0,0.0,0.0,0.0,0.0,0.0,0.0,0.0,0.0,0.0,0.0,0.0,0.0,0.0,0.0,0.0,0.0,0.0,0.0,0.0,0.0,0.0,0.0,0.0,0.0,0.0,0.0,0.0,0.0,0.0,0.0,0.0,0.0,0.0,0.0,0.0,0.0,0.0,0.0,0.0,0.0,0.0,0.0,0.0,0.0,0.0,0.0,0.0,0.0,0.0,0.0,0.0,0.0,0.0,0.0,0.0,0.0,0.0,0.0,0.0,0.0,0.0,0.0,0.0,0.0,0.0,0.0,0.0,0.0,0.0,0.0,0.0,0.0,0.0,0.0,0.0,0.0,0.0,0.0,0.0,0.0,0.0,0.0,0.0,0.0,0.0,0.0,0.0,0.0,0.0,0.0,0.0,0.0,0.0,0.0,0.0,0.0,0.0,0.0,0.0,0.0,0.0,0.0,0.0,0.0,0.0,0.0,0.0,0.0,0.0,0.0,0.0,0.0,0.0,0.0,0.0,0.0,0.0,0.0,0.0,0.0,0.0,0.0,0.0,0.0,0.0,0.0,0.0,0.0,0.0,0.0,0.0,0.0,0.0,0.0,0.0,0.0,0.0,0.0,0.0,0.0,0.0,0.0,0.0,0.0,0.0,0.0,0.0,0.0,0.0,0.0,0.0,0.0,0.0,0.0,0.0,0.0,0.0,0.0,0.0,0.0,0.0,0.0,0.0,0.0,0.0,0.0,0.0,0.0,0.0,0.0,0.0,0.0,0.0,0.0,0.0,0.0,0.0,0.0,0.0,0.0,0.0,0.0,0.0,0.0,0.0,0.0,0.0,0.0,0.0,0.0,0.0,0.0,0.0,0.0,0.0,0.0,0.0,0.0,0.0,0.0,0.0,0.0,0.0,0.0,0.0,0.0,0.0,0.0,0.0,0.0,0.0,0.0,0.0,0.0,0.0,0.0,0.0,0.0,0.0,0.0,0.0,0.0,0.0,0.0,0.0,0.0,0.0,0.0,0.0,0.0,0.0,0.0,0.0,0.0,0.0,0.0,0.0,0.0,0.0,0.0,0.0,0.0,0.0,0.0,0.0,0.0,0.0,0.0,0.0,0.0,0.0,0.0,0.0,0.0,0.0,0.0,0.0,0.0,0.0,0.0,0.0,0.0,0.0,0.0,0.0,0.0,0.0,0.0,0.0,0.0,0.0,0.0,0.0,0.0,0.0,0.0,0.0,0.0,0.0,0.0,0.0,0.0,0.0,0.0,0.0,0.0,0.0,0.0,0.0,0.0,0.0,0.0,0.0,0.0,0.0,0.0,0.0,0.0,0.0,0.0,0.0,0.0,0.0,0.0,0.0,0.0,0.0,0.0,0.0,0.0,0.0,0.0,0.0,0.0,0.0,0.0,0.0,0.0,0.0,0.0,0.0,0.0,0.0,0.0,0.0,0.0,0.0,0.0,0.0,0.0,0.0,0.0,0.0,0.0,0.0,0.0,0.0,0.0,0.0,0.0,0.0,0.0,0.0,0.0,0.0,0.0,0.0,0.0,0.0,0.0,0.0,0.0,0.0,0.0,0.0,0.0,0.0,0.0,0.0,0.0,0.0,0.0,0.0,0.0,0.0,0.0,0.0,0.0,0.0,0.0,0.0,0.0,0.0,0.0,0.0,0.0,0.0,0.0,0.0,0.0,0.0,0.0,0.0,0.0,0.0,0.0,0.0,0.0,0.0,0.0,0.0,0.0,0.0,0.0,0.0,0.0,0.0,0.0,0.0,0.0,0.0,0.0,0.0,0.0,0.0,0.0,0.0,0.0,0.0,0.0,0.0,0.0,0.0,0.0,0.0,0.0,0.0,0.0,0.0,0.0,0.0,0.0,0.0,0.0,0.0,0.0,0.0,0.0,0.0,0.0,0.0,0.0,0.0,0.0,0.0,0.0,0.0,0.0,0.0,0.0,0.0,0.0,0.0,0.0,0.0,0.0,0.0,0.0,0.0,0.0,0.0,0.0,0.0,0.0,0.0,0.0,0.0,0.0,0.0,0.0,0.0,0.0,0.0,0.0,0.0,0.0,0.0,0.0,0.0,0.0,0.0,0.0,0.0,0.0,0.0,0.0,0.0,0.0,0.0,0.0,0.0,0.0,0.0,0.0,0.0,0.0,0.0,0.0,0.0,0.0,0.0,0.0,0.0,0.0,0.0,0.0,0.0,0.0,0.0,0.0,0.0,0.0,0.0,0.0,0.0,0.0,0.0,0.0,0.0,0.0,0.0,0.0,0.0,0.0,0.0,0.0,0.0,0.0,0.0,0.0,0.0,0.0,0.0,0.0,0.0,0.0,0.0,0.0,0.0,0.0,0.0,0.0,0.0,0.0,0.0,0.0,0.0,0.0,0.0,0.0,0.0,0.0,0.0,0.0,0.0,0.0,0.0,0.0,0.0,0.0,0.0,0.0,0.0,0.0,0.0,0.0,0.0,0.0,0.0,0.0,0.0,0.0,0.0,0.0,0.0,0.0,0.0,0.0,0.0,0.0,0.0,0.0,0.0,0.0,0.0,0.0,0.0,0.0,0.0,0.0,0.0,0.0,0.0,0.0,0.0,0.0,0.0,0.0,0.0,0.0,0.0,0.0,0.0,0.0,0.0,0.0,0.0,0.0,0.0,0.0,0.0,0.0,0.0,0.0,0.0,0.0,0.0,0.0,0.0,0.0,0.0,0.0,0.0,0.0,0.0,0.0,0.0,0.0,0.0,0.0,0.0,0.0,0.0,0.0,0.0,0.0,0.0,0.0,0.0,0.0,0.0,0.0,0.0,0.0,0.0,0.0,0.0,0.0,0.0,0.0,0.0,0.0,0.0,0.0,0.0,0.0,0.0,0.0,0.0,0.0,0.0,0.0,0.0,0.0,0.0,0.0,0.0,0.0,0.0,0.0,0.0,0.0,0.0,0.0,0.0,0.0,0.0,0.0,0.0,0.0,0.0,0.0,0.0,0.0,0.0,0.0,0.0,0.0,0.0,0.0,0.0,0.0,0.0,0.0,0.0,0.0,0.0,0.0,0.0,0.0,3.0489,0.0,0.0,0.0,0.0,0.0,0.0,0.0,0.0,0.0,0.0,0.0,0.0,0.0,0.0,0.0,0.0,0.0,0.0,0.0,0.0,0.0,0.0,0.0,0.0,0.0,0.0,0.0,0.0,0.0,0.0,0.0,0.0,0.0,0.0,0.0,0.0,0.0,0.0,0.0,0.0,0.0,0.0,0.0,0.0,0.0,0.0,0.0,0.0,0.0,0.0,0.0,0.0,0.0,0.0,0.0,0.0,0.0,0.0,0.0,0.0,0.0,0.0,0.0,0.0,0.0,0.0,0.0,0.0,0.0,0.0,0.0,0.0,0.0,0.0,0.0,0.0,0.0,0.0,0.0,0.0,0.0,0.0,0.0,0.0,0.0,0.0,0.0,0.0,0.0,0.0,0.0,0.0,0.0,0.0,0.0,0.0,0.0,0.0,0.0,0.0,0.0,0.0,0.0,0.0,0.0,0.0,0.0,0.0,0.0,0.0,3.0401,3.0489,3.0489,3.0489,3.0489,0.0,0.0,0.0,0.0,0.0,0.0,0.0,0.0,0.0,0.0,0.0,0.0,0.0,0.0,0.0,0.0,0.0,0.0,0.0,0.0,0.0,0.0,0.0,0.0,0.0,0.0,0.0,0.0,0.0,0.0,0.0,0.0,0.0,0.0,0.0,0.0,0.0,0.0,0.0,0.0,0.0,0.0,0.0,0.0,0.0,0.0,0.0,0.0,0.0,0.0,0.0,0.0,0.0,0.0,0.0,0.0,0.0,0.0,0.0,0.0,0.0,0.0,0.0,0.0,0.0,0.0,0.0,0.0,0.0,0.0,0.0,0.0,0.0,0.0,0.0,0.0,0.0,0.0,0.0,0.0,0.0,0.0,0.0,0.0,0.0,0.0,0.0,0.0,0.0,0.0,0.0,0.0,0.0,0.0,0.0,0.0,0.0,0.0,0.0,0.0,0.0,0.0,0.0,0.0,0.0,0.0,0.0,0.0,0.0,0.0,0.0,0.0,3.0342,3.0363,3.0422,0.0,0.0,0.0,0.0,0.0,0.0,0.0,0.0,0.0,0.0,0.0,0.0,0.0,0.0,0.0,0.0,0.0,0.0,0.0,0.0,0.0,0.0,0.0,0.0,0.0,0.0,0.0,0.0,0.0,0.0,0.0,0.0,0.0,0.0,0.0,0.0,0.0,0.0,0.0,0.0,0.0,0.0,0.0,0.0,0.0,0.0,0.0,0.0,0.0,0.0,0.0,0.0,0.0,0.0,0.0,0.0,0.0,0.0,0.0,0.0,0.0,0.0,0.0,0.0,0.0,0.0,0.0,0.0,0.0,0.0,0.0,0.0,0.0,0.0,0.0,0.0,0.0,0.0,0.0,0.0,0.0,0.0,0.0,0.0,0.0,0.0,0.0,0.0,0.0,0.0,0.0,0.0,0.0,0.0,0.0,0.0,0.0,0.0,0.0,0.0,0.0,0.0,0.0,0.0,0.0,0.0,0.0,0.0,0.0,0.0,2.9837,2.9859,2.9875,0.0,3.021,0.0,0.0,0.0,0.0,0.0,0.0,0.0,0.0,0.0,0.0,0.0,0.0,0.0,0.0,0.0,0.0,0.0,0.0,0.0,0.0,0.0,0.0,0.0,0.0,0.0,0.0,0.0,0.0,0.0,0.0,0.0,0.0,0.0,0.0,0.0,0.0,0.0,0.0,0.0,0.0,0.0,0.0,0.0,0.0,0.0,0.0,0.0,0.0,0.0,0.0,0.0,0.0,0.0,0.0,0.0,0.0,0.0,0.0,0.0,0.0,0.0,0.0,0.0,0.0,0.0,0.0,0.0,0.0,0.0,0.0,0.0,0.0,0.0,0.0,0.0,0.0,0.0,0.0,0.0,0.0,0.0,0.0,0.0,0.0,0.0,0.0,0.0,0.0,0.0,0.0,0.0,0.0,0.0,0.0,0.0,0.0,0.0,0.0,0.0,0.0,0.0,0.0,0.0,0.0,0.0,0.0,0.0,0.0,0.0,0.0,2.9677,2.9793,2.9793,2.9853,0.0,0.0,0.0,0.0,0.0,0.0,0.0,0.0,0.0,0.0,0.0,0.0,0.0,0.0,0.0,0.0,0.0,0.0,0.0,0.0,0.0,0.0,0.0,0.0,0.0,0.0,0.0,0.0,0.0,0.0,0.0,0.0,0.0,0.0,0.0,0.0,0.0,0.0,0.0,0.0,0.0,0.0,0.0,0.0,0.0,0.0,0.0,0.0,0.0,0.0,0.0,0.0,0.0,0.0,0.0,0.0,0.0,0.0,0.0,0.0,0.0,0.0,0.0,0.0,0.0,0.0,0.0,0.0,0.0,0.0,0.0,0.0,0.0,0.0,0.0,0.0,0.0,0.0,0.0,0.0,0.0,0.0,0.0,0.0,0.0,0.0,0.0,0.0,0.0,0.0,0.0,0.0,0.0,0.0,0.0,0.0,0.0,0.0,0.0,0.0,0.0,0.0,0.0,0.0,0.0,0.0,0.0,0.0,0.0,0.0,2.9136,2.9189,2.9438,2.9566,2.9633,2.9722,0.0,0.0,0.0,0.0,0.0,0.0,0.0,0.0,0.0,0.0,0.0,0.0,0.0,0.0,0.0,0.0,0.0,0.0,0.0,0.0,0.0,0.0,0.0,0.0,0.0,0.0,0.0,0.0,0.0,0.0,0.0,0.0,0.0,0.0,0.0,0.0,0.0,0.0,0.0,0.0,0.0,0.0,0.0,0.0,0.0,0.0,0.0,0.0,0.0,0.0,0.0,0.0,0.0,0.0,0.0,0.0,0.0,0.0,0.0,0.0,0.0,0.0,0.0,0.0,0.0,0.0,0.0,0.0,0.0,0.0,0.0,0.0,0.0,0.0,0.0,0.0,0.0,0.0,0.0,0.0,0.0,0.0,0.0,0.0,0.0,0.0,0.0,0.0,0.0,0.0,0.0,0.0,0.0,0.0,0.0,0.0,0.0,0.0,0.0,0.0,0.0,0.0,0.0,0.0,0.0,0.0,0.0,0.0,2.8535,2.8183,2.8183,2.8583,2.8928,2.9259,0.0,0.0,0.0,0.0,0.0,0.0,0.0,0.0,0.0,0.0,0.0,0.0,0.0,0.0,0.0,0.0,0.0,0.0,0.0,0.0,0.0,0.0,0.0,0.0,0.0,0.0,0.0,0.0,0.0,0.0,0.0,0.0,0.0,0.0,0.0,0.0,0.0,0.0,0.0,0.0,0.0,0.0,0.0,0.0,0.0,0.0,0.0,0.0,0.0,0.0,0.0,0.0,0.0,0.0,0.0,0.0,0.0,0.0,0.0,0.0,0.0,0.0,0.0,0.0,0.0,0.0,0.0,0.0,0.0,0.0,0.0,0.0,0.0,0.0,0.0,0.0,0.0,0.0,0.0,0.0,0.0,0.0,0.0,0.0,0.0,0.0,0.0,0.0,0.0,0.0,0.0,0.0,0.0,0.0,0.0,0.0,0.0,0.0,0.0,0.0,0.0,0.0,0.0,0.0,0.0,0.0,0.0,0.0,0.0,2.811,2.8231,2.8487,2.8873,2.9013,2.9144,0.0,0.0,0.0,0.0,0.0,0.0,0.0,0.0,0.0,0.0,0.0,0.0,0.0,0.0,0.0,0.0,0.0,0.0,0.0,0.0,0.0,0.0,0.0,0.0,0.0,0.0,0.0,0.0,0.0,0.0,0.0,0.0,0.0,0.0,0.0,0.0,0.0,0.0,0.0,0.0,0.0,0.0,0.0,0.0,0.0,0.0,0.0,0.0,0.0,0.0,0.0,0.0,0.0,0.0,0.0,0.0,0.0,0.0,0.0,0.0,0.0,0.0,0.0,0.0,0.0,0.0,0.0,0.0,0.0,0.0,0.0,0.0,0.0,0.0,0.0,0.0,0.0,0.0,0.0,0.0,0.0,0.0,0.0,0.0,0.0,0.0,0.0,0.0,0.0,0.0,0.0,0.0,0.0,0.0,0.0,0.0,0.0,0.0,0.0,0.0,0.0,0.0,0.0,0.0,0.0,0.0,0.0,0.0,0.0,2.7913,0.0,2.8646,2.8897,2.9029,2.9114,0.0,0.0,0.0,0.0,0.0,0.0,0.0,0.0,0.0,0.0,0.0,0.0,0.0,0.0,0.0,0.0,0.0,0.0,0.0,0.0,0.0,0.0,0.0,0.0,0.0,0.0,0.0,0.0,0.0,0.0,0.0,0.0,0.0,0.0,0.0,0.0,0.0,0.0,0.0,0.0,0.0,0.0,0.0,0.0,0.0,0.0,0.0,0.0,0.0,0.0,0.0,0.0,0.0,0.0,0.0,0.0,0.0,0.0,0.0,0.0,0.0,0.0,0.0,0.0,0.0,0.0,0.0,0.0,0.0,0.0,0.0,0.0,0.0,0.0,0.0,0.0,0.0,0.0,0.0,0.0,0.0,0.0,0.0,0.0,0.0,0.0,0.0,0.0,0.0,0.0,0.0,0.0,0.0,0.0,0.0,0.0,0.0,0.0,0.0,0.0,0.0,0.0,0.0,0.0,0.0,0.0,0.0,0.0,2.7898,2.7874,2.8295,2.8487,2.8511,2.8873,2.9114,0.0,0.0,0.0,0.0,0.0,0.0,0.0,0.0,0.0,0.0,0.0,0.0,0.0,0.0,0.0,0.0,0.0,0.0,0.0,0.0,0.0,0.0,0.0,0.0,0.0,0.0,0.0,0.0,0.0,0.0,0.0,0.0,0.0,0.0,0.0,0.0,0.0,0.0,0.0,0.0,0.0,0.0,0.0,0.0,0.0,0.0,0.0,0.0,0.0,0.0,0.0,0.0,0.0,0.0,0.0,0.0,0.0,0.0,0.0,0.0,0.0,0.0,0.0,0.0,0.0,0.0,0.0,0.0,0.0,0.0,0.0,0.0,0.0,0.0,0.0,0.0,0.0,0.0,0.0,0.0,0.0,0.0,0.0,0.0,0.0,0.0,0.0,0.0,0.0,0.0,0.0,0.0,0.0,0.0,0.0,0.0,0.0,0.0,0.0,0.0,0.0,0.0,0.0,0.0,0.0,0.0,0.0,0.0,0.0,2.6979,2.7963,2.8415,2.8247,2.8803,2.9114,0.0,0.0,0.0,0.0,0.0,0.0,0.0,0.0,0.0,0.0,0.0,0.0,0.0,0.0,0.0,0.0,0.0,0.0,0.0,0.0,0.0,0.0,0.0,0.0,0.0,0.0,0.0,0.0,0.0,0.0,0.0,0.0,0.0,0.0,0.0,0.0,0.0,0.0,0.0,0.0,0.0,0.0,0.0,0.0,0.0,0.0,0.0,0.0,0.0,0.0,0.0,0.0,0.0,0.0,0.0,0.0,0.0,0.0,0.0,0.0,0.0,0.0,0.0,0.0,0.0,0.0,0.0,0.0,0.0,0.0,0.0,0.0,0.0,0.0,0.0,0.0,0.0,0.0,0.0,0.0,0.0,0.0,0.0,0.0,0.0,0.0,0.0,0.0,0.0,0.0,0.0,0.0,0.0,0.0,0.0,0.0,0.0,0.0,0.0,0.0,0.0,0.0,0.0,0.0,0.0,0.0,0.0,0.0,0.0,2.6707,2.7938,2.8559,2.8407,2.8787,2.9013,2.9036,0.0,0.0,0.0,0.0,0.0,0.0,0.0,0.0,0.0,0.0,0.0,0.0,0.0,0.0,0.0,0.0,0.0,0.0,0.0,0.0,0.0,0.0,0.0,0.0,0.0,0.0,0.0,0.0,0.0,0.0,0.0,0.0,0.0,0.0,0.0,0.0,0.0,0.0,0.0,0.0,0.0,0.0,0.0,0.0,0.0,0.0,0.0,0.0,0.0,0.0,0.0,0.0,0.0,0.0,0.0,0.0,0.0,0.0,0.0,0.0,0.0,0.0,0.0,0.0,0.0,0.0,0.0,0.0,0.0,0.0,0.0,0.0,0.0,0.0,0.0,0.0,0.0,0.0,0.0,0.0,0.0,0.0,0.0,0.0,0.0,0.0,0.0,0.0,0.0,0.0,0.0,0.0,0.0,0.0,0.0,0.0,0.0,0.0,0.0,0.0,0.0,0.0,0.0,0.0,0.0,0.0,0.0,0.0,2.6808,2.8183,2.8834,2.8811,2.8873,2.8904,0.0,0.0,0.0,0.0,0.0,0.0,0.0,0.0,0.0,0.0,0.0,0.0,0.0,0.0,0.0,0.0,0.0,0.0,0.0,0.0,0.0,0.0,0.0,0.0,0.0,0.0,0.0,0.0,0.0,0.0,0.0,0.0,0.0,0.0,0.0,0.0,0.0,0.0,0.0,0.0,0.0,0.0,0.0,0.0,0.0,0.0,0.0,0.0,0.0,0.0,0.0,0.0,0.0,0.0,0.0,0.0,0.0,0.0,0.0,0.0,0.0,0.0,0.0,0.0,0.0,0.0,0.0,0.0,0.0,0.0,0.0,0.0,0.0,0.0,0.0,0.0,0.0,0.0,0.0,0.0,0.0,0.0,0.0,0.0,0.0,0.0,0.0,0.0,0.0,0.0,0.0,0.0,0.0,0.0,0.0,0.0,0.0,0.0,0.0,0.0,0.0,0.0,0.0,0.0,0.0,0.0,0.0,0.0,0.0,2.7999,2.8438,2.847,2.8052,2.8534,2.8826,0.0,0.0,0.0,0.0,0.0,0.0,0.0,0.0,0.0,0.0,0.0,0.0,0.0,0.0,0.0,0.0,0.0,0.0,0.0,0.0,0.0,0.0,0.0,0.0,0.0,0.0,0.0,0.0,0.0,0.0,0.0,0.0,0.0,0.0,0.0,0.0,0.0,0.0,0.0,0.0,0.0,0.0,0.0,0.0,0.0,0.0,0.0,0.0,0.0,0.0,0.0,0.0,0.0,0.0,0.0,0.0,0.0,0.0,0.0,0.0,0.0,0.0,0.0,0.0,0.0,0.0,0.0,0.0,0.0,0.0,0.0,0.0,0.0,0.0,0.0,0.0,0.0,0.0,0.0,0.0,0.0,0.0,0.0,0.0,0.0,0.0,0.0,0.0,0.0,0.0,0.0,0.0,0.0,0.0,0.0,0.0,0.0,0.0,0.0,0.0,0.0,0.0,0.0,0.0,0.0,0.0,0.0,0.0,2.8411,2.8411,2.8468,2.8341,2.8008,2.8668,2.892,0.0,0.0,0.0,0.0,0.0,0.0,0.0,0.0,0.0,0.0,0.0,0.0,0.0,0.0,0.0,0.0,0.0,0.0,0.0,0.0,0.0,0.0,0.0,0.0,0.0,0.0,0.0,0.0,0.0,0.0,0.0,0.0,0.0,0.0,0.0,0.0,0.0,0.0,0.0,0.0,0.0,0.0,0.0,0.0,0.0,0.0,0.0,0.0,0.0,0.0,0.0,0.0,0.0,0.0,0.0,0.0,0.0,0.0,0.0,0.0,0.0,0.0,0.0,0.0,0.0,0.0,0.0,0.0,0.0,0.0,0.0,0.0,0.0,0.0,0.0,0.0,0.0,0.0,0.0,0.0,0.0,0.0,0.0,0.0,0.0,0.0,0.0,0.0,0.0,0.0,0.0,0.0,0.0,0.0,0.0,0.0,0.0,0.0,0.0,0.0,0.0,0.0,0.0,0.0,0.0,0.0,0.0,0.0,2.8411,2.8411,2.8411,2.842,2.8493,2.9006,2.9075,0.0,0.0,0.0,0.0,0.0,0.0,0.0,0.0,0.0,0.0,0.0,0.0,0.0,0.0,0.0,0.0,0.0,0.0,0.0,0.0,0.0,0.0,0.0,0.0,0.0,0.0,0.0,0.0,0.0,0.0,0.0,0.0,0.0,0.0,0.0,0.0,0.0,0.0,0.0,0.0,0.0,0.0,0.0,0.0,0.0,0.0,0.0,0.0,0.0,0.0,0.0,0.0,0.0,0.0,0.0,0.0,0.0,0.0,0.0,0.0,0.0,0.0,0.0,0.0,0.0,0.0,0.0,0.0,0.0,0.0,0.0,0.0,0.0,0.0,0.0,0.0,0.0,0.0,0.0,0.0,0.0,0.0,0.0,0.0,0.0,0.0,0.0,0.0,0.0,0.0,0.0,0.0,0.0,0.0,0.0,0.0,0.0,0.0,0.0,0.0,0.0,0.0,0.0,0.0,0.0,0.0,0.0,0.0,2.8411,2.8411,2.8411,2.8573,2.8928,2.9067,2.909,0.0,0.0,0.0,0.0,0.0,0.0,0.0,0.0,0.0,0.0,0.0,0.0,0.0,0.0,0.0,0.0,0.0,0.0,0.0,0.0,0.0,0.0,0.0,0.0,0.0,0.0,0.0,0.0,0.0,0.0,0.0,0.0,0.0,0.0,0.0,0.0,0.0,0.0,0.0,0.0,0.0,0.0,0.0,0.0,0.0,0.0,0.0,0.0,3.2066,0.0,0.0,0.0,0.0,0.0,0.0,0.0,0.0,0.0,0.0,0.0,0.0,0.0,0.0,0.0,0.0,0.0,0.0,0.0,0.0,0.0,0.0,0.0,0.0,0.0,0.0,0.0,0.0,0.0,0.0,0.0,0.0,0.0,0.0,0.0,0.0,0.0,0.0,0.0,0.0,0.0,0.0,0.0,0.0,0.0,0.0,0.0,0.0,0.0,0.0,0.0,0.0,0.0,0.0,0.0,0.0,0.0,0.0,0.0,2.888,2.9192,2.9231,2.9396,2.9708,3.0414,3.0254,0.0,0.0,0.0,0.0,0.0,0.0,0.0,0.0,0.0,0.0,0.0,0.0,0.0,0.0,0.0,0.0,0.0,0.0,0.0,0.0,0.0,0.0,0.0,0.0,0.0,0.0,0.0,0.0,0.0,0.0,0.0,0.0,0.0,0.0,0.0,0.0,0.0,0.0,0.0,0.0,0.0,0.0,0.0,0.0,0.0,0.0,0.0,0.0,0.0,0.0,0.0,0.0,0.0,0.0,0.0,0.0,0.0,0.0,0.0,0.0,0.0,0.0,0.0,0.0,0.0,0.0,0.0,0.0,0.0,0.0,0.0,0.0,0.0,0.0,0.0,0.0,0.0,0.0,0.0,0.0,0.0,0.0,0.0,0.0,0.0,0.0,0.0,0.0,0.0,0.0,0.0,0.0,0.0,0.0,0.0,0.0,0.0,0.0,0.0,0.0,0.0,0.0,0.0,0.0,0.0,0.0,0.0,2.9108,2.947,3.0291,3.0339,3.0453,3.0725,3.2035,3.1788,2.9777,0.0,0.0,0.0,0.0,0.0,0.0,0.0,0.0,0.0,0.0,0.0,0.0,0.0,0.0,0.0,0.0,0.0,0.0,0.0,0.0,0.0,0.0,0.0,0.0,0.0,0.0,0.0,0.0,0.0,0.0,0.0,0.0,0.0,0.0,0.0,0.0,0.0,0.0,3.37,3.2586,0.0,0.0,0.0,0.0,0.0,0.0,0.0,0.0,3.2122,0.0,0.0,0.0,0.0,0.0,0.0,0.0,0.0,0.0,0.0,0.0,0.0,0.0,0.0,0.0,0.0,0.0,0.0,0.0,0.0,0.0,0.0,0.0,0.0,0.0,0.0,0.0,0.0,0.0,0.0,0.0,0.0,0.0,0.0,0.0,0.0,0.0,0.0,0.0,0.0,0.0,0.0,0.0,0.0,0.0,0.0,0.0,0.0,0.0,0.0,0.0,0.0,0.0,0.0,0.0,0.0,3.0209,2.9428,2.9769,3.1294,3.1044,3.127,3.2124,3.2671,3.2684,3.2138,0.0,0.0,0.0,0.0,0.0,0.0,0.0,0.0,0.0,0.0,0.0,0.0,0.0,0.0,0.0,0.0,0.0,0.0,0.0,0.0,0.0,0.0,0.0,0.0,0.0,0.0,0.0,0.0,0.0,0.0,0.0,0.0,0.0,0.0,0.0,0.0,0.0,0.0,0.0,3.2625,3.1938,0.0,0.0,0.0,0.0,0.0,0.0,0.0,0.0,3.1783,0.0,0.0,0.0,0.0,0.0,0.0,0.0,0.0,0.0,0.0,0.0,0.0,0.0,0.0,0.0,0.0,0.0,0.0,0.0,0.0,0.0,0.0,0.0,0.0,0.0,0.0,0.0,0.0,0.0,0.0,0.0,0.0,0.0,0.0,0.0,0.0,0.0,0.0,0.0,0.0,0.0,0.0,0.0,0.0,0.0,0.0,0.0,0.0,0.0,0.0,0.0,0.0,0.0,0.0,0.0,3.0416,3.0489,3.1068,3.2241,3.2111,3.2418,3.3248,3.3964,3.3955,0.0,0.0,0.0,0.0,0.0,0.0,0.0,0.0,0.0,0.0,0.0,0.0,0.0,0.0,0.0,0.0,0.0,0.0,0.0,0.0,0.0,0.0,0.0,0.0,0.0,0.0,0.0,0.0,0.0,0.0,0.0,0.0,0.0,0.0,0.0,0.0,0.0,0.0,0.0,0.0,3.2598,3.2327,3.2986,0.0,0.0,0.0,0.0,0.0,0.0,3.2259,3.212,0.0,0.0,0.0,0.0,0.0,0.0,0.0,0.0,0.0,0.0,0.0,0.0,0.0,0.0,0.0,0.0,0.0,0.0,0.0,0.0,0.0,0.0,0.0,0.0,0.0,0.0,0.0,0.0,0.0,0.0,0.0,0.0,0.0,0.0,0.0,0.0,0.0,0.0,0.0,0.0,0.0,0.0,0.0,0.0,0.0,0.0,0.0,0.0,0.0,0.0,0.0,0.0,0.0,0.0,0.0,3.1012,3.17,3.2473,3.3339,3.3348,3.3624,3.4292,3.5131,3.507,0.0,0.0,0.0,0.0,0.0,0.0,0.0,0.0,0.0,0.0,0.0,0.0,0.0,0.0,0.0,0.0,0.0,0.0,0.0,0.0,0.0,0.0,0.0,0.0,0.0,0.0,0.0,0.0,0.0,0.0,0.0,0.0,0.0,0.0,0.0,0.0,0.0,0.0,0.0,0.0,0.0,3.2695,3.2895,3.2734,0.0,0.0,0.0,0.0,3.2868,3.2761,0.0,0.0,0.0,0.0,0.0,0.0,0.0,0.0,0.0,0.0,0.0,0.0,0.0,0.0,0.0,0.0,0.0,0.0,0.0,0.0,0.0,0.0,0.0,0.0,0.0,0.0,0.0,0.0,0.0,0.0,0.0,0.0,0.0,0.0,0.0,0.0,0.0,0.0,0.0,0.0,0.0,0.0,0.0,0.0,0.0,0.0,0.0,0.0,0.0,0.0,0.0,0.0,0.0,0.0,0.0,0.0,3.2916,3.2668,3.334,3.4905,3.4613,3.471,3.5314,3.5509,3.5526,0.0,0.0,0.0,0.0,0.0,0.0,0.0,0.0,0.0,0.0,0.0,0.0,0.0,0.0,0.0,0.0,0.0,0.0,0.0,0.0,0.0,0.0,0.0,0.0,0.0,0.0,0.0,0.0,0.0,0.0,0.0,0.0,0.0,0.0,0.0,0.0,0.0,0.0,0.0,0.0,0.0,3.2761,3.3261,3.2906,3.2734,0.0,0.0,3.2938,3.3869,3.3716,0.0,0.0,0.0,0.0,0.0,0.0,0.0,0.0,0.0,0.0,0.0,0.0,0.0,0.0,0.0,0.0,0.0,0.0,0.0,0.0,0.0,0.0,0.0,0.0,0.0,0.0,0.0,0.0,0.0,0.0,0.0,0.0,0.0,0.0,0.0,0.0,0.0,0.0,0.0,0.0,0.0,0.0,0.0,0.0,0.0,0.0,0.0,0.0,0.0,0.0,0.0,0.0,0.0,0.0,0.0,3.3165,3.347,3.3695,3.4224,3.4968,3.4816,3.4975,3.5566,3.5577,3.5594,0.0,0.0,0.0,0.0,0.0,0.0,0.0,0.0,0.0,0.0,0.0,0.0,0.0,0.0,0.0,0.0,0.0,0.0,0.0,0.0,0.0,0.0,0.0,0.0,0.0,0.0,0.0,0.0,0.0,0.0,0.0,0.0,0.0,0.0,0.0,0.0,0.0,0.0,0.0,0.0,0.0,0.0,3.3469,3.3235,0.0,0.0,0.0,3.3108,3.3547,0.0,0.0,0.0,0.0,0.0,0.0,0.0,0.0,0.0,0.0,0.0,0.0,0.0,0.0,0.0,0.0,0.0,0.0,0.0,0.0,0.0,0.0,0.0,0.0,0.0,0.0,0.0,0.0,0.0,0.0,0.0,0.0,0.0,0.0,0.0,0.0,0.0,0.0,0.0,0.0,0.0,0.0,0.0,0.0,0.0,0.0,0.0,0.0,0.0,0.0,0.0,0.0,0.0,0.0,0.0,0.0,0.0,3.4048,3.4678,3.4998,3.4998,3.4998,3.5201,3.5577,3.5616,0.0,0.0,0.0,0.0,0.0,0.0,0.0,0.0,0.0,0.0,0.0,0.0,0.0,0.0,0.0,0.0,0.0,0.0,0.0,0.0,0.0,0.0,0.0,0.0,0.0,0.0,0.0,3.4342,0.0,0.0,0.0,0.0,0.0,0.0,0.0,0.0,0.0,0.0,0.0,0.0,0.0,0.0,3.3556,3.3811,3.3761,3.3802,0.0,0.0,3.3582,3.3767,3.421,3.4309,0.0,0.0,0.0,0.0,0.0,0.0,0.0,0.0,0.0,0.0,0.0,0.0,0.0,0.0,0.0,0.0,0.0,0.0,0.0,0.0,0.0,0.0,0.0,0.0,0.0,0.0,0.0,0.0,0.0,0.0,0.0,0.0,0.0,0.0,0.0,0.0,0.0,0.0,0.0,0.0,0.0,0.0,0.0,0.0,0.0,0.0,0.0,0.0,0.0,0.0,0.0,0.0,0.0,0.0,0.0,3.5201,3.5424,3.5554,3.5554,3.5538,3.5577,3.56,3.5616,3.5583,0.0,0.0,0.0,0.0,0.0,0.0,0.0,0.0,0.0,0.0,0.0,0.0,0.0,0.0,0.0,0.0,0.0,0.0,0.0,0.0,0.0,0.0,0.0,0.0,0.0,0.0,0.0,0.0,0.0,0.0,0.0,0.0,0.0,0.0,0.0,0.0,0.0,0.0,0.0,0.0,0.0,3.3795,3.4455,3.4528,3.4728,0.0,0.0,3.4704,3.5251,3.5383,3.5182,3.4456,0.0,0.0,0.0,0.0,0.0,0.0,0.0,0.0,0.0,0.0,0.0,0.0,0.0,0.0,0.0,0.0,0.0,0.0,0.0,0.0,0.0,0.0,0.0,0.0,0.0,0.0,0.0,0.0,0.0,0.0,0.0,0.0,0.0,0.0,0.0,0.0,0.0,0.0,0.0,0.0,0.0,0.0,0.0,0.0,0.0,0.0,0.0,0.0,0.0,0.0,0.0,0.0,0.0,3.5344,3.5487,3.5554,3.5616,3.5616,3.5616,3.5616,3.5616,3.5616,3.5616,0.0,0.0,0.0,0.0,0.0,0.0,0.0,0.0,0.0,0.0,0.0,0.0,0.0,0.0,0.0,0.0,0.0,0.0,0.0,0.0,0.0,0.0,0.0,0.0,0.0,0.0,0.0,0.0,3.3827,3.3878,3.4103,0.0,0.0,0.0,0.0,0.0,0.0,0.0,0.0,0.0,0.0,3.4309,3.4552,3.4616,0.0,0.0,3.492,3.4673,3.5291,3.536,3.5158,3.4521,3.4706,0.0,0.0,0.0,0.0,0.0,0.0,0.0,0.0,0.0,0.0,0.0,0.0,0.0,0.0,0.0,0.0,0.0,0.0,0.0,0.0,0.0,0.0,0.0,0.0,0.0,0.0,0.0,0.0,0.0,0.0,0.0,0.0,0.0,0.0,0.0,0.0,0.0,0.0,0.0,0.0,0.0,0.0,0.0,0.0,0.0,0.0,0.0,0.0,0.0,0.0,0.0,0.0,3.5446,3.5571,3.5577,3.5616,3.5616,3.5616,3.5616,3.5616,3.5616,3.5616,0.0,0.0,0.0,0.0,0.0,0.0,0.0,0.0,0.0,0.0,0.0,0.0,0.0,0.0,0.0,0.0,0.0,0.0,0.0,0.0,0.0,0.0,0.0,0.0,0.0,0.0,0.0,0.0,3.3355,3.3417,3.3417,0.0,0.0,0.0,0.0,0.0,0.0,0.0,0.0,0.0,0.0,3.4688,3.4887,3.4934,3.5164,3.5562,3.5217,3.498,3.519,3.5333,3.5219,3.4594,0.0,0.0,0.0,0.0,0.0,0.0,0.0,0.0,0.0,0.0,0.0,0.0,0.0,0.0,0.0,0.0,0.0,0.0,0.0,0.0,0.0,0.0,0.0,0.0,0.0,0.0,0.0,0.0,0.0,0.0,3.4939,0.0,0.0,0.0,0.0,0.0,0.0,0.0,0.0,0.0,0.0,0.0,0.0,0.0,0.0,0.0,0.0,0.0,0.0,0.0,0.0,0.0,0.0,3.5492,3.5498,3.5571,3.5616,3.5616,3.5616,3.5616,3.5616,3.5616,3.5616,3.5616,0.0,0.0,0.0,0.0,0.0,0.0,0.0,0.0,0.0,0.0,0.0,0.0,0.0,0.0,0.0,0.0,0.0,0.0,0.0,0.0,0.0,0.0,0.0,0.0,0.0,0.0,3.3224,3.3665,3.3919,0.0,0.0,0.0,0.0,0.0,0.0,0.0,0.0,0.0,0.0,3.46,3.4847,3.5487,3.5742,3.591,3.5951,3.5999,3.5823,3.5188,3.542,3.5465,0.0,0.0,0.0,0.0,0.0,0.0,0.0,0.0,0.0,0.0,0.0,0.0,0.0,0.0,0.0,0.0,0.0,0.0,0.0,0.0,0.0,0.0,0.0,0.0,0.0,0.0,0.0,3.6627,3.661,0.0,0.0,0.0,0.0,0.0,0.0,0.0,0.0,0.0,0.0,0.0,3.5423,3.5469,0.0,0.0,0.0,0.0,0.0,0.0,0.0,0.0,0.0,0.0,0.0,0.0,3.552,3.5549,3.5577,3.5616,3.5616,3.5616,3.5616,3.5616,3.5616,3.5616,3.5616,0.0,0.0,0.0,0.0,0.0,0.0,0.0,0.0,0.0,0.0,0.0,0.0,0.0,0.0,0.0,0.0,0.0,0.0,0.0,0.0,0.0,0.0,0.0,0.0,0.0,3.3355,0.0,0.0,0.0,0.0,0.0,0.0,0.0,0.0,0.0,0.0,0.0,3.4292,3.4681,3.5502,3.6158,3.636,3.6885,3.7213,0.0,0.0,0.0,0.0,0.0,0.0,0.0,0.0,0.0,0.0,0.0,0.0,0.0,0.0,3.5616,3.5616,3.5616,3.5616,3.5616,0.0,0.0,0.0,0.0,0.0,0.0,0.0,0.0,0.0,0.0,0.0,0.0,0.0,0.0,3.7375,0.0,3.7123,0.0,0.0,0.0,0.0,0.0,0.0,0.0,0.0,3.5498,3.552,3.5543,3.552,3.5543,0.0,3.5543,3.5549,0.0,0.0,0.0,0.0,0.0,0.0,0.0,0.0,3.5549,3.56,3.5616,3.5616,3.5616,3.5616,3.5616,3.5616,3.5616,3.5616,3.5616,3.5616,3.5616,0.0,0.0,0.0,0.0,0.0,0.0,0.0,0.0,0.0,0.0,0.0,0.0,0.0,0.0,0.0,0.0,0.0,0.0,0.0,0.0,0.0,0.0,0.0,3.4024,0.0,0.0,0.0,0.0,0.0,0.0,0.0,0.0,0.0,3.4749,3.516,3.5684,3.5852,3.6629,3.7202,3.7185,0.0,0.0,0.0,0.0,0.0,0.0,0.0,3.6999,3.6307,3.629,3.6199,3.5806,3.5887,3.6028,3.6028,0.0,0.0,3.5616,3.5616,3.5616,3.5616,3.5622,3.5711,3.5839,3.5905,3.5949,0.0,0.0,0.0,0.0,0.0,0.0,0.0,0.0,3.7609,3.7248,0.0,3.6578,0.0,0.0,0.0,0.0,0.0,3.5514,0.0,0.0,3.56,3.5616,3.56,3.56,3.56,3.5616,3.56,3.56,3.5616,3.56,0.0,0.0,0.0,0.0,0.0,0.0,3.5616,3.5616,3.5616,3.5616,3.5616,3.5616,3.5616,3.5616,3.5616,3.5616,3.5616,3.5616,3.5616,3.5616,3.5616,0.0,0.0,0.0,0.0,0.0,0.0,0.0,0.0,0.0,0.0,0.0,0.0,0.0,0.0,0.0,0.0,0.0,0.0,0.0,0.0,3.4448,0.0,0.0,0.0,0.0,0.0,0.0,0.0,0.0,0.0,0.0,3.7186,3.7119,3.7295,3.78,0.0,0.0,0.0,0.0,3.8155,3.8181,3.8281,3.8147,3.7536,3.784,3.7923,3.7277,0.0,0.0,3.7882,3.7297,3.6829,3.6812,3.6248,3.5667,3.5667,3.5633,3.5616,3.5616,3.5689,3.5839,3.5971,3.6058,3.6144,3.9935,0.0,0.0,0.0,0.0,3.9269,3.9286,3.937,3.9345,3.894,3.8248,3.8248,0.0,0.0,0.0,0.0,0.0,0.0,3.5594,3.56,3.5616,3.5616,3.5616,3.5616,3.5616,3.5616,3.5616,3.5616,3.5616,3.5616,3.5577,3.5571,0.0,0.0,0.0,0.0,3.5616,3.5616,3.5616,3.5616,3.5616,3.5616,3.5616,3.5616,3.5616,3.5616,3.5616,3.5616,3.5616,3.5616,3.5616,0.0,0.0,0.0,0.0,0.0,0.0,0.0,0.0,0.0,0.0,0.0,0.0,0.0,0.0,0.0,0.0,0.0,0.0,0.0,3.4715,3.5433,3.6049,0.0,0.0,0.0,0.0,0.0,0.0,0.0,0.0,0.0,3.9228,3.8336,3.772,0.0,0.0,3.8684,3.8684,3.9168,3.9531,3.9531,3.9545,0.0,3.9333,3.9075,3.879,3.8497,3.8147,3.7898,3.7898,3.7719,3.7584,3.7584,3.7415,3.7077,3.6535,3.5977,3.5633,3.56,3.5622,3.5706,3.5839,3.5971,3.6062,4.0045,3.9961,3.9884,3.9884,3.9901,3.9961,4.0037,4.0113,4.0113,3.969,3.8988,3.8988,3.8497,3.7675,3.7692,0.0,0.0,0.0,3.6495,3.6512,3.6495,3.6366,3.6096,3.6079,3.591,3.5616,3.5616,3.5616,3.5616,3.5616,3.5616,3.5616,0.0,0.0,3.5616,3.5616,3.5616,3.5616,3.5616,3.5616,3.5616,3.5616,3.5616,3.5616,3.5616,3.5616,3.5616,3.5616,3.5616,3.5616,3.5616,3.5616,0.0,0.0,0.0,0.0,0.0,0.0,0.0,0.0,0.0,0.0,0.0,3.6016,3.6016,0.0,0.0,0.0,3.5948,3.6072,3.5986,3.6777,0.0,0.0,0.0,0.0,0.0,0.0,0.0,3.8622,3.9462,4.0113,4.0096,3.9351,3.8768,3.8768,3.9157,3.9436,3.9428,0.0,4.0113,4.0113,4.0113,4.0113,4.0113,3.9799,3.9545,3.9446,3.9097,3.865,3.8379,3.8108,3.7804,3.7516,3.7212,3.6857,3.6417,3.5921,3.5622,3.5667,3.5622,3.5667,3.5839,3.5949,3.6058,4.0113,4.0113,4.0113,4.0037,3.9926,4.002,4.0113,4.0113,4.0113,3.969,3.9005,3.8988,3.8954,3.8903,3.8886,0.0,3.7898,3.7898,3.7889,3.7898,3.7898,3.7499,3.6812,3.6795,3.6366,3.5616,3.5616,3.5616,3.5616,3.5616,3.5616,3.5616,3.5616,3.5616,3.5616,3.5616,3.5616,3.5616,3.5616,3.5616,3.5616,3.5616,3.5616,3.5616,3.5616,3.5616,3.5616,3.5616,3.5616,3.5616,3.5616,3.5616,3.5616,0.0,0.0,0.0,0.0,0.0,0.0,0.0,0.0,0.0,0.0,0.0,0.0,0.0,0.0,0.0,3.7219,0.0,3.7125,3.8263,0.0,0.0,0.0,3.9825,3.9312,3.9747,3.9893,3.9339,0.0,0.0,4.0113,4.0113,4.0113,4.0113,4.0113,4.0113,4.0113,4.0096,4.0113,4.0113,4.0113,4.0113,4.0113,4.007,3.9995,3.9893,4.0011,3.9656,3.8954,3.8369,3.7658,3.71,3.6282,3.5825,3.5757,3.5814,3.5735,3.5834,3.5711,3.5689,3.5932,3.5912,3.5887,4.0113,4.0113,4.0113,4.007,4.0062,4.007,4.0113,4.0113,4.0113,3.9706,3.8988,3.8988,3.8684,3.8159,3.8176,3.8075,3.7898,3.7898,3.7898,3.7898,3.7898,3.7516,3.6829,3.6812,3.6366,3.5633,3.5616,3.5616,3.5616,3.5616,3.5616,3.5616,3.5616,3.5616,3.5616,3.5616,3.5616,3.5616,3.5616,3.5616,3.5616,3.5616,3.5616,3.5616,3.5616,3.5616,3.5616,3.5616,3.5616,3.5616,3.5616,3.5616,3.5616,3.5616,0.0,0.0,0.0,0.0,0.0,0.0,0.0,0.0,0.0,3.728,3.7872,0.0,3.8449,0.0,3.8226,3.8379,3.8019,3.8708,0.0,0.0,3.9335,3.9523,3.985,4.002,4.0045,3.9918,4.002,4.0113,4.0113,4.0113,4.0113,4.0113,4.0113,4.0113,4.0113,4.0113,4.0113,4.0113,4.0113,4.0113,4.0113,4.0113,3.991,3.9343,3.9357,3.9127,3.8294,3.8062,3.7905,3.7675,3.756,3.7193,3.6656,3.669,3.6541,3.6212,3.5927,3.5817,3.5937,3.5617,3.5252,4.0113,4.0113,4.0113,4.0113,4.0113,4.0113,4.0113,4.0113,4.0113,3.9876,3.9478,3.9486,3.9259,3.8886,3.8886,3.887,3.887,3.887,3.8886,3.887,3.887,3.8294,3.732,3.728,3.6705,3.5633,3.5616,3.5616,3.5616,3.5616,3.5616,3.5616,3.5616,3.5616,3.5616,3.5616,3.5616,3.5616,3.5616,3.5616,3.5616,3.5616,3.5616,3.5616,3.5616,3.5616,3.5616,3.5616,3.5616,3.5616,3.5616,3.5616,3.5616,3.5616,3.5616,0.0,0.0,0.0,0.0,0.0,0.0,0.0,0.0,0.0,0.0,0.0,3.9193,3.8556,3.9101,3.9285,3.8761,3.9242,3.9592,3.9618,3.9592,3.9722,4.007,4.0113,4.0113,4.0113,4.0113,4.0113,4.0113,4.0113,4.0113,4.0113,4.0113,4.0113,4.0113,4.0113,4.0113,4.0113,4.0113,4.0138,4.0163,3.9917,3.9578,3.9171,3.8863,3.8394,3.7611,3.7551,3.7495,3.7143,3.7087,3.6996,3.6587,3.6546,3.6498,3.6294,3.6079,3.6014,3.6062,3.5505,3.5015,4.0248,4.0231,4.0146,4.0113,4.0113,4.0113,4.0113,4.0113,4.0113,4.0113,4.0113,4.0113,4.0113,4.0113,4.0113,4.0113,4.0113,4.0113,4.0113,4.0113,4.0113,3.9334,3.7939,3.7898,3.7087,3.5633,3.5616,3.5616,3.5616,3.5616,3.5616,3.5616,3.5616,3.5616,3.5616,3.5616,3.5616,3.5616,3.5616,3.5616,3.5616,3.5616,3.5616,3.5616,3.5616,3.5616,3.5616,3.5616,3.5616,3.5616,3.5616,3.5616,3.5616,3.5616,3.5616,0.0,3.6349,0.0,0.0,0.0,0.0,0.0,0.0,0.0,0.0,4.0113,3.9893,3.9365,3.9816,3.9876,3.9365,3.9799,4.0113,4.0113,4.0113,4.0113,4.0113,4.0113,4.0138,4.0138,4.0138,4.0146,4.0163,4.0163,4.0146,4.0146,4.0188,4.0188,4.0146,4.0121,4.0113,4.0113,4.0096,4.0154,4.0084,3.9632,3.919,3.8918,3.8363,3.7642,3.6911,3.6899,3.6801,3.6198,3.61,3.6087,3.6019,3.6075,3.6118,3.6187,3.6208,3.6208,3.6139,3.5589,3.5053,4.1001,4.0933,4.0367,4.0113,4.0113,4.0113,4.0113,4.0113,4.0113,4.0113,4.0113,4.0113,4.0113,4.0113,4.0113,4.0113,4.0113,4.0113,4.0113,4.0113,4.0113,3.9309,3.7956,3.7898,3.711,3.5667,3.5616,3.5616,3.5616,3.5616,3.5616,3.5616,3.5616,3.5616,3.5616,0.0,0.0,0.0,3.5616,3.5616,3.5616,3.5616,3.5616,3.5616,3.5616,0.0,3.5616,3.5616,3.5616,3.5616,3.5616,0.0,0.0,0.0,0.0,0.0,0.0,0.0,0.0,0.0,0.0,0.0,3.9622,4.0113,4.0113,4.0113,4.0045,3.9944,4.002,4.0045,3.9944,4.002,4.0113,4.0113,4.0113,4.0113,4.0113,4.0213,4.028,4.0263,4.0362,4.0436,4.0412,4.0436,4.0395,4.0395,4.0419,4.0419,4.0436,4.0221,4.0113,4.0113,4.0196,4.0075,3.9634,3.9436,3.8805,3.7877,3.7501,3.7096,3.6403,3.6297,3.6341,3.6058,3.6118,3.6165,3.6165,3.6191,3.6237,3.6276,3.6297,3.628,3.6262,3.5694,3.5177,4.1745,0.0,4.095,4.0629,0.0,4.0265,4.0113,4.0113,4.0113,4.0113,4.0113,4.0113,4.0113,4.0113,4.0113,4.0113,4.0113,4.0113,4.0113,4.0113,4.0113,3.9309,3.7898,3.7898,3.7087,3.5633,3.5616,3.5616,3.5616,3.5616,3.5616,3.5616,3.5616,3.5616,3.5616,3.5616,3.5616,3.5616,3.5616,3.5616,3.5616,3.5616,3.5616,3.5616,3.5616,0.0,0.0,0.0,0.0,0.0,0.0,0.0,0.0,3.5616,0.0,3.5616,3.6349,3.6812,3.6863,3.8183,3.8988,3.9005,3.9739,4.0163,4.0113,4.0163,4.0188,4.0213,4.0263,4.0313,4.0313,4.0238,4.0213,4.0271,4.0238,4.0213,4.0288,4.0362,4.0412,4.0387,4.0461,4.051,4.051,4.051,4.051,4.051,4.051,4.051,4.0485,4.032,4.0188,4.0179,4.0005,3.9802,3.9463,3.8733,3.8191,3.7352,3.6945,3.6607,3.6169,3.617,3.6233,3.6152,3.6212,3.6233,3.6233,3.6276,3.6284,3.6284,3.6284,3.6284,3.6249,3.5714,3.518,4.2489,4.2422,4.1711,4.1305,4.1153,4.0544,4.0231,4.0113,0.0,0.0,0.0,4.0113,4.0113,4.0113,4.0113,4.0113,4.0113,4.0113,4.0113,4.0113,4.0113,3.936,3.8108,3.7956,3.7155,3.5836,3.5684,3.5616,3.5616,3.5616,3.5616,3.5616,3.5616,3.5616,3.5616,3.5616,3.5616,3.5616,3.5616,3.5616,3.5616,3.5616,3.5616,3.5616,3.5616,3.5616,3.5616,3.5616,3.5616,3.5616,3.5616,3.5616,3.5616,3.5616,3.5667,3.5819,3.6417,3.6863,3.7015,3.8251,3.9105,3.9248,3.9923,4.0288,4.0171,4.0263,4.0355,4.0337,4.0436,4.051,4.051,4.0412,4.0362,4.0485,4.0404,4.0387,4.0485,4.0534,4.0534,4.0534,4.0558,4.0583,4.0566,4.0566,4.0566,4.0583,4.0583,4.0541,4.0534,4.0412,4.0269,4.009,3.9792,3.9455,3.902,3.8236,3.7325,3.7102,3.6586,3.6225,3.6212,3.6255,3.6284,3.6262,3.6284,3.6284,3.6284,3.6284,3.6284,3.6284,3.6284,3.6284,3.6232,3.5835,3.548,4.3267,4.3189,4.2455,4.1779,4.1204,4.1085,4.0679,4.0113,4.0113,4.0113,4.0113,4.0113,4.0113,4.0113,4.0113,4.0113,4.0113,4.0113,4.0113,4.0113,4.0113,3.9673,3.8836,3.821,3.7466,3.662,3.5943,3.5616,3.5616,3.5616,3.5616,3.5616,3.5616,3.5616,3.5616,3.5616,3.5616,3.5616,3.5616,3.5616,3.5616,3.5616,3.5616,3.5616,3.5616,3.5616,3.5616,3.5616,3.5616,3.5616,3.5616,3.5616,3.5616,3.5616,3.5926,3.6575,3.6745,3.706,3.7719,3.8645,3.9479,4.0197,4.0392,4.0461,4.0461,4.0444,4.0461,4.0485,4.0493,4.051,4.051,4.0485,4.0485,4.051,4.0468,4.0468,4.051,4.0624,4.0673,4.0673,4.0776,4.0823,4.0823,4.0823,4.0823,4.0823,4.0799,4.0776,4.0655,4.0558,4.0243,3.9778,3.9568,3.9003,3.8148,3.7659,3.7159,3.6538,3.6383,3.6259,3.6259,3.628,3.6284,3.6284,3.6284,3.6284,3.6284,3.6284,3.6284,3.6284,3.6284,3.6284,3.6284,3.6167,3.6222,4.4111,4.3944,4.3217,4.2709,4.2354,4.1542,4.0764,4.013,4.0113,4.0113,4.0113,4.0113,4.0113,4.0113,4.0113,4.0113,4.0113,4.0113,4.0113,4.0113,4.0113,3.9723,3.9005,3.8667,3.8108,3.7381,3.662,3.6248,3.6214,3.5819,3.5616,3.5616,3.5616,3.5616,3.5616,3.5616,3.5616,3.5616,3.5616,3.5616,3.5616,3.5616,3.5616,3.5616,3.5616,3.5616,3.5616,3.5616,3.5616,3.5616,3.5616,3.5785,3.6231,3.6248,3.6603,3.7347,3.7841,3.8238,3.8577,3.9418,4.0102,4.0566,4.0624,4.0648,4.0686,4.0655,4.0624,4.0607,4.0697,4.0728,4.0704,4.0673,4.0631,4.0686,4.0673,4.0631,4.0721,4.0752,4.0817,4.0817,4.0864,4.0894,4.0894,4.0894,4.0894,4.0894,4.0894,4.0871,4.0782,4.0373,3.9924,3.953,3.8906,3.8234,3.7577,3.7116,3.6715,3.6335,3.6284,3.6284,3.6284,3.6284,3.6284,3.6284,3.6284,3.6284,3.6284,3.6284,3.6284,3.6284,3.6284,3.6284,3.6305,3.6451,3.6698,4.4737,4.453,4.3927,4.3487,4.3047,4.1762,4.0798,4.013,4.0113,4.0113,4.0113,4.0113,4.0113,4.0113,4.0113,4.0113,4.0113,4.0113,4.0113,4.0113,4.0113,3.9791,3.9283,3.9089,3.87,3.8108,3.7381,3.7049,3.6958,3.6248,3.5752,3.5633,3.5616,3.5616,3.5616,3.5616,3.5616,3.5616,3.5616,3.5616,3.5616,3.5616,3.5616,3.5616,3.5616,3.5616,3.5616,3.5616,3.5616,3.5616,3.5774,3.6146,3.6785,3.7011,3.7435,3.8187,3.887,3.9333,3.9545,4.0161,4.0624,4.0745,4.0745,4.0793,4.0871,4.0817,4.0728,4.0769,4.084,4.0871,4.0871,4.0817,4.0793,4.0888,4.0817,4.0793,4.0871,4.0894,4.0894,4.0894,4.0894,4.0894,4.0894,4.0894,4.0894,4.0894,4.0894,4.086,4.0618,3.9939,3.9411,3.8935,3.8153,3.7473,3.7271,3.6749,3.6353,3.6284,3.6284,3.6284,3.6284,3.6284,3.6284,3.6284,3.6284,3.6284,3.6284,3.6284,3.6284,3.6284,3.6284,3.6284,3.6305,3.6597,3.6919,4.4737,4.4598,4.4513,4.3684,4.2405,4.1559,4.0798,4.018,4.0113,4.0113,4.0113,4.0113,4.0113,4.0113,4.0113,4.0113,4.0113,4.0113,4.0113,4.0113,4.0113,4.0062,3.991,3.9309,3.8971,3.8802,3.8159,3.7804,3.777,3.7043,3.6332,3.5684,3.5616,3.5616,3.5616,3.5616,3.5616,3.5616,3.5616,3.5616,3.5616,3.5616,3.5616,3.5616,3.5616,3.5616,3.5616,3.5616,3.5616,3.565,3.6282,3.6774,3.7018,3.7602,3.8363,3.9197,3.9334,3.9713,4.046,4.0638,4.0745,4.0864,4.0871,4.0871,4.0894,4.0888,4.0871,4.0888,4.0894,4.0894,4.0894,4.0871,4.0871,4.0912,4.0871,4.0871,4.0888,4.0894,4.0894,4.0894,4.0894,4.0894,4.0894,4.0894,4.0894,4.0894,4.0894,4.067,4.0008,3.9301,3.856,3.7991,3.7508,3.718,3.6663,3.6387,3.6284,3.6284,3.6284,3.6284,3.6284,3.6284,3.6284,3.6284,3.6284,3.6284,3.6284,3.6284,3.6284,3.6284,3.6284,3.6301,3.6343,3.6635,3.6978,4.4831,4.4709,4.4626,4.3944,4.2912,4.2168,4.1424,4.073,4.0282,4.0113,4.0113,4.0113,4.0113,4.0113,4.0113,4.0113,4.0113,4.0113,4.0113,4.0113,4.0113,4.0113,4.0062,3.9808,3.9631,3.9605,3.8903,3.8548,3.8413,3.7804,3.7043,3.6366,3.6299,3.6079,3.565,3.5616,3.5616,3.5616,3.5616,3.5616,3.5616,3.5616,3.5616,3.5616,3.5616,3.5616,3.5616,3.5616,3.5644,3.5762,3.6497,3.716,3.77,3.8434,3.9232,3.998,4.0114,4.0329,4.0799,4.0817,4.084,4.0894,4.0894,4.0894,4.0894,4.0894,4.0894,4.0894,4.0894,4.0894,4.0894,4.0894,4.0894,4.0894,4.0894,4.0894,4.0894,4.0894,4.0894,4.0894,4.0894,4.0894,4.0894,4.0894,4.0894,4.0894,4.0894,4.0549,3.9784,3.906,3.8358,3.765,3.7133,3.6697,3.6335,3.6284,3.6284,3.6284,3.6284,3.6284,3.6284,3.6284,3.6284,3.6284,3.6284,3.6284,3.6284,3.6284,3.6284,3.6305,3.6305,3.6364,3.6615,3.6799,3.7132,4.4978,4.4858,4.4748,4.4224,4.3423,4.2661,4.1933,4.1153,4.0434,4.0113,4.0113,4.0113,4.0113,4.0113,4.0113,4.0113,4.0113,4.0113,4.0113,4.0113,4.0113,4.0113,4.0113,4.0113,4.0113,4.0028,3.9571,3.9191,3.8971,3.8497,3.7821,3.7195,3.7077,3.6705,3.6011,3.5904,3.5808,3.5616,3.5616,3.5616,3.5616,3.5616,3.5616,3.5616,3.5616,3.5616,3.5616,3.5616,3.5763,3.6073,3.6854,3.7671,3.8504,3.932,3.9994,4.0521,4.068,4.0793,4.0894,4.0894,4.0894,4.0894,4.0894,4.0894,4.0894,4.0894,4.0894,4.0894,4.0894,4.0894,4.0894,4.0894,4.0894,4.0894,4.0894,4.0894,4.0894,4.0894,4.0894,4.0894,4.0894,4.0894,4.0894,4.0894,4.0894,4.0894,4.0687,4.0267,3.9508,3.8755,3.8013,3.7305,3.6646,3.6353,3.6284,3.6284,3.6284,3.6284,3.6284,3.6284,3.6284,3.6284,3.6284,3.6284,3.6284,3.6284,3.6284,3.6284,3.6409,3.6451,3.6492,3.6618,3.6997,3.7132,3.7469,4.5113,4.5005,4.4995,4.4504,4.3637,4.2855,4.2012,4.1247,4.0468,4.013,4.0113,4.0113,4.0113,4.0113,4.0113,4.0113,4.0113,4.0113,4.0113,4.0113,4.0113,4.0113,4.0113,4.0113,4.0113,4.0096,4.0011,3.9673,3.9097,3.8996,3.8582,3.7905,3.7862,3.7483,3.6846,3.6745,3.6349,3.5791,3.5707,3.5616,3.5639,3.5639,3.5622,3.5622,3.5616,3.5616,3.5616,3.56,3.5943,3.6711,3.7545,3.8427,3.9296,4.0144,4.0676,4.0847,4.0871,4.0871,4.0894,4.0894,4.0894,4.0894,4.0894,4.0894,4.0894,4.0894,4.0894,4.0894,4.0894,4.0894,4.0894,4.0894,4.0894,4.0894,4.0894,4.0894,4.0894,4.0894,4.0894,4.0894,4.0894,4.0894,4.0894,4.0894,4.086,4.0705,4.0215,3.9508,3.8767,3.803,3.7335,3.6697,3.6353,3.6284,3.6284,3.6284,3.6284,3.6284,3.6284,3.6284,3.6284,3.6284,3.6284,3.6284,3.6284,3.6284,3.6284,3.6388,3.6557,3.6698,3.6841,3.7055,3.7396,3.7773,3.8051,4.514,4.5022,4.5022,4.4824,4.4463,4.3622,4.2794,4.2004,4.1171,4.0527,4.0146,4.0113,4.0113,4.0113,4.0113,4.0113,4.0113,4.0113,4.0113,4.0113,4.0113,4.0113,4.0113,4.0113,4.0113,4.0113,4.0188,4.0169,4.0005,3.9971,3.9579,3.8983,3.8864,3.8506,3.787,3.7687,3.7267,3.6605,3.6463,3.6226,3.5835,3.58,3.5866,3.5844,3.5672,3.5616,3.5616,3.5667,3.6129,3.6968,3.782,3.8671,3.9559,4.0386,4.0864,4.0912,4.0894,4.0894,4.0894,4.0894,4.0894,4.0894,4.0894,4.0894,4.0894,4.0894,4.0894,4.0894,4.0894,4.0894,4.0894,4.0894,4.0894,4.0894,4.0894,4.0894,4.0894,4.0894,4.0894,4.0894,4.0894,4.0894,4.0894,4.0894,4.0705,4.0221,3.9853,3.9163,3.822,3.7633,3.7185,3.6525,3.6284,3.6284,3.6284,3.6284,3.6284,3.6284,3.6284,3.6284,3.6284,3.6284,3.6284,3.6284,3.6284,3.6326,3.6367,3.662,3.6801,3.7151,3.7283,3.745,3.7791,3.8085,3.8269,4.5194,4.514,4.5113,4.5086,4.4974,4.4182,4.3318,4.2482,4.1638,4.0858,4.0248,4.0138,4.0113,4.0113,4.0113,4.0113,4.0113,4.0113,4.0113,4.0113,4.0113,4.0113,4.0113,4.0113,4.0113,4.0138,4.0255,4.0355,4.0436,4.0485,4.0236,3.9792,3.9758,3.9399,3.876,3.8553,3.8172,3.7552,3.7382,3.7087,3.665,3.6427,3.6356,3.6278,3.5958,3.5734,3.5734,3.58,3.6246,3.7086,3.7917,3.8895,3.9991,4.0601,4.0894,4.0894,4.0894,4.0894,4.0894,4.0894,4.0894,4.0894,4.0894,4.0894,4.0894,4.0894,4.0894,4.0894,4.0894,4.0894,4.0894,4.0894,4.0894,4.0894,4.0894,4.0894,4.0894,4.0894,4.0894,4.0894,4.0894,4.0894,4.086,4.0653,4.0267,3.975,3.9353,3.8513,3.7754,3.7236,3.6995,3.6422,3.6284,3.6284,3.6284,3.6284,3.6284,3.6284,3.6284,3.6284,3.6284,3.6284,3.6284,3.6284,3.6326,3.6367,3.6557,3.686,3.719,3.7578,3.7721,3.7826,3.8085,3.8269,3.8433,4.5397,4.5388,4.5414,4.53,4.5117,4.449,4.3605,4.2646,4.1818,4.1053,4.0356,4.0188,4.0163,4.0121,4.0146,4.0121,4.0121,4.0163,4.0121,4.0113,4.0113,4.0113,4.0113,4.0113,4.0121,4.0146,4.0238,4.0313,4.0379,4.0478,4.05,4.0458,4.0456,4.0096,3.9433,3.9399,3.9057,3.8459,3.8282,3.8253,3.8179,3.7501,3.7091,3.7006,3.6442,3.6066,3.6014,3.5997,3.6356,3.7108,3.794,3.9152,4.0526,4.0877,4.0894,4.0894,4.0894,4.0894,4.0894,4.0894,4.0894,4.0894,4.0894,4.0894,4.0894,4.0894,4.0894,4.0894,4.0894,4.0894,4.0894,4.0894,4.0894,4.0894,4.0894,4.0894,4.0894,4.0894,4.0894,4.0894,4.0894,4.0894,4.0739,4.0284,3.9802,3.9422,3.856,3.7663,3.7318,3.6818,3.6404,3.6301,3.6284,3.6284,3.6284,3.6284,3.6284,3.6284,3.6284,3.6284,3.6284,3.6284,3.6284,3.6305,3.6454,3.6536,3.7075,3.7359,3.765,3.7948,3.8068,3.8186,3.8368,3.8515,3.858,4.5414,4.5414,4.5414,4.5371,4.531,4.4989,4.4121,4.292,4.245,4.1613,4.059,4.0395,4.0387,4.0387,4.037,4.037,4.0387,4.0387,4.0288,4.0121,4.0113,4.0096,4.0113,4.0096,4.0196,4.032,4.0313,4.0436,4.0655,4.0673,4.0697,4.0752,4.0776,4.0672,4.039,4.0336,3.9928,3.9283,3.9157,3.8917,3.8443,3.8236,3.7897,3.7399,3.7145,3.6801,3.6247,3.6148,3.65,3.7185,3.8069,3.9261,4.0543,4.0894,4.0894,4.0894,4.0894,4.0894,4.0894,4.0894,4.0894,4.0894,4.0894,4.0894,4.0894,4.0894,4.0894,4.0894,4.0894,4.0894,4.0894,4.0894,4.0894,4.0894,4.0894,4.0894,4.0894,4.0894,4.0894,4.0894,4.0894,4.0894,4.0756,4.0164,3.9457,3.8922,3.806,3.7335,3.6766,3.6508,3.6318,3.6284,3.6284,3.6284,3.6284,3.6284,3.6284,3.6284,3.6284,3.6284,3.6284,3.6284,3.6284,3.6388,3.6536,3.688,3.7432,3.7844,3.8085,3.8285,3.8433,3.8546,3.8658,3.8707,3.8707,4.5414,4.5414,4.5414,4.5414,4.5397,4.5318,4.4431,4.3159,4.2894,4.1962,4.0764,4.0534,4.051,4.051,4.051,4.051,4.051,4.051,4.0395,4.0246,4.0188,4.0213,4.0263,4.0246,4.032,4.0444,4.0461,4.0576,4.0799,4.0817,4.0817,4.0888,4.0894,4.0894,4.0912,4.084,4.0517,4.0122,4.0029,3.9789,3.9382,3.9123,3.8669,3.8013,3.765,3.7094,3.637,3.6255,3.6457,3.699,3.7745,3.8888,4.0273,4.0446,4.0584,4.086,4.0894,4.0894,4.0894,4.0894,4.0894,4.0894,4.0894,4.0894,4.0894,4.0894,4.0894,4.0894,4.0894,4.0894,4.0894,4.0894,4.0894,4.0894,4.0894,4.0894,4.0894,4.0894,4.0894,4.0894,4.0894,4.0774,4.0411,3.979,3.9031,3.8289,3.7525,3.6973,3.6422,3.6318,3.6284,3.6284,3.6284,3.6284,3.6284,3.6284,3.6284,3.6284,3.6284,3.6284,3.6284,3.6284,3.6284,3.6512,3.6658,3.7075,3.7578,3.8085,3.8417,3.8611,3.8707,3.8707,3.8707,3.8707,3.8707,4.5414,4.5414,4.5414,4.5414,4.5414,4.5414,4.4535,4.3302,4.3056,4.2146,4.092,4.0607,4.0558,4.0558,4.0558,4.0541,4.0534,4.0558,4.0558,4.051,4.0412,4.0387,4.0461,4.0461,4.0485,4.0534,4.0583,4.0655,4.0769,4.0817,4.0894,4.0894,4.0894,4.0894,4.0912,4.0894,4.0853,4.0784,4.0802,4.075,4.0681,4.0129,3.9319,3.856,3.7961,3.7215,3.6439,3.628,3.6314,3.649,3.7232,3.8254,3.9353,3.9629,3.9974,4.0653,4.0808,4.0843,4.086,4.0894,4.0894,4.0894,4.0894,4.0894,4.0894,4.0894,4.0894,4.0894,4.0894,4.0894,4.0894,4.0894,4.0894,4.0894,4.0894,4.0894,4.0894,4.0894,4.0894,4.0877,4.0843,4.056,3.9836,3.9094,3.8306,3.7685,3.6939,3.6473,3.6353,3.6284,3.6284,3.6284,3.6284,3.6284,3.6284,3.6284,3.6284,3.6284,3.6284,3.6284,3.6284,3.6284,3.6409,3.6597,3.6878,3.7283,3.7739,3.8236,3.8546,3.8658,3.8707,3.8707,3.8707,3.8707,3.8707,4.5414,4.5414,4.5414,4.5414,4.5414,4.5414,4.4578,4.3293,4.3164,4.227,4.1082,4.0817,4.0776,4.0799,4.0776,4.0799,4.0776,4.0776,4.0817,4.0793,4.0631,4.0558,4.051,4.051,4.0558,4.0631,4.0607,4.0655,4.0817,4.0793,4.0817,4.0894,4.0894,4.0894,4.0894,4.0894,4.0894,4.0894,4.0894,4.0894,4.0877,4.0705,3.9928,3.8698,3.8387,3.7594,3.6456,3.6284,3.6611,3.715,3.7357,3.7887,3.875,3.8888,3.9232,3.9853,4.0049,4.029,4.0739,4.086,4.0877,4.0894,4.0877,4.0894,4.0894,4.0894,4.0894,4.0894,4.0894,4.0894,4.0894,4.0894,4.0894,4.0894,4.0843,4.086,4.0894,4.0894,4.0894,4.086,4.0377,3.9905,3.9422,3.8612,3.7749,3.737,3.6818,3.6284,3.6284,3.6284,3.6284,3.6284,3.6284,3.6284,3.6284,3.6284,3.6284,3.6284,3.6284,3.6284,3.6284,3.6284,3.6492,3.6739,3.7075,3.7469,3.7913,3.8403,3.8549,3.8707,3.8707,3.8707,3.8707,3.8707,3.8707,4.5414,4.5414,4.5414,4.5414,4.5414,4.5414,4.4578,4.3396,4.3172,4.2344,4.1153,4.0894,4.0894,4.0894,4.0894,4.0894,4.0894,4.0894,4.0894,4.0888,4.0817,4.0721,4.0648,4.0648,4.0704,4.0769,4.0704,4.0752,4.0864,4.0817,4.084,4.0871,4.0894,4.0894,4.0894,4.0894,4.0894,4.0894,4.0894,4.0894,4.0894,4.0894,4.0049,3.8922,3.856,3.787,3.6542,3.6284,3.6525,3.687,3.7008,3.7335,3.8025,3.8129,3.8474,3.9146,3.9232,3.9457,3.9853,4.0187,4.0394,4.048,4.0653,4.0877,4.0894,4.0894,4.0894,4.0894,4.0894,4.0894,4.0894,4.0894,4.0894,4.086,4.0601,4.0567,4.0843,4.0567,4.0405,4.0198,3.9733,3.91,3.8876,3.7978,3.7443,3.7008,3.6611,3.6353,3.6284,3.6284,3.6284,3.6284,3.6284,3.6284,3.6284,3.6284,3.6284,3.6284,3.6284,3.6284,3.6284,3.6305,3.6512,3.6799,3.7227,3.7614,3.8,3.8336,3.8596,3.8707,3.8707,3.8707,3.8707,3.8707,3.8707,4.5414,4.5414,4.5414,4.5414,4.538,4.5294,4.444,4.3345,4.3034,4.2223,4.1119,4.0894,4.0894,4.0894,4.0894,4.0894,4.0894,4.0894,4.0894,4.0894,4.0871,4.084,4.0745,4.0799,4.0847,4.0888,4.0894,4.0871,4.0912,4.0888,4.0912,4.0894,4.0894,4.0894,4.0894,4.0894,4.0894,4.0894,4.0894,4.0894,4.0894,4.0843,4.0118,3.8819,3.8146,3.7577,3.6611,3.6284,3.6335,3.6301,3.6284,3.6715,3.7323,3.7392,3.7771,3.8301,3.8513,3.8543,3.8715,3.9336,3.9577,3.9664,4.0198,4.0739,4.0653,4.0629,4.0705,4.0894,4.0894,4.0825,4.067,4.0722,4.0567,4.0353,3.9888,3.9991,4.0325,4.0026,3.9595,3.9526,3.8962,3.8237,3.7754,3.7374,3.7133,3.6697,3.6387,3.6335,3.6284,3.6284,3.6284,3.6284,3.6284,3.6284,3.6284,3.6284,3.6284,3.6284,3.6284,3.6284,3.6284,3.6346,3.6512,3.6779,3.7151,3.7505,3.7861,3.8185,3.8546,3.8707,3.8707,3.8707,3.8707,3.8707,3.8707,4.5414,4.5414,4.5414,4.5414,4.5294,4.4785,4.4035,4.3155,4.2534,4.1792,4.105,4.0894,4.0894,4.0894,4.0894,4.0894,4.0894,4.0894,4.0894,4.0894,4.0894,4.0871,4.0847,4.0871,4.0894,4.0894,4.0894,4.0894,4.0894,4.0894,4.0894,4.0894,4.0894,4.0894,4.0894,4.0894,4.0894,4.0894,4.0894,4.0894,4.0894,4.086,4.017,3.8681,3.7491,3.6732,3.6422,3.6284,3.6284,3.6284,3.6301,3.6422,3.6594,3.6611,3.6973,3.7512,3.7754,3.7978,3.8479,3.8663,3.8819,3.8853,3.9112,3.9336,3.9922,3.9957,4.0273,4.0687,4.0894,4.0521,4.0066,3.998,3.9773,3.9376,3.9048,3.8927,3.9048,3.8939,3.8836,3.8681,3.8198,3.7668,3.7478,3.6891,3.6577,3.6318,3.6284,3.6284,3.6284,3.6284,3.6284,3.6284,3.6284,3.6284,3.6284,3.6284,3.6284,3.6284,3.6284,3.6284,3.6284,3.6326,3.6451,3.6719,3.7055,3.7414,3.7791,3.8201,3.8593,3.8643,3.8707,3.8707,3.8707,3.8707,3.8707,4.5414,4.5363,4.5018,4.4889,4.4751,4.4078,4.3345,4.2672,4.2223,4.1602,4.1032,4.0894,4.0894,4.0894,4.0894,4.0894,4.0894,4.0894,4.0894,4.0894,4.0894,4.0894,4.0894,4.0894,4.0894,4.0894,4.0894,4.0894,4.0894,4.0894,4.0894,4.0894,4.0894,4.0894,4.0894,4.0894,4.0894,4.0894,4.0894,4.0894,4.0894,4.0877,4.017,3.8629,3.7163,3.6284,3.6284,3.6284,3.6284,3.6284,3.6284,3.6284,3.6284,3.6284,3.6542,3.6818,3.6939,3.7077,3.7478,3.7875,3.8099,3.8099,3.837,3.8794,3.9145,3.9271,3.9449,3.9818,3.9893,3.972,3.9391,3.9321,3.9039,3.8753,3.8338,3.8143,3.8099,3.8099,3.8082,3.7922,3.7404,3.7042,3.6715,3.6473,3.6387,3.6284,3.6284,3.6284,3.6284,3.6284,3.6284,3.6284,3.6284,3.6284,3.6284,3.6284,3.6284,3.6284,3.6284,3.6284,3.6284,3.6326,3.6367,3.6678,3.6997,3.7414,3.7791,3.8201,3.8546,3.8658,3.8689,3.8707,3.8707,3.8707,3.8707,4.5156,4.5018,4.4397,4.4138,4.4018,4.3345,4.2654,4.2102,4.1871,4.1429,4.0998,4.0894,4.0894,4.0894,4.0894,4.0894,4.0894,4.0894,4.0894,4.0894,4.0894,4.0894,4.0894,4.0894,4.0894,4.0894,4.0894,4.0894,4.0894,4.0894,4.0894,4.0894,4.0894,4.0894,4.0894,4.0894,4.0894,4.0894,4.0894,4.0894,4.0894,4.086,4.0124,3.8789,3.715,3.6419,3.6388,3.6346,3.6284,3.6284,3.6284,3.6284,3.6284,3.6284,3.6284,3.6335,3.6404,3.6473,3.6628,3.6956,3.7323,3.7357,3.7784,3.8294,3.8481,3.8611,3.8794,3.8925,3.9033,3.8968,3.8764,3.869,3.8617,3.833,3.7789,3.7503,3.7387,3.7366,3.7387,3.7236,3.6887,3.6594,3.6473,3.6318,3.6301,3.6284,3.6284,3.6284,3.6305,3.6305,3.6305,3.6284,3.6284,3.6284,3.6284,3.6284,3.6284,3.6322,3.6305,3.6343,3.6343,3.6385,3.6468,3.6618,3.6939,3.7322,3.7721,3.8117,3.8399,3.8593,3.8704,3.8719,3.8719,3.8707,3.8723,4.4138,4.3569,4.3431,4.3379,4.3258,4.2534,4.212,4.1912,4.1378,4.1032,4.0929,4.0894,4.0894,4.0894,4.0894,4.0894,4.0894,4.0894,4.0894,4.0894,4.0894,4.0894,4.0894,4.0894,4.0894,4.0894,4.0894,4.0894,4.0894,4.0894,4.0894,4.0894,4.0894,4.0894,4.0894,4.0894,4.0894,4.0918,4.0942,4.0965,4.0965,4.0758,4.0323,3.9006,3.7353,3.6599,3.6638,3.6471,3.6284,3.6284,3.6284,3.6284,3.6284,3.6284,3.6284,3.6284,3.6284,3.6284,3.6353,3.6404,3.6508,3.6525,3.6766,3.715,3.7556,3.7793,3.8087,3.8512,3.8677,3.8612,3.8038,3.8011,3.7676,3.7273,3.7061,3.6922,3.6884,3.6898,3.6835,3.673,3.6464,3.6305,3.6364,3.6385,3.6402,3.6402,3.6402,3.6385,3.6385,3.6364,3.6343,3.6322,3.6284,3.6284,3.6284,3.6305,3.6322,3.6364,3.6385,3.6423,3.6444,3.6482,3.6568,3.6673,3.6858,3.7188,3.7578,3.7982,3.83,3.8562,3.8655,3.8747,3.875,3.8735,3.8765,4.3517,4.3172,4.2758,4.2568,4.243,4.1757,4.1447,4.1395,4.105,4.0894,4.0894,4.0894,4.0894,4.0894,4.0894,4.0894,4.0894,4.0894,4.0894,4.0894,4.0894,4.0894,4.0894,4.0894,4.0894,4.0894,4.0894,4.0894,4.0894,4.0894,4.0894,4.0894,4.0894,4.0894,4.0894,4.0894,4.0918,4.0942,4.1094,4.1232,4.1115,4.0749,3.9978,3.9241,3.7769,3.6829,3.6741,3.6512,3.6305,3.6284,3.6284,3.6284,3.6305,3.6305,3.6305,3.6326,3.6305,3.6284,3.6284,3.6284,3.6318,3.6318,3.636,3.6599,3.6974,3.7196,3.745,3.7742,3.7888,3.779,3.7426,3.7405,3.7175,3.6888,3.6766,3.6745,3.6722,3.6702,3.664,3.6523,3.6544,3.6544,3.6523,3.6523,3.6541,3.652,3.6502,3.6502,3.6464,3.6482,3.6461,3.6444,3.6423,3.6402,3.6402,3.6385,3.6423,3.6444,3.6464,3.6523,3.6544,3.6602,3.6602,3.6626,3.6871,3.7108,3.7356,3.7703,3.8101,3.8496,3.8637,3.8762,3.878,3.878,3.8807,4.2861,4.2689,4.205,4.1792,4.1688,4.117,4.0929,4.0894,4.0912,4.0894,4.0894,4.0894,4.0894,4.0894,4.0894,4.0894,4.0894,4.0894,4.0894,4.0894,4.0894,4.0894,4.0894,4.0894,4.0894,4.0894,4.0894,4.0894,4.0894,4.0894,4.0894,4.0894,4.0894,4.0965,4.1018,4.1071,4.1041,4.1255,4.1445,4.1626,4.1364,4.0499,3.9865,3.9775,3.8021,3.6902,3.6999,3.6557,3.6326,3.6284,3.6305,3.6343,3.6409,3.643,3.6474,3.6516,3.6409,3.6322,3.6343,3.6343,3.6364,3.6423,3.6485,3.6599,3.6699,3.6867,3.6898,3.695,3.704,3.7128,3.7091,3.7005,3.6965,3.6906,3.6849,3.6829,3.6788,3.6786,3.6806,3.6766,3.6763,3.6722,3.6664,3.664,3.662,3.662,3.6602,3.662,3.6602,3.6623,3.664,3.6623,3.6602,3.6561,3.6561,3.6523,3.6544,3.6585,3.6606,3.6643,3.6684,3.6705,3.6725,3.6728,3.6806,3.7009,3.7242,3.7523,3.7999,3.838,3.8634,3.8773,3.8822,3.8851,3.8881,4.1774,4.117,4.1101,4.1032,4.105,4.0946,4.0894,4.0894,4.0894,4.0894,4.0894,4.0894,4.0894,4.0894,4.0894,4.0894,4.0894,4.0894,4.0894,4.0894,4.0894,4.0894,4.0894,4.0894,4.0894,4.0894,4.0894,4.0894,4.0965,4.0965,4.0918,4.0942,4.1041,4.1088,4.1423,4.1445,4.1666,4.1966,4.2074,4.2136,4.1889,4.0687,4.018,3.9696,3.834,3.7114,3.7284,3.6841,3.6451,3.6388,3.6346,3.6512,3.6761,3.6865,3.7116,3.7114,3.6841,3.6343,3.6468,3.6485,3.6523,3.6582,3.6643,3.6684,3.6745,3.6806,3.6888,3.697,3.6989,3.6989,3.6989,3.6989,3.6987,3.6987,3.6948,3.693,3.6928,3.6869,3.6888,3.6888,3.6869,3.6806,3.6745,3.6722,3.6719,3.6719,3.6719,3.6722,3.6742,3.6763,3.6742,3.6705,3.6705,3.6664,3.6664,3.6647,3.6667,3.6725,3.6745,3.6766,3.6786,3.6846,3.6908,3.6911,3.6968,3.705,3.7339,3.7685,3.8015,3.8346,3.8661,3.8818,3.8896,3.8906,3.8935,4.1205,4.0894,4.0894,4.0894,4.0894,4.0894,4.0894,4.0894,4.0894,4.0894,4.0894,4.0894,4.0894,4.0894,4.0894,4.0894,4.0894,4.0894,4.0894,4.0894,4.0894,4.0894,4.0894,4.0894,4.0894,4.0918,4.0918,4.1088,4.114,4.1237,4.1237,4.126,4.149,4.1731,4.1885,4.1906,4.2011,4.2198,4.2438,4.2731,4.2466,4.147,4.0615,4.0681,3.8653,3.7864,3.7614,3.7322,3.6997,3.6978,3.6999,3.7097,3.7267,3.736,3.7506,3.756,3.7342,3.7058,3.6917,3.6713,3.6667,3.6684,3.6745,3.6806,3.6866,3.6888,3.6928,3.697,3.6989,3.6989,3.6989,3.6989,3.6989,3.6989,3.6989,3.6989,3.6989,3.6989,3.697,3.697,3.7009,3.7009,3.7009,3.6987,3.6948,3.6866,3.6886,3.6908,3.6908,3.6906,3.6846,3.6748,3.6748,3.6748,3.6748,3.6731,3.6809,3.6849,3.6869,3.6888,3.6908,3.6968,3.705,3.7186,3.73,3.7395,3.7542,3.7772,3.808,3.8407,3.8722,3.8844,3.8964,3.9021,3.9017,4.0894,4.0894,4.0894,4.0894,4.0894,4.0894,4.0894,4.0894,4.0894,4.0894,4.0894,4.0894,4.0894,4.0894,4.0894,4.0894,4.0894,4.0894,4.0894,4.0894,4.0894,4.0894,4.0894,4.0894,4.0965,4.1059,4.1094,4.1305,4.1622,4.1778,4.1842,4.1692,4.1927,4.2198,4.234,4.2398,4.2458,4.2637,4.2902,4.3051,4.2825,4.1777,4.1044,4.0301,3.9226,3.8101,3.8051,3.7703,3.7487,3.7487,3.7506,3.7578,3.7737,3.7858,3.7976,3.8061,3.7977,3.7807,3.7524,3.7245,3.6908,3.6806,3.6809,3.6888,3.6968,3.6989,3.6989,3.6989,3.6989,3.6989,3.6989,3.6989,3.6989,3.6989,3.6989,3.6989,3.7029,3.7127,3.7206,3.7262,3.7319,3.743,3.7411,3.7337,3.7223,3.7048,3.7048,3.7108,3.7069,3.7068,3.695,3.6871,3.6871,3.6871,3.6871,3.6891,3.693,3.7009,3.7048,3.7089,3.7147,3.7223,3.7319,3.745,3.7632,3.7825,3.8013,3.808,3.8129,3.8421,3.8685,3.8898,3.9031,3.9073,3.9101,4.0894,4.0894,4.0894,4.0894,4.0894,4.0894,4.0894,4.0894,4.0894,4.0894,4.0894,4.0894,4.0894,4.0894,4.0894,4.0894,4.0894,4.0894,4.0894,4.0894,4.0894,4.0894,4.0894,4.0942,4.1041,4.1328,4.1373,4.1644,4.2115,4.2418,4.2378,4.2239,4.238,4.2537,4.2711,4.2863,4.2976,4.3123,4.323,4.2898,4.2416,4.1534,4.0744,3.9928,3.8899,3.8101,3.8085,3.7861,3.772,3.7737,3.7824,3.7977,3.8211,3.8323,3.8465,3.8609,3.8545,3.8421,3.818,3.7703,3.7262,3.7068,3.6987,3.7007,3.7087,3.7009,3.6989,3.7048,3.7089,3.7068,3.7048,3.7009,3.7166,3.7223,3.728,3.728,3.7319,3.7431,3.7505,3.7542,3.7632,3.7721,3.7756,3.7703,3.7577,3.7394,3.7412,3.7468,3.73,3.7243,3.7108,3.7011,3.7029,3.7029,3.7048,3.7108,3.728,3.7318,3.7318,3.7394,3.745,3.7541,3.7614,3.7843,3.8048,3.8263,3.8439,3.8468,3.8514,3.8511,3.8666,3.8942,3.9059,3.9087,3.9101,4.0894,4.0894,4.0894,4.0894,4.0894,4.0894,4.0894,4.0894,4.0894,4.0894,4.0894,4.0894,4.0894,4.0894,4.0894,4.0894,4.0894,4.0894,4.086,4.0894,4.0894,4.0894,4.0894,4.0832,4.0989,4.1116,4.1343,4.1735,4.2195,4.251,4.2958,4.2939,4.2757,4.3069,4.325,4.3178,4.3284,4.319,4.3002,4.2525,4.2176,4.102,4.0212,3.9866,3.9033,3.8538,3.8467,3.8415,3.8346,3.8344,3.8389,3.8533,3.864,3.8744,3.8865,3.9031,3.8927,3.8807,3.8597,3.8115,3.7685,3.7339,3.7147,3.7106,3.7262,3.7147,3.7148,3.7206,3.7301,3.7319,3.732,3.7523,3.7739,3.7685,3.765,3.7595,3.7667,3.7738,3.7843,3.7895,3.793,3.8,3.8034,3.8051,3.7896,3.7756,3.7809,3.7791,3.7632,3.7487,3.7375,3.7319,3.7319,3.7431,3.7486,3.7559,3.765,3.7613,3.7595,3.7703,3.7791,3.7861,3.8,3.8251,3.8442,3.8582,3.8718,3.8851,3.8861,3.8818,3.8861,3.9027,3.9101,3.9101,3.9101,4.0894,4.0894,4.0894,4.0894,4.0894,4.0894,4.0894,4.0894,4.0894,4.0894,4.0894,4.0894,4.0739,4.0618,4.0532,4.0308,4.0152,4.0101,4.0152,4.0118,4.0083,4.0221,4.0221,4.0158,4.0112,4.0434,4.0669,4.0997,4.1344,4.1952,4.2105,4.2303,4.2749,4.2839,4.3425,4.3239,4.3057,4.2653,4.2323,4.1735,4.1423,4.0579,3.9698,3.9533,3.8896,3.8713,3.8673,3.8655,3.8728,3.8773,3.8844,3.8946,3.9017,3.9059,3.9101,3.9101,3.9055,3.897,3.8733,3.833,3.7982,3.7703,3.7523,3.7523,3.7541,3.7468,3.7559,3.765,3.7685,3.7685,3.7685,3.7879,3.7983,3.7914,3.7931,3.7914,3.7982,3.8083,3.8183,3.8249,3.833,3.8457,3.8473,3.852,3.8362,3.8148,3.7982,3.8032,3.8064,3.7895,3.7739,3.7703,3.7685,3.7844,3.8017,3.7966,3.7914,3.7879,3.7879,3.805,3.815,3.8218,3.838,3.8628,3.8811,3.8898,3.8942,3.8998,3.9027,3.9055,3.9101,3.9101,3.9101,3.9101,3.9101,4.0894,4.0894,4.0894,4.0894,4.0825,4.0894,4.0894,4.0877,4.0825,4.0756,4.0653,4.0687,4.0342,3.9876,3.9733,3.9497,3.91,3.8922,3.8905,3.9008,3.9094,3.8853,3.8853,3.8984,3.9269,3.9304,3.9627,3.9958,4.011,4.0744,4.0872,4.1013,4.1493,4.2029,4.3259,4.269,4.1956,4.1297,4.1224,4.0763,4.0322,3.9953,3.9423,3.9038,3.8799,3.8707,3.8723,3.8777,3.8818,3.8877,3.8964,3.9017,3.9073,3.9087,3.9101,3.9101,3.9101,3.9069,3.9027,3.8457,3.82,3.8066,3.7913,3.7948,3.8051,3.8034,3.8,3.8033,3.8066,3.8066,3.8083,3.8152,3.8183,3.8232,3.8265,3.8298,3.8394,3.8457,3.8551,3.8597,3.8855,3.9041,3.9041,3.8998,3.8822,3.8597,3.8281,3.8231,3.8326,3.8261,3.81,3.8048,3.8065,3.8214,3.833,3.8234,3.8168,3.8135,3.8216,3.8426,3.852,3.8566,3.8766,3.8998,3.9027,3.8998,3.9041,3.9082,3.9101,3.9101,3.9101,3.9101,3.9101,3.9101,3.9101,4.0894,4.0894,4.0894,4.0601,4.0215,4.0687,4.0894,4.0808,4.0336,3.9836,3.9445,3.9393,3.929,3.9008,3.8939,3.8784,3.8594,3.8594,3.8594,3.8543,3.8474,3.8612,3.8543,3.8444,3.8602,3.8868,3.9083,3.923,3.9534,3.9984,4.0383,4.0598,4.0691,4.1335,4.1735,4.1589,4.1297,4.1022,4.0653,4.0139,3.9861,3.9405,3.9001,3.8707,3.8707,3.8707,3.8707,3.8792,3.8848,3.8892,3.896,3.9059,3.9101,3.9101,3.9101,3.9101,3.9101,3.9101,3.9069,3.8822,3.8673,3.8473,3.8281,3.8283,3.8378,3.8201,3.8232,3.836,3.8407,3.8423,3.8442,3.8673,3.8781,3.8811,3.884,3.8807,3.8865,3.888,3.8927,3.8927,3.9087,3.9101,3.9101,3.9101,3.8984,3.8956,3.8673,3.8535,3.8579,3.8548,3.8423,3.8423,3.8439,3.8579,3.8624,3.8566,3.8582,3.8612,3.8703,3.8851,3.8927,3.8884,3.8942,3.9055,3.9087,3.9101,3.9101,3.9101,3.9101,3.9101,3.9101,3.9101,3.9101,3.9101,3.9101,4.0101,4.0118,4.0118,3.9825,3.9474,4.0146,4.0377,4.0066,3.9526,3.9008,3.8681,3.8612,3.8461,3.8323,3.8198,3.7939,3.7858,3.7784,3.7784,3.7801,3.7784,3.768,3.7698,3.7836,3.7616,3.7953,3.8231,3.8433,3.837,3.9246,3.962,3.9806,4.0156,4.0143,4.0341,4.0432,4.0487,4.0139,3.9625,3.946,3.9276,3.9038,3.8744,3.8707,3.8707,3.8707,3.8719,3.8777,3.8896,3.8921,3.8993,3.9073,3.9087,3.9101,3.9101,3.9101,3.9101,3.9101,3.9069,3.9087,3.8913,3.8811,3.8551,3.8566,3.8703,3.8612,3.8628,3.8718,3.873,3.8744,3.8792,3.9073,3.9073,3.9087,3.9087,3.9055,3.9055,3.9055,3.9055,3.9087,3.9101,3.9101,3.9101,3.9101,3.9055,3.9069,3.9055,3.889,3.8755,3.8763,3.8715,3.8715,3.8678,3.8748,3.8857,3.8956,3.8984,3.9069,3.899,3.8859,3.9069,3.8998,3.9055,3.9101,3.9101,3.9101,3.9101,3.9101,3.9101,3.9101,3.9101,3.9101,3.9101,3.9101,3.9101,3.8612,3.8594,3.8594,3.8651,3.8681,3.9181,3.9129,3.8594,3.8577,3.853,3.8439,3.8318,3.7974,3.753,3.7439,3.7111,3.6663,3.6542,3.6559,3.6525,3.6715,3.6594,3.6559,3.6559,3.6796,3.6735,3.6925,3.7486,3.714,3.8115,3.8632,3.88,3.9082,3.9148,3.9294,3.9496,3.9551,3.9221,3.9056,3.8946,3.8872,3.8781,3.8707,3.8707,3.8707,3.8723,3.8735,3.881,3.8866,3.8925,3.8979,3.9031,3.9073,3.9101,3.9101,3.9101,3.9101,3.9101,3.9101,3.9101,3.9082,3.8998,3.9013,3.9073,3.9027,3.8942,3.8942,3.8956,3.8984,3.9027,3.9101,3.9101,3.9101,3.9101,3.9101,3.9082,3.9082,3.9082,3.9082,3.9101,3.9101,3.9101,3.9101,3.9101,3.899,3.899,3.8915,3.8697,3.8655,3.8966,3.8933,3.8915,3.8906,3.8878,3.8897,3.8655,3.8414,3.8191,3.8414,3.8395,3.8711,3.8859,3.8767,3.8748,3.9008,3.9101,3.9101,3.9101,3.9101,3.9101,3.9101,3.9101,3.9101,3.9101,3.9101,3.8594,3.8594,3.8594,3.8306,3.7806,3.7439,3.7439,3.7767,3.7784,3.7525,3.6956,3.6956,3.6956,3.6646,3.6628,3.6473,3.637,3.6284,3.6318,3.6284,3.6284,3.6284,3.6305,3.6346,3.6471,3.6698,3.688,3.7114,3.7413,3.7913,3.8336,3.8664,3.8692,3.8707,3.8781,3.8946,3.8854,3.8781,3.8707,3.8707,3.8707,3.8707,3.8707,3.8707,3.8707,3.8738,3.878,3.8837,3.891,3.8968,3.9036,3.9087,3.9101,3.9101,3.9101,3.9101,3.9101,3.9101,3.9101,3.9101,3.9101,3.9101,3.9101,3.9101,3.9101,3.9101,3.9101,3.9101,3.9101,3.9101,3.9101,3.9101,3.9101,3.9101,3.9101,3.9101,3.9101,3.9101,3.9101,3.9101,3.9101,3.899,3.899,3.8934,3.8859,3.8859,3.8711,3.8395,3.8302,3.8544,3.8655,3.8599,3.8488,3.8265,3.8005,3.7745,3.7503,3.7318,3.7596,3.7726,3.7671,3.7819,3.8116,3.8358,3.8562,3.8841,3.9101,3.9101,3.9101,3.9101,3.9101,3.9101,3.9101,3.9101,3.9101,3.768,3.7698,3.7698,3.7422,3.6973,3.649,3.6611,3.6973,3.7025,3.6715,3.6318,3.6335,3.6284,3.6318,3.6335,3.6301,3.6301,3.6284,3.6284,3.6284,3.6305,3.6451,3.6471,3.6557,3.6781,3.7018,3.7303,3.756,3.7791,3.8118,3.8533,3.8676,3.8707,3.8707,3.8726,3.8762,3.8744,3.8707,3.8707,3.8707,3.8707,3.8707,3.8707,3.8707,3.8723,3.8765,3.8807,3.8896,3.8968,3.9007,3.9059,3.9101,3.9101,3.9101,3.9101,3.9101,3.9101,3.9101,3.9101,3.9101,3.9101,3.9101,3.9101,3.9101,3.9101,3.9101,3.9101,3.9101,3.9101,3.9101,3.9101,3.9101,3.9101,3.9101,3.9101,3.9101,3.9101,3.9101,3.9101,3.9101,3.9008,3.8859,3.8785,3.8711,3.8432,3.7968,3.7689,3.7541,3.7466,3.7596,3.7689,3.7703,3.7591,3.7424,3.7151,3.6946,3.6835,3.6792,3.6996,3.7039,3.6798,3.6928,3.7336,3.7726,3.8093,3.8321,3.8525,3.8971,3.9101,3.9045,3.9027,3.9101,3.9101,3.9101,3.9101,3.6318,3.6353,3.6284,3.6404,3.6301,3.6301,3.6318,3.6284,3.637,3.6301,3.6284,3.6284,3.6284,3.6284,3.6284,3.6284,3.6284,3.6284,3.6367,3.6326,3.643,3.6597,3.686,3.6978,3.7171,3.756,3.7826,3.7948,3.8203,3.8451,3.8611,3.8707,3.8707,3.8707,3.8707,3.8707,3.8707,3.8707,3.8707,3.8707,3.8707,3.8707,3.8707,3.8723,3.875,3.8788,3.8833,3.8906,3.8993,3.9036,3.9045,3.9101,3.9101,3.9101,3.9101,3.9101,3.9101,3.9101,3.9101,3.9101,3.9101,3.9101,3.9101,3.9101,3.9101,3.9101,3.9101,3.9101,3.9101,3.9101,3.9101,3.9101,3.9101,3.9101,3.9101,3.9101,3.9101,3.9045,3.8934,3.8878,3.8655,3.8469,3.7931,3.7814,3.7758,3.7076,3.6681,3.6625,3.6551,3.6612,3.6779,3.6811,3.6718,3.6606,3.6458,3.6309,3.6272,3.6309,3.6328,3.6185,3.5832,3.6129,3.6593,3.7058,3.7517,3.7634,3.7856,3.8321,3.8692,3.8822,3.8841,3.9045,3.9082,3.9064,3.9101,3.6284,3.6284,3.6284,3.6284,3.6284,3.6284,3.6284,3.6284,3.6284,3.6284,3.6284,3.6284,3.6284,3.6284,3.6284,3.6284,3.6284,3.6305,3.6492,3.6597,3.6658,3.6841,3.7265,3.7302,3.7578,3.7861,3.8101,3.8269,3.8483,3.8627,3.8707,3.8707,3.8707,3.8707,3.8707,3.8707,3.8707,3.8707,3.8707,3.8707,3.8707,3.8707,3.8707,3.8719,3.8747,3.8822,3.8881,3.8935,3.9021,3.9078,3.9087,3.9101,3.9101,3.9101,3.9101,3.9101,3.9101,3.9101,3.9101,3.9101,3.9101,3.9101,3.9101,3.9101,3.9101,3.9101,3.9101,3.9101,3.9101,3.9101,3.9101,3.9101,3.9101,3.9101,3.9008,3.9008,3.899,3.8822,3.8692,3.8488,3.8247,3.7782,3.7238,3.6959,3.6885,3.6532,3.603,3.5751,3.5529,3.5547,3.5925,3.5993,3.59,3.5807,3.5677,3.5535,3.5473,3.5219,3.5126,3.4996,3.4922,3.5349,3.5832,3.6458,3.6904,3.6959,3.7182,3.7671,3.8024,3.8209,3.8599,3.8767,3.8952,3.899,3.9045,3.6284,3.6284,3.6284,3.6284,3.6284,3.6284,3.6284,3.6284,3.6284,3.6284,3.6284,3.6284,3.6284,3.6284,3.6284,3.6284,3.6284,3.6284,3.6388,3.6557,3.6761,3.6999,3.7247,3.756,3.7948,3.8203,3.8352,3.8515,3.8658,3.8707,3.8707,3.8707,3.8707,3.8707,3.8707,3.8707,3.8707,3.8707,3.8707,3.8707,3.8707,3.8707,3.8707,3.8704,3.8765,3.8822,3.8881,3.8954,3.9007,3.9064,3.9073,3.9101,3.9101,3.9101,3.9101,3.9101,3.9101,3.9101,3.9101,3.9101,3.9101,3.9101,3.9101,3.9101,3.9101,3.9101,3.9101,3.9101,3.9101,3.9101,3.9101,3.9101,3.9101,3.9101,3.8599,3.8302,3.8005,3.7689,3.7596,3.7503,3.7281,3.6996,3.6513,3.6179,3.5993,3.5404,3.499,3.5008,3.4785,3.4729,3.5064,3.525,3.5194,3.5045,3.4866,3.4717,3.4569,3.4309,3.4216,3.4364,3.4587,3.4754,3.5101,3.5572,3.5956,3.6142,3.6439,3.6909,3.7206,3.7387,3.7912,3.8469,3.8674,3.8878,3.9027,3.6284,3.6284,3.6284,3.6284,3.6284,3.6284,3.6284,3.6284,3.6284,3.6284,3.6284,3.6284,3.6284,3.6284,3.6284,3.6284,3.6284,3.6284,3.6326,3.6433,3.6454,3.7036,3.745,3.765,3.8101,3.8435,3.8611,3.8627,3.8692,3.8707,3.8707,3.8707,3.8707,3.8707,3.8707,3.8707,3.8707,3.8707,3.8707,3.8707,3.8707,3.8707,3.8707,3.8719,3.8765,3.8773,3.8851,3.8925,3.8979,3.9021,3.9078,3.9087,3.9101,3.9101,3.9101,3.9101,3.9101,3.9101,3.9101,3.9101,3.9101,3.9101,3.9101,3.9101,3.9101,3.9101,3.9101,3.9101,3.9101,3.9101,3.9101,3.9101,3.9101,3.8915,3.8284,3.7615,3.7169,3.676,3.6705,3.6649,3.6383,3.6142,3.577,3.5436,3.5045,3.4432,3.4209,3.4209,3.4265,3.4376,3.4599,3.4674,3.4637,3.4432,3.4271,3.4265,3.4209,3.4216,3.4216,3.4216,3.4253,3.4457,3.4531,3.4494,3.4829,3.5231,3.5603,3.603,3.629,3.6551,3.7517,3.8209,3.8339,3.8599,3.8971,3.6284,3.6284,3.6284,3.6266,3.6249,3.6249,3.6284,3.6284,3.6232,3.6284,3.6163,3.6249,3.6284,3.6266,3.6284,3.6284,3.6284,3.6284,3.6536,3.6741,3.6698,3.7265,3.7756,3.7948,3.8269,3.853,3.8707,3.8707,3.8707,3.8707,3.8707,3.8707,3.8707,3.8707,3.8707,3.8707,3.8707,3.8707,3.8707,3.8707,3.8707,3.8707,3.8707,3.8719,3.8747,3.8792,3.8818,3.8921,3.8979,3.9021,3.9078,3.9087,3.9101,3.9101,3.9101,3.9101,3.9101,3.9101,3.9101,3.9101,3.9101,3.9101,3.9101,3.9101,3.9101,3.9101,3.9101,3.9101,3.9101,3.9101,3.9101,3.9101,3.9064,3.8674,3.8154,3.7336,3.6718,3.6439,3.6272,3.6012,3.5677,3.5287,3.4804,3.4649,3.4642,3.4233,3.4221,3.4233,3.4257,3.4233,3.4221,3.4233,3.4233,3.4209,3.4234,3.4228,3.4221,3.4209,3.4228,3.4233,3.4233,3.4216,3.4234,3.4289,3.4277,3.4525,3.4878,3.5318,3.5491,3.59,3.7182,3.7963,3.8056,3.8321,3.8729]}]]